<?xml version="1.0" encoding="UTF-8" standalone="no" ?>
<gpx xmlns="http://www.topografix.com/GPX/1/1" xmlns:xsi="http://www.w3.org/2001/XMLSchema-instance" xsi:schemaLocation="http://www.topografix.com/GPX/1/1 http://www.topografix.com/GPX/1/1/gpx.xsd" version="1.1" creator="VisuGPX - https://www.visugpx.com">
  <metadata>
    <name>leguevin-Lasserre-leguevin </name>
    <desc><![CDATA[sortie longue Leguevin-Lasserre-leguevin en boucle dans la forêt de Bouconne]]></desc>
  </metadata>
  <trk>
    <name><![CDATA[Untitled]]></name>
    <trkseg>
      <trkpt lat="43.60268" lon="1.2446">
        <ele>192.19999694824</ele>
        <time>2013-12-22T07:05:00.000Z</time>
      </trkpt>
      <trkpt lat="43.6027" lon="1.24457">
        <ele>192.19999694824</ele>
        <time>2013-12-22T07:05:06.000Z</time>
      </trkpt>
      <trkpt lat="43.6027" lon="1.24448">
        <ele>192.19999694824</ele>
        <time>2013-12-22T07:05:10.000Z</time>
      </trkpt>
      <trkpt lat="43.60271" lon="1.24432">
        <ele>192</ele>
        <time>2013-12-22T07:05:15.000Z</time>
      </trkpt>
      <trkpt lat="43.60268" lon="1.24402">
        <ele>192.19999694824</ele>
        <time>2013-12-22T07:05:24.000Z</time>
      </trkpt>
      <trkpt lat="43.60268" lon="1.2438">
        <ele>192.39999389648</ele>
        <time>2013-12-22T07:05:30.000Z</time>
      </trkpt>
      <trkpt lat="43.60265" lon="1.24358">
        <ele>192.60000610352</ele>
        <time>2013-12-22T07:05:36.000Z</time>
      </trkpt>
      <trkpt lat="43.60257" lon="1.24334">
        <ele>193</ele>
        <time>2013-12-22T07:05:43.000Z</time>
      </trkpt>
      <trkpt lat="43.60245" lon="1.2432">
        <ele>193.19999694824</ele>
        <time>2013-12-22T07:05:49.000Z</time>
      </trkpt>
      <trkpt lat="43.60235" lon="1.2431">
        <ele>193.60000610352</ele>
        <time>2013-12-22T07:05:54.000Z</time>
      </trkpt>
      <trkpt lat="43.6022" lon="1.24294">
        <ele>193.80000305176</ele>
        <time>2013-12-22T07:06:01.000Z</time>
      </trkpt>
      <trkpt lat="43.60205" lon="1.24279">
        <ele>194</ele>
        <time>2013-12-22T07:06:08.000Z</time>
      </trkpt>
      <trkpt lat="43.60193" lon="1.24267">
        <ele>194</ele>
        <time>2013-12-22T07:06:14.000Z</time>
      </trkpt>
      <trkpt lat="43.60181" lon="1.24253">
        <ele>194</ele>
        <time>2013-12-22T07:06:20.000Z</time>
      </trkpt>
      <trkpt lat="43.60168" lon="1.2424">
        <ele>194</ele>
        <time>2013-12-22T07:06:26.000Z</time>
      </trkpt>
      <trkpt lat="43.60154" lon="1.24225">
        <ele>194.19999694824</ele>
        <time>2013-12-22T07:06:33.000Z</time>
      </trkpt>
      <trkpt lat="43.60143" lon="1.24214">
        <ele>194.19999694824</ele>
        <time>2013-12-22T07:06:38.000Z</time>
      </trkpt>
      <trkpt lat="43.60138" lon="1.24203">
        <ele>194.39999389648</ele>
        <time>2013-12-22T07:06:42.000Z</time>
      </trkpt>
      <trkpt lat="43.60145" lon="1.24191">
        <ele>194.19999694824</ele>
        <time>2013-12-22T07:06:47.000Z</time>
      </trkpt>
      <trkpt lat="43.60149" lon="1.24186">
        <ele>194.19999694824</ele>
        <time>2013-12-22T07:06:49.000Z</time>
      </trkpt>
      <trkpt lat="43.60161" lon="1.24172">
        <ele>194</ele>
        <time>2013-12-22T07:06:55.000Z</time>
      </trkpt>
      <trkpt lat="43.60173" lon="1.24156">
        <ele>193.39999389648</ele>
        <time>2013-12-22T07:07:02.000Z</time>
      </trkpt>
      <trkpt lat="43.60181" lon="1.24144">
        <ele>192.60000610352</ele>
        <time>2013-12-22T07:07:07.000Z</time>
      </trkpt>
      <trkpt lat="43.60192" lon="1.24129">
        <ele>191.80000305176</ele>
        <time>2013-12-22T07:07:13.000Z</time>
      </trkpt>
      <trkpt lat="43.60212" lon="1.24094">
        <ele>189.60000610352</ele>
        <time>2013-12-22T07:07:26.000Z</time>
      </trkpt>
      <trkpt lat="43.60217" lon="1.24079">
        <ele>188.60000610352</ele>
        <time>2013-12-22T07:07:31.000Z</time>
      </trkpt>
      <trkpt lat="43.60221" lon="1.2406">
        <ele>187.19999694824</ele>
        <time>2013-12-22T07:07:37.000Z</time>
      </trkpt>
      <trkpt lat="43.60224" lon="1.24048">
        <ele>186.60000610352</ele>
        <time>2013-12-22T07:07:41.000Z</time>
      </trkpt>
      <trkpt lat="43.60232" lon="1.24045">
        <ele>186.39999389648</ele>
        <time>2013-12-22T07:07:45.000Z</time>
      </trkpt>
      <trkpt lat="43.60245" lon="1.24041">
        <ele>186</ele>
        <time>2013-12-22T07:07:52.000Z</time>
      </trkpt>
      <trkpt lat="43.60259" lon="1.24029">
        <ele>185</ele>
        <time>2013-12-22T07:07:59.000Z</time>
      </trkpt>
      <trkpt lat="43.60271" lon="1.24017">
        <ele>183.80000305176</ele>
        <time>2013-12-22T07:08:05.000Z</time>
      </trkpt>
      <trkpt lat="43.60281" lon="1.24009">
        <ele>183.19999694824</ele>
        <time>2013-12-22T07:08:10.000Z</time>
      </trkpt>
      <trkpt lat="43.60291" lon="1.23998">
        <ele>182.60000610352</ele>
        <time>2013-12-22T07:08:15.000Z</time>
      </trkpt>
      <trkpt lat="43.603" lon="1.23988">
        <ele>182.39999389648</ele>
        <time>2013-12-22T07:08:20.000Z</time>
      </trkpt>
      <trkpt lat="43.60304" lon="1.23985">
        <ele>182.19999694824</ele>
        <time>2013-12-22T07:08:22.000Z</time>
      </trkpt>
      <trkpt lat="43.60318" lon="1.23969">
        <ele>182.39999389648</ele>
        <time>2013-12-22T07:08:29.000Z</time>
      </trkpt>
      <trkpt lat="43.6033" lon="1.2395">
        <ele>183.39999389648</ele>
        <time>2013-12-22T07:08:37.000Z</time>
      </trkpt>
      <trkpt lat="43.60333" lon="1.23948">
        <ele>183.39999389648</ele>
        <time>2013-12-22T07:08:38.000Z</time>
      </trkpt>
      <trkpt lat="43.60338" lon="1.23933">
        <ele>184.80000305176</ele>
        <time>2013-12-22T07:08:44.000Z</time>
      </trkpt>
      <trkpt lat="43.6034" lon="1.23931">
        <ele>185</ele>
        <time>2013-12-22T07:08:45.000Z</time>
      </trkpt>
      <trkpt lat="43.60352" lon="1.23922">
        <ele>186.80000305176</ele>
        <time>2013-12-22T07:08:52.000Z</time>
      </trkpt>
      <trkpt lat="43.60358" lon="1.23916">
        <ele>187.80000305176</ele>
        <time>2013-12-22T07:08:56.000Z</time>
      </trkpt>
      <trkpt lat="43.60362" lon="1.23906">
        <ele>188.60000610352</ele>
        <time>2013-12-22T07:09:01.000Z</time>
      </trkpt>
      <trkpt lat="43.60364" lon="1.23901">
        <ele>188.80000305176</ele>
        <time>2013-12-22T07:09:02.000Z</time>
      </trkpt>
      <trkpt lat="43.60364" lon="1.23896">
        <ele>189.19999694824</ele>
        <time>2013-12-22T07:09:05.000Z</time>
      </trkpt>
      <trkpt lat="43.60361" lon="1.23878">
        <ele>189.60000610352</ele>
        <time>2013-12-22T07:09:12.000Z</time>
      </trkpt>
      <trkpt lat="43.6036" lon="1.23864">
        <ele>190</ele>
        <time>2013-12-22T07:09:19.000Z</time>
      </trkpt>
      <trkpt lat="43.60363" lon="1.2385">
        <ele>190.80000305176</ele>
        <time>2013-12-22T07:09:23.000Z</time>
      </trkpt>
      <trkpt lat="43.60368" lon="1.23838">
        <ele>191.60000610352</ele>
        <time>2013-12-22T07:09:28.000Z</time>
      </trkpt>
      <trkpt lat="43.60376" lon="1.23818">
        <ele>192.19999694824</ele>
        <time>2013-12-22T07:09:35.000Z</time>
      </trkpt>
      <trkpt lat="43.60382" lon="1.23797">
        <ele>192.60000610352</ele>
        <time>2013-12-22T07:09:42.000Z</time>
      </trkpt>
      <trkpt lat="43.60386" lon="1.23784">
        <ele>193</ele>
        <time>2013-12-22T07:09:47.000Z</time>
      </trkpt>
      <trkpt lat="43.60389" lon="1.23765">
        <ele>193.19999694824</ele>
        <time>2013-12-22T07:09:53.000Z</time>
      </trkpt>
      <trkpt lat="43.6039" lon="1.23747">
        <ele>193.39999389648</ele>
        <time>2013-12-22T07:09:59.000Z</time>
      </trkpt>
      <trkpt lat="43.60383" lon="1.23735">
        <ele>193.60000610352</ele>
        <time>2013-12-22T07:10:04.000Z</time>
      </trkpt>
      <trkpt lat="43.60367" lon="1.23723">
        <ele>193.39999389648</ele>
        <time>2013-12-22T07:10:12.000Z</time>
      </trkpt>
      <trkpt lat="43.60351" lon="1.23714">
        <ele>193</ele>
        <time>2013-12-22T07:10:19.000Z</time>
      </trkpt>
      <trkpt lat="43.60333" lon="1.23704">
        <ele>192.60000610352</ele>
        <time>2013-12-22T07:10:27.000Z</time>
      </trkpt>
      <trkpt lat="43.6033" lon="1.23701">
        <ele>192.39999389648</ele>
        <time>2013-12-22T07:10:29.000Z</time>
      </trkpt>
      <trkpt lat="43.60327" lon="1.23683">
        <ele>192.39999389648</ele>
        <time>2013-12-22T07:10:34.000Z</time>
      </trkpt>
      <trkpt lat="43.6033" lon="1.23667">
        <ele>192.80000305176</ele>
        <time>2013-12-22T07:10:39.000Z</time>
      </trkpt>
      <trkpt lat="43.60335" lon="1.23648">
        <ele>192.80000305176</ele>
        <time>2013-12-22T07:10:45.000Z</time>
      </trkpt>
      <trkpt lat="43.6034" lon="1.23629">
        <ele>193</ele>
        <time>2013-12-22T07:10:51.000Z</time>
      </trkpt>
      <trkpt lat="43.60346" lon="1.23615">
        <ele>193.19999694824</ele>
        <time>2013-12-22T07:10:56.000Z</time>
      </trkpt>
      <trkpt lat="43.6035" lon="1.23612">
        <ele>193.39999389648</ele>
        <time>2013-12-22T07:10:58.000Z</time>
      </trkpt>
      <trkpt lat="43.60367" lon="1.23618">
        <ele>194.39999389648</ele>
        <time>2013-12-22T07:11:05.000Z</time>
      </trkpt>
      <trkpt lat="43.60378" lon="1.23625">
        <ele>195.19999694824</ele>
        <time>2013-12-22T07:11:10.000Z</time>
      </trkpt>
      <trkpt lat="43.6039" lon="1.23632">
        <ele>195.80000305176</ele>
        <time>2013-12-22T07:11:16.000Z</time>
      </trkpt>
      <trkpt lat="43.60403" lon="1.23639">
        <ele>196.60000610352</ele>
        <time>2013-12-22T07:11:22.000Z</time>
      </trkpt>
      <trkpt lat="43.6041" lon="1.23643">
        <ele>197</ele>
        <time>2013-12-22T07:11:25.000Z</time>
      </trkpt>
      <trkpt lat="43.60417" lon="1.23647">
        <ele>197.19999694824</ele>
        <time>2013-12-22T07:11:28.000Z</time>
      </trkpt>
      <trkpt lat="43.60429" lon="1.23658">
        <ele>196.80000305176</ele>
        <time>2013-12-22T07:11:34.000Z</time>
      </trkpt>
      <trkpt lat="43.60435" lon="1.23674">
        <ele>196.19999694824</ele>
        <time>2013-12-22T07:11:39.000Z</time>
      </trkpt>
      <trkpt lat="43.6044" lon="1.23695">
        <ele>195.60000610352</ele>
        <time>2013-12-22T07:11:45.000Z</time>
      </trkpt>
      <trkpt lat="43.60446" lon="1.23715">
        <ele>194.80000305176</ele>
        <time>2013-12-22T07:11:51.000Z</time>
      </trkpt>
      <trkpt lat="43.60455" lon="1.23728">
        <ele>194.19999694824</ele>
        <time>2013-12-22T07:11:56.000Z</time>
      </trkpt>
      <trkpt lat="43.60465" lon="1.23739">
        <ele>193.80000305176</ele>
        <time>2013-12-22T07:12:01.000Z</time>
      </trkpt>
      <trkpt lat="43.60476" lon="1.23732">
        <ele>193.80000305176</ele>
        <time>2013-12-22T07:12:06.000Z</time>
      </trkpt>
      <trkpt lat="43.60483" lon="1.23722">
        <ele>194</ele>
        <time>2013-12-22T07:12:10.000Z</time>
      </trkpt>
      <trkpt lat="43.60495" lon="1.23705">
        <ele>194.19999694824</ele>
        <time>2013-12-22T07:12:17.000Z</time>
      </trkpt>
      <trkpt lat="43.60503" lon="1.23694">
        <ele>194.19999694824</ele>
        <time>2013-12-22T07:12:22.000Z</time>
      </trkpt>
      <trkpt lat="43.60514" lon="1.23678">
        <ele>194.39999389648</ele>
        <time>2013-12-22T07:12:28.000Z</time>
      </trkpt>
      <trkpt lat="43.6052" lon="1.23663">
        <ele>194.60000610352</ele>
        <time>2013-12-22T07:12:33.000Z</time>
      </trkpt>
      <trkpt lat="43.60527" lon="1.23641">
        <ele>194.80000305176</ele>
        <time>2013-12-22T07:12:40.000Z</time>
      </trkpt>
      <trkpt lat="43.60533" lon="1.23621">
        <ele>195</ele>
        <time>2013-12-22T07:12:46.000Z</time>
      </trkpt>
      <trkpt lat="43.60537" lon="1.236">
        <ele>195.19999694824</ele>
        <time>2013-12-22T07:12:52.000Z</time>
      </trkpt>
      <trkpt lat="43.60544" lon="1.23579">
        <ele>195.60000610352</ele>
        <time>2013-12-22T07:12:58.000Z</time>
      </trkpt>
      <trkpt lat="43.6055" lon="1.23559">
        <ele>195.80000305176</ele>
        <time>2013-12-22T07:13:04.000Z</time>
      </trkpt>
      <trkpt lat="43.60556" lon="1.23536">
        <ele>196</ele>
        <time>2013-12-22T07:13:11.000Z</time>
      </trkpt>
      <trkpt lat="43.60561" lon="1.23512">
        <ele>196.39999389648</ele>
        <time>2013-12-22T07:13:18.000Z</time>
      </trkpt>
      <trkpt lat="43.60562" lon="1.23493">
        <ele>196.80000305176</ele>
        <time>2013-12-22T07:13:24.000Z</time>
      </trkpt>
      <trkpt lat="43.60563" lon="1.23471">
        <ele>197.19999694824</ele>
        <time>2013-12-22T07:13:30.000Z</time>
      </trkpt>
      <trkpt lat="43.60566" lon="1.23443">
        <ele>198</ele>
        <time>2013-12-22T07:13:38.000Z</time>
      </trkpt>
      <trkpt lat="43.60571" lon="1.23422">
        <ele>198.60000610352</ele>
        <time>2013-12-22T07:13:44.000Z</time>
      </trkpt>
      <trkpt lat="43.60574" lon="1.23414">
        <ele>198.80000305176</ele>
        <time>2013-12-22T07:13:47.000Z</time>
      </trkpt>
      <trkpt lat="43.60589" lon="1.23406">
        <ele>198.39999389648</ele>
        <time>2013-12-22T07:13:53.000Z</time>
      </trkpt>
      <trkpt lat="43.606" lon="1.23408">
        <ele>198.19999694824</ele>
        <time>2013-12-22T07:13:58.000Z</time>
      </trkpt>
      <trkpt lat="43.60615" lon="1.23412">
        <ele>197.80000305176</ele>
        <time>2013-12-22T07:14:04.000Z</time>
      </trkpt>
      <trkpt lat="43.60624" lon="1.23412">
        <ele>197.39999389648</ele>
        <time>2013-12-22T07:14:08.000Z</time>
      </trkpt>
      <trkpt lat="43.60638" lon="1.23414">
        <ele>197</ele>
        <time>2013-12-22T07:14:14.000Z</time>
      </trkpt>
      <trkpt lat="43.60646" lon="1.23415">
        <ele>196.80000305176</ele>
        <time>2013-12-22T07:14:17.000Z</time>
      </trkpt>
      <trkpt lat="43.60658" lon="1.23416">
        <ele>196.19999694824</ele>
        <time>2013-12-22T07:14:22.000Z</time>
      </trkpt>
      <trkpt lat="43.60675" lon="1.23415">
        <ele>195.80000305176</ele>
        <time>2013-12-22T07:14:28.000Z</time>
      </trkpt>
      <trkpt lat="43.60694" lon="1.23413">
        <ele>195.19999694824</ele>
        <time>2013-12-22T07:14:35.000Z</time>
      </trkpt>
      <trkpt lat="43.6071" lon="1.23408">
        <ele>194.80000305176</ele>
        <time>2013-12-22T07:14:41.000Z</time>
      </trkpt>
      <trkpt lat="43.60723" lon="1.23411">
        <ele>194.39999389648</ele>
        <time>2013-12-22T07:14:46.000Z</time>
      </trkpt>
      <trkpt lat="43.60737" lon="1.23415">
        <ele>194.19999694824</ele>
        <time>2013-12-22T07:14:52.000Z</time>
      </trkpt>
      <trkpt lat="43.60747" lon="1.23416">
        <ele>194</ele>
        <time>2013-12-22T07:14:56.000Z</time>
      </trkpt>
      <trkpt lat="43.60757" lon="1.23417">
        <ele>193.80000305176</ele>
        <time>2013-12-22T07:15:00.000Z</time>
      </trkpt>
      <trkpt lat="43.60772" lon="1.23419">
        <ele>193.60000610352</ele>
        <time>2013-12-22T07:15:06.000Z</time>
      </trkpt>
      <trkpt lat="43.60787" lon="1.23423">
        <ele>193.19999694824</ele>
        <time>2013-12-22T07:15:12.000Z</time>
      </trkpt>
      <trkpt lat="43.60797" lon="1.23427">
        <ele>193</ele>
        <time>2013-12-22T07:15:16.000Z</time>
      </trkpt>
      <trkpt lat="43.60809" lon="1.23432">
        <ele>192.80000305176</ele>
        <time>2013-12-22T07:15:21.000Z</time>
      </trkpt>
      <trkpt lat="43.60824" lon="1.23439">
        <ele>192.60000610352</ele>
        <time>2013-12-22T07:15:28.000Z</time>
      </trkpt>
      <trkpt lat="43.60838" lon="1.23446">
        <ele>192.39999389648</ele>
        <time>2013-12-22T07:15:34.000Z</time>
      </trkpt>
      <trkpt lat="43.60852" lon="1.2345">
        <ele>192.60000610352</ele>
        <time>2013-12-22T07:15:40.000Z</time>
      </trkpt>
      <trkpt lat="43.60867" lon="1.23454">
        <ele>192.80000305176</ele>
        <time>2013-12-22T07:15:46.000Z</time>
      </trkpt>
      <trkpt lat="43.6088" lon="1.2346">
        <ele>193</ele>
        <time>2013-12-22T07:15:51.000Z</time>
      </trkpt>
      <trkpt lat="43.60894" lon="1.23468">
        <ele>193.19999694824</ele>
        <time>2013-12-22T07:15:57.000Z</time>
      </trkpt>
      <trkpt lat="43.60909" lon="1.23479">
        <ele>193.19999694824</ele>
        <time>2013-12-22T07:16:03.000Z</time>
      </trkpt>
      <trkpt lat="43.60921" lon="1.23487">
        <ele>193.19999694824</ele>
        <time>2013-12-22T07:16:08.000Z</time>
      </trkpt>
      <trkpt lat="43.60935" lon="1.235">
        <ele>193.39999389648</ele>
        <time>2013-12-22T07:16:14.000Z</time>
      </trkpt>
      <trkpt lat="43.60945" lon="1.23513">
        <ele>193.80000305176</ele>
        <time>2013-12-22T07:16:19.000Z</time>
      </trkpt>
      <trkpt lat="43.60969" lon="1.23539">
        <ele>194.60000610352</ele>
        <time>2013-12-22T07:16:30.000Z</time>
      </trkpt>
      <trkpt lat="43.6098" lon="1.23551">
        <ele>194.80000305176</ele>
        <time>2013-12-22T07:16:36.000Z</time>
      </trkpt>
      <trkpt lat="43.60994" lon="1.23563">
        <ele>195</ele>
        <time>2013-12-22T07:16:41.000Z</time>
      </trkpt>
      <trkpt lat="43.61006" lon="1.23576">
        <ele>195</ele>
        <time>2013-12-22T07:16:47.000Z</time>
      </trkpt>
      <trkpt lat="43.61017" lon="1.23588">
        <ele>194.80000305176</ele>
        <time>2013-12-22T07:16:52.000Z</time>
      </trkpt>
      <trkpt lat="43.61029" lon="1.23602">
        <ele>194.60000610352</ele>
        <time>2013-12-22T07:16:58.000Z</time>
      </trkpt>
      <trkpt lat="43.6104" lon="1.23615">
        <ele>194.39999389648</ele>
        <time>2013-12-22T07:17:03.000Z</time>
      </trkpt>
      <trkpt lat="43.61053" lon="1.23629">
        <ele>194.19999694824</ele>
        <time>2013-12-22T07:17:09.000Z</time>
      </trkpt>
      <trkpt lat="43.61061" lon="1.23638">
        <ele>194.19999694824</ele>
        <time>2013-12-22T07:17:13.000Z</time>
      </trkpt>
      <trkpt lat="43.61063" lon="1.2364">
        <ele>194.19999694824</ele>
        <time>2013-12-22T07:17:14.000Z</time>
      </trkpt>
      <trkpt lat="43.61078" lon="1.23656">
        <ele>194</ele>
        <time>2013-12-22T07:17:21.000Z</time>
      </trkpt>
      <trkpt lat="43.61089" lon="1.23667">
        <ele>194</ele>
        <time>2013-12-22T07:17:26.000Z</time>
      </trkpt>
      <trkpt lat="43.61091" lon="1.23667">
        <ele>194</ele>
        <time>2013-12-22T07:17:27.000Z</time>
      </trkpt>
      <trkpt lat="43.61101" lon="1.23665">
        <ele>194</ele>
        <time>2013-12-22T07:17:32.000Z</time>
      </trkpt>
      <trkpt lat="43.61109" lon="1.23678">
        <ele>193.80000305176</ele>
        <time>2013-12-22T07:17:36.000Z</time>
      </trkpt>
      <trkpt lat="43.61117" lon="1.23692">
        <ele>193.60000610352</ele>
        <time>2013-12-22T07:17:41.000Z</time>
      </trkpt>
      <trkpt lat="43.61121" lon="1.23693">
        <ele>193.60000610352</ele>
        <time>2013-12-22T07:17:43.000Z</time>
      </trkpt>
      <trkpt lat="43.61135" lon="1.23696">
        <ele>193.80000305176</ele>
        <time>2013-12-22T07:17:49.000Z</time>
      </trkpt>
      <trkpt lat="43.6115" lon="1.23697">
        <ele>193.80000305176</ele>
        <time>2013-12-22T07:17:56.000Z</time>
      </trkpt>
      <trkpt lat="43.61163" lon="1.23696">
        <ele>194</ele>
        <time>2013-12-22T07:18:02.000Z</time>
      </trkpt>
      <trkpt lat="43.61178" lon="1.23697">
        <ele>194.19999694824</ele>
        <time>2013-12-22T07:18:08.000Z</time>
      </trkpt>
      <trkpt lat="43.61193" lon="1.23697">
        <ele>194.39999389648</ele>
        <time>2013-12-22T07:18:14.000Z</time>
      </trkpt>
      <trkpt lat="43.61212" lon="1.23697">
        <ele>194.80000305176</ele>
        <time>2013-12-22T07:18:21.000Z</time>
      </trkpt>
      <trkpt lat="43.61227" lon="1.23698">
        <ele>195</ele>
        <time>2013-12-22T07:18:27.000Z</time>
      </trkpt>
      <trkpt lat="43.61241" lon="1.23698">
        <ele>195.19999694824</ele>
        <time>2013-12-22T07:18:33.000Z</time>
      </trkpt>
      <trkpt lat="43.61257" lon="1.23698">
        <ele>195.19999694824</ele>
        <time>2013-12-22T07:18:40.000Z</time>
      </trkpt>
      <trkpt lat="43.61276" lon="1.23697">
        <ele>194.60000610352</ele>
        <time>2013-12-22T07:18:47.000Z</time>
      </trkpt>
      <trkpt lat="43.61284" lon="1.23698">
        <ele>194.39999389648</ele>
        <time>2013-12-22T07:18:52.000Z</time>
      </trkpt>
      <trkpt lat="43.61286" lon="1.23698">
        <ele>194.39999389648</ele>
        <time>2013-12-22T07:18:57.000Z</time>
      </trkpt>
      <trkpt lat="43.61298" lon="1.23697">
        <ele>194</ele>
        <time>2013-12-22T07:19:19.000Z</time>
      </trkpt>
      <trkpt lat="43.61317" lon="1.23696">
        <ele>193.39999389648</ele>
        <time>2013-12-22T07:19:25.000Z</time>
      </trkpt>
      <trkpt lat="43.61336" lon="1.23695">
        <ele>193</ele>
        <time>2013-12-22T07:19:32.000Z</time>
      </trkpt>
      <trkpt lat="43.61352" lon="1.23695">
        <ele>193</ele>
        <time>2013-12-22T07:19:38.000Z</time>
      </trkpt>
      <trkpt lat="43.61368" lon="1.23696">
        <ele>193</ele>
        <time>2013-12-22T07:19:44.000Z</time>
      </trkpt>
      <trkpt lat="43.61384" lon="1.237">
        <ele>193</ele>
        <time>2013-12-22T07:19:50.000Z</time>
      </trkpt>
      <trkpt lat="43.61391" lon="1.237">
        <ele>193</ele>
        <time>2013-12-22T07:19:53.000Z</time>
      </trkpt>
      <trkpt lat="43.61398" lon="1.2368">
        <ele>193</ele>
        <time>2013-12-22T07:20:00.000Z</time>
      </trkpt>
      <trkpt lat="43.61404" lon="1.23659">
        <ele>193</ele>
        <time>2013-12-22T07:20:06.000Z</time>
      </trkpt>
      <trkpt lat="43.61411" lon="1.23636">
        <ele>193</ele>
        <time>2013-12-22T07:20:12.000Z</time>
      </trkpt>
      <trkpt lat="43.61417" lon="1.23613">
        <ele>193</ele>
        <time>2013-12-22T07:20:20.000Z</time>
      </trkpt>
      <trkpt lat="43.61424" lon="1.23589">
        <ele>193</ele>
        <time>2013-12-22T07:20:26.000Z</time>
      </trkpt>
      <trkpt lat="43.6143" lon="1.23565">
        <ele>193.19999694824</ele>
        <time>2013-12-22T07:20:34.000Z</time>
      </trkpt>
      <trkpt lat="43.61435" lon="1.23544">
        <ele>193.19999694824</ele>
        <time>2013-12-22T07:20:40.000Z</time>
      </trkpt>
      <trkpt lat="43.61442" lon="1.23521">
        <ele>193.19999694824</ele>
        <time>2013-12-22T07:20:47.000Z</time>
      </trkpt>
      <trkpt lat="43.61446" lon="1.23504">
        <ele>193.19999694824</ele>
        <time>2013-12-22T07:20:52.000Z</time>
      </trkpt>
      <trkpt lat="43.61451" lon="1.23478">
        <ele>193.39999389648</ele>
        <time>2013-12-22T07:20:59.000Z</time>
      </trkpt>
      <trkpt lat="43.61457" lon="1.23453">
        <ele>193.60000610352</ele>
        <time>2013-12-22T07:21:06.000Z</time>
      </trkpt>
      <trkpt lat="43.6146" lon="1.23433">
        <ele>193.80000305176</ele>
        <time>2013-12-22T07:21:12.000Z</time>
      </trkpt>
      <trkpt lat="43.61465" lon="1.23408">
        <ele>194</ele>
        <time>2013-12-22T07:21:19.000Z</time>
      </trkpt>
      <trkpt lat="43.61469" lon="1.23384">
        <ele>194.19999694824</ele>
        <time>2013-12-22T07:21:26.000Z</time>
      </trkpt>
      <trkpt lat="43.61473" lon="1.23362">
        <ele>194.19999694824</ele>
        <time>2013-12-22T07:21:31.000Z</time>
      </trkpt>
      <trkpt lat="43.61477" lon="1.23341">
        <ele>194.19999694824</ele>
        <time>2013-12-22T07:21:37.000Z</time>
      </trkpt>
      <trkpt lat="43.61484" lon="1.23325">
        <ele>194.19999694824</ele>
        <time>2013-12-22T07:21:42.000Z</time>
      </trkpt>
      <trkpt lat="43.61497" lon="1.23306">
        <ele>194</ele>
        <time>2013-12-22T07:21:49.000Z</time>
      </trkpt>
      <trkpt lat="43.61501" lon="1.23288">
        <ele>194</ele>
        <time>2013-12-22T07:21:54.000Z</time>
      </trkpt>
      <trkpt lat="43.61506" lon="1.23264">
        <ele>194</ele>
        <time>2013-12-22T07:22:01.000Z</time>
      </trkpt>
      <trkpt lat="43.6151" lon="1.23239">
        <ele>193.80000305176</ele>
        <time>2013-12-22T07:22:08.000Z</time>
      </trkpt>
      <trkpt lat="43.61514" lon="1.23214">
        <ele>193.60000610352</ele>
        <time>2013-12-22T07:22:15.000Z</time>
      </trkpt>
      <trkpt lat="43.61517" lon="1.23191">
        <ele>193.19999694824</ele>
        <time>2013-12-22T07:22:22.000Z</time>
      </trkpt>
      <trkpt lat="43.61521" lon="1.23164">
        <ele>193</ele>
        <time>2013-12-22T07:22:30.000Z</time>
      </trkpt>
      <trkpt lat="43.61525" lon="1.2314">
        <ele>192.60000610352</ele>
        <time>2013-12-22T07:22:37.000Z</time>
      </trkpt>
      <trkpt lat="43.6153" lon="1.23114">
        <ele>192.19999694824</ele>
        <time>2013-12-22T07:22:43.000Z</time>
      </trkpt>
      <trkpt lat="43.61535" lon="1.23088">
        <ele>192</ele>
        <time>2013-12-22T07:22:50.000Z</time>
      </trkpt>
      <trkpt lat="43.61539" lon="1.23068">
        <ele>192</ele>
        <time>2013-12-22T07:22:56.000Z</time>
      </trkpt>
      <trkpt lat="43.61545" lon="1.23041">
        <ele>192</ele>
        <time>2013-12-22T07:23:03.000Z</time>
      </trkpt>
      <trkpt lat="43.61546" lon="1.2302">
        <ele>192</ele>
        <time>2013-12-22T07:23:09.000Z</time>
      </trkpt>
      <trkpt lat="43.61552" lon="1.22999">
        <ele>192</ele>
        <time>2013-12-22T07:23:15.000Z</time>
      </trkpt>
      <trkpt lat="43.61553" lon="1.22996">
        <ele>192</ele>
        <time>2013-12-22T07:23:16.000Z</time>
      </trkpt>
      <trkpt lat="43.61561" lon="1.22987">
        <ele>192.19999694824</ele>
        <time>2013-12-22T07:23:20.000Z</time>
      </trkpt>
      <trkpt lat="43.61562" lon="1.22983">
        <ele>192.39999389648</ele>
        <time>2013-12-22T07:23:22.000Z</time>
      </trkpt>
      <trkpt lat="43.61566" lon="1.22961">
        <ele>192.80000305176</ele>
        <time>2013-12-22T07:23:29.000Z</time>
      </trkpt>
      <trkpt lat="43.6157" lon="1.22949">
        <ele>193</ele>
        <time>2013-12-22T07:23:34.000Z</time>
      </trkpt>
      <trkpt lat="43.61573" lon="1.22939">
        <ele>193.19999694824</ele>
        <time>2013-12-22T07:23:40.000Z</time>
      </trkpt>
      <trkpt lat="43.61574" lon="1.22936">
        <ele>193.39999389648</ele>
        <time>2013-12-22T07:23:41.000Z</time>
      </trkpt>
      <trkpt lat="43.6158" lon="1.22917">
        <ele>194</ele>
        <time>2013-12-22T07:23:48.000Z</time>
      </trkpt>
      <trkpt lat="43.61585" lon="1.229">
        <ele>194</ele>
        <time>2013-12-22T07:23:53.000Z</time>
      </trkpt>
      <trkpt lat="43.61592" lon="1.22882">
        <ele>193.80000305176</ele>
        <time>2013-12-22T07:23:59.000Z</time>
      </trkpt>
      <trkpt lat="43.61598" lon="1.22861">
        <ele>193.80000305176</ele>
        <time>2013-12-22T07:24:05.000Z</time>
      </trkpt>
      <trkpt lat="43.61605" lon="1.22845">
        <ele>193.80000305176</ele>
        <time>2013-12-22T07:24:11.000Z</time>
      </trkpt>
      <trkpt lat="43.61612" lon="1.22826">
        <ele>193.60000610352</ele>
        <time>2013-12-22T07:24:16.000Z</time>
      </trkpt>
      <trkpt lat="43.6162" lon="1.22808">
        <ele>193.39999389648</ele>
        <time>2013-12-22T07:24:22.000Z</time>
      </trkpt>
      <trkpt lat="43.61626" lon="1.22791">
        <ele>193.19999694824</ele>
        <time>2013-12-22T07:24:27.000Z</time>
      </trkpt>
      <trkpt lat="43.61635" lon="1.22774">
        <ele>193.19999694824</ele>
        <time>2013-12-22T07:24:33.000Z</time>
      </trkpt>
      <trkpt lat="43.61643" lon="1.22756">
        <ele>193</ele>
        <time>2013-12-22T07:24:39.000Z</time>
      </trkpt>
      <trkpt lat="43.6165" lon="1.22739">
        <ele>193.39999389648</ele>
        <time>2013-12-22T07:24:45.000Z</time>
      </trkpt>
      <trkpt lat="43.61652" lon="1.22737">
        <ele>193.60000610352</ele>
        <time>2013-12-22T07:24:46.000Z</time>
      </trkpt>
      <trkpt lat="43.61657" lon="1.22728">
        <ele>193.80000305176</ele>
        <time>2013-12-22T07:24:49.000Z</time>
      </trkpt>
      <trkpt lat="43.61668" lon="1.22708">
        <ele>194.39999389648</ele>
        <time>2013-12-22T07:24:56.000Z</time>
      </trkpt>
      <trkpt lat="43.61678" lon="1.2269">
        <ele>195</ele>
        <time>2013-12-22T07:25:02.000Z</time>
      </trkpt>
      <trkpt lat="43.61686" lon="1.22677">
        <ele>195.19999694824</ele>
        <time>2013-12-22T07:25:07.000Z</time>
      </trkpt>
      <trkpt lat="43.61696" lon="1.22662">
        <ele>195.39999389648</ele>
        <time>2013-12-22T07:25:13.000Z</time>
      </trkpt>
      <trkpt lat="43.61707" lon="1.22654">
        <ele>195.19999694824</ele>
        <time>2013-12-22T07:25:19.000Z</time>
      </trkpt>
      <trkpt lat="43.6171" lon="1.22655">
        <ele>195</ele>
        <time>2013-12-22T07:25:20.000Z</time>
      </trkpt>
      <trkpt lat="43.61727" lon="1.22653">
        <ele>194.80000305176</ele>
        <time>2013-12-22T07:25:26.000Z</time>
      </trkpt>
      <trkpt lat="43.61745" lon="1.22651">
        <ele>194.39999389648</ele>
        <time>2013-12-22T07:25:33.000Z</time>
      </trkpt>
      <trkpt lat="43.61757" lon="1.2265">
        <ele>194</ele>
        <time>2013-12-22T07:25:38.000Z</time>
      </trkpt>
      <trkpt lat="43.61771" lon="1.22649">
        <ele>194</ele>
        <time>2013-12-22T07:25:44.000Z</time>
      </trkpt>
      <trkpt lat="43.61781" lon="1.22649">
        <ele>193.80000305176</ele>
        <time>2013-12-22T07:25:47.000Z</time>
      </trkpt>
      <trkpt lat="43.61796" lon="1.22648">
        <ele>193.60000610352</ele>
        <time>2013-12-22T07:25:54.000Z</time>
      </trkpt>
      <trkpt lat="43.61809" lon="1.22647">
        <ele>193.39999389648</ele>
        <time>2013-12-22T07:25:59.000Z</time>
      </trkpt>
      <trkpt lat="43.61822" lon="1.22646">
        <ele>193.19999694824</ele>
        <time>2013-12-22T07:26:03.000Z</time>
      </trkpt>
      <trkpt lat="43.61841" lon="1.22644">
        <ele>193</ele>
        <time>2013-12-22T07:26:11.000Z</time>
      </trkpt>
      <trkpt lat="43.61857" lon="1.22644">
        <ele>193.19999694824</ele>
        <time>2013-12-22T07:26:17.000Z</time>
      </trkpt>
      <trkpt lat="43.61873" lon="1.22643">
        <ele>193.39999389648</ele>
        <time>2013-12-22T07:26:22.000Z</time>
      </trkpt>
      <trkpt lat="43.61885" lon="1.22643">
        <ele>193.39999389648</ele>
        <time>2013-12-22T07:26:27.000Z</time>
      </trkpt>
      <trkpt lat="43.61894" lon="1.22634">
        <ele>193.39999389648</ele>
        <time>2013-12-22T07:26:31.000Z</time>
      </trkpt>
      <trkpt lat="43.61905" lon="1.22612">
        <ele>193.19999694824</ele>
        <time>2013-12-22T07:26:39.000Z</time>
      </trkpt>
      <trkpt lat="43.61912" lon="1.22597">
        <ele>193.19999694824</ele>
        <time>2013-12-22T07:26:44.000Z</time>
      </trkpt>
      <trkpt lat="43.6192" lon="1.2258">
        <ele>193</ele>
        <time>2013-12-22T07:26:50.000Z</time>
      </trkpt>
      <trkpt lat="43.61928" lon="1.22558">
        <ele>193.19999694824</ele>
        <time>2013-12-22T07:26:57.000Z</time>
      </trkpt>
      <trkpt lat="43.61936" lon="1.22535">
        <ele>193.39999389648</ele>
        <time>2013-12-22T07:27:04.000Z</time>
      </trkpt>
      <trkpt lat="43.61945" lon="1.22516">
        <ele>193.80000305176</ele>
        <time>2013-12-22T07:27:10.000Z</time>
      </trkpt>
      <trkpt lat="43.61952" lon="1.22497">
        <ele>194</ele>
        <time>2013-12-22T07:27:16.000Z</time>
      </trkpt>
      <trkpt lat="43.6196" lon="1.2248">
        <ele>194.19999694824</ele>
        <time>2013-12-22T07:27:22.000Z</time>
      </trkpt>
      <trkpt lat="43.61968" lon="1.22456">
        <ele>194.39999389648</ele>
        <time>2013-12-22T07:27:29.000Z</time>
      </trkpt>
      <trkpt lat="43.61975" lon="1.22437">
        <ele>194.39999389648</ele>
        <time>2013-12-22T07:27:35.000Z</time>
      </trkpt>
      <trkpt lat="43.61982" lon="1.22418">
        <ele>194.39999389648</ele>
        <time>2013-12-22T07:27:41.000Z</time>
      </trkpt>
      <trkpt lat="43.6199" lon="1.22399">
        <ele>194.19999694824</ele>
        <time>2013-12-22T07:27:47.000Z</time>
      </trkpt>
      <trkpt lat="43.61999" lon="1.22377">
        <ele>194</ele>
        <time>2013-12-22T07:27:54.000Z</time>
      </trkpt>
      <trkpt lat="43.62007" lon="1.22358">
        <ele>194</ele>
        <time>2013-12-22T07:28:00.000Z</time>
      </trkpt>
      <trkpt lat="43.62015" lon="1.22335">
        <ele>194.19999694824</ele>
        <time>2013-12-22T07:28:07.000Z</time>
      </trkpt>
      <trkpt lat="43.62023" lon="1.22317">
        <ele>194.19999694824</ele>
        <time>2013-12-22T07:28:13.000Z</time>
      </trkpt>
      <trkpt lat="43.62032" lon="1.22296">
        <ele>194.39999389648</ele>
        <time>2013-12-22T07:28:20.000Z</time>
      </trkpt>
      <trkpt lat="43.62039" lon="1.22277">
        <ele>194.39999389648</ele>
        <time>2013-12-22T07:28:26.000Z</time>
      </trkpt>
      <trkpt lat="43.62049" lon="1.22255">
        <ele>194.60000610352</ele>
        <time>2013-12-22T07:28:33.000Z</time>
      </trkpt>
      <trkpt lat="43.62056" lon="1.22236">
        <ele>194.80000305176</ele>
        <time>2013-12-22T07:28:39.000Z</time>
      </trkpt>
      <trkpt lat="43.62063" lon="1.22216">
        <ele>195.39999389648</ele>
        <time>2013-12-22T07:28:45.000Z</time>
      </trkpt>
      <trkpt lat="43.62071" lon="1.22195">
        <ele>196</ele>
        <time>2013-12-22T07:28:52.000Z</time>
      </trkpt>
      <trkpt lat="43.62078" lon="1.22174">
        <ele>196.60000610352</ele>
        <time>2013-12-22T07:28:59.000Z</time>
      </trkpt>
      <trkpt lat="43.62088" lon="1.22153">
        <ele>197.19999694824</ele>
        <time>2013-12-22T07:29:06.000Z</time>
      </trkpt>
      <trkpt lat="43.62092" lon="1.22144">
        <ele>197.19999694824</ele>
        <time>2013-12-22T07:29:09.000Z</time>
      </trkpt>
      <trkpt lat="43.62099" lon="1.22129">
        <ele>197.60000610352</ele>
        <time>2013-12-22T07:29:14.000Z</time>
      </trkpt>
      <trkpt lat="43.621" lon="1.22125">
        <ele>197.60000610352</ele>
        <time>2013-12-22T07:29:15.000Z</time>
      </trkpt>
      <trkpt lat="43.62101" lon="1.22122">
        <ele>197.60000610352</ele>
        <time>2013-12-22T07:29:16.000Z</time>
      </trkpt>
      <trkpt lat="43.6211" lon="1.22099">
        <ele>198</ele>
        <time>2013-12-22T07:29:23.000Z</time>
      </trkpt>
      <trkpt lat="43.62112" lon="1.22095">
        <ele>198.19999694824</ele>
        <time>2013-12-22T07:29:25.000Z</time>
      </trkpt>
      <trkpt lat="43.6212" lon="1.22075">
        <ele>198.60000610352</ele>
        <time>2013-12-22T07:29:31.000Z</time>
      </trkpt>
      <trkpt lat="43.62125" lon="1.22063">
        <ele>199</ele>
        <time>2013-12-22T07:29:35.000Z</time>
      </trkpt>
      <trkpt lat="43.62134" lon="1.22047">
        <ele>199.60000610352</ele>
        <time>2013-12-22T07:29:41.000Z</time>
      </trkpt>
      <trkpt lat="43.62143" lon="1.22032">
        <ele>200.60000610352</ele>
        <time>2013-12-22T07:29:47.000Z</time>
      </trkpt>
      <trkpt lat="43.62145" lon="1.22029">
        <ele>200.60000610352</ele>
        <time>2013-12-22T07:29:48.000Z</time>
      </trkpt>
      <trkpt lat="43.62155" lon="1.22015">
        <ele>201.80000305176</ele>
        <time>2013-12-22T07:29:54.000Z</time>
      </trkpt>
      <trkpt lat="43.62161" lon="1.22003">
        <ele>202.60000610352</ele>
        <time>2013-12-22T07:29:58.000Z</time>
      </trkpt>
      <trkpt lat="43.62164" lon="1.2199">
        <ele>203.19999694824</ele>
        <time>2013-12-22T07:30:02.000Z</time>
      </trkpt>
      <trkpt lat="43.62174" lon="1.21973">
        <ele>204.39999389648</ele>
        <time>2013-12-22T07:30:08.000Z</time>
      </trkpt>
      <trkpt lat="43.62181" lon="1.21965">
        <ele>205</ele>
        <time>2013-12-22T07:30:12.000Z</time>
      </trkpt>
      <trkpt lat="43.62186" lon="1.21947">
        <ele>206</ele>
        <time>2013-12-22T07:30:18.000Z</time>
      </trkpt>
      <trkpt lat="43.62188" lon="1.21944">
        <ele>206.19999694824</ele>
        <time>2013-12-22T07:30:19.000Z</time>
      </trkpt>
      <trkpt lat="43.62195" lon="1.2193">
        <ele>207.19999694824</ele>
        <time>2013-12-22T07:30:24.000Z</time>
      </trkpt>
      <trkpt lat="43.62199" lon="1.21917">
        <ele>208</ele>
        <time>2013-12-22T07:30:28.000Z</time>
      </trkpt>
      <trkpt lat="43.62213" lon="1.21903">
        <ele>209.19999694824</ele>
        <time>2013-12-22T07:30:35.000Z</time>
      </trkpt>
      <trkpt lat="43.62222" lon="1.21896">
        <ele>210</ele>
        <time>2013-12-22T07:30:40.000Z</time>
      </trkpt>
      <trkpt lat="43.62227" lon="1.21888">
        <ele>210.60000610352</ele>
        <time>2013-12-22T07:30:43.000Z</time>
      </trkpt>
      <trkpt lat="43.6223" lon="1.21873">
        <ele>211</ele>
        <time>2013-12-22T07:30:48.000Z</time>
      </trkpt>
      <trkpt lat="43.62234" lon="1.21859">
        <ele>211.80000305176</ele>
        <time>2013-12-22T07:30:53.000Z</time>
      </trkpt>
      <trkpt lat="43.62239" lon="1.21841">
        <ele>212.39999389648</ele>
        <time>2013-12-22T07:30:59.000Z</time>
      </trkpt>
      <trkpt lat="43.62244" lon="1.21825">
        <ele>213</ele>
        <time>2013-12-22T07:31:04.000Z</time>
      </trkpt>
      <trkpt lat="43.62249" lon="1.21807">
        <ele>213.80000305176</ele>
        <time>2013-12-22T07:31:10.000Z</time>
      </trkpt>
      <trkpt lat="43.62255" lon="1.21788">
        <ele>214.80000305176</ele>
        <time>2013-12-22T07:31:16.000Z</time>
      </trkpt>
      <trkpt lat="43.6226" lon="1.21771">
        <ele>215.39999389648</ele>
        <time>2013-12-22T07:31:21.000Z</time>
      </trkpt>
      <trkpt lat="43.62261" lon="1.21768">
        <ele>215.60000610352</ele>
        <time>2013-12-22T07:31:22.000Z</time>
      </trkpt>
      <trkpt lat="43.62268" lon="1.21748">
        <ele>216.39999389648</ele>
        <time>2013-12-22T07:31:28.000Z</time>
      </trkpt>
      <trkpt lat="43.62274" lon="1.21734">
        <ele>217</ele>
        <time>2013-12-22T07:31:33.000Z</time>
      </trkpt>
      <trkpt lat="43.62281" lon="1.21719">
        <ele>217.80000305176</ele>
        <time>2013-12-22T07:31:38.000Z</time>
      </trkpt>
      <trkpt lat="43.62282" lon="1.21715">
        <ele>217.80000305176</ele>
        <time>2013-12-22T07:31:40.000Z</time>
      </trkpt>
      <trkpt lat="43.62287" lon="1.21699">
        <ele>218.39999389648</ele>
        <time>2013-12-22T07:31:44.000Z</time>
      </trkpt>
      <trkpt lat="43.62289" lon="1.21682">
        <ele>219</ele>
        <time>2013-12-22T07:31:50.000Z</time>
      </trkpt>
      <trkpt lat="43.62294" lon="1.21668">
        <ele>219.39999389648</ele>
        <time>2013-12-22T07:31:55.000Z</time>
      </trkpt>
      <trkpt lat="43.62301" lon="1.21655">
        <ele>220</ele>
        <time>2013-12-22T07:32:00.000Z</time>
      </trkpt>
      <trkpt lat="43.62309" lon="1.21657">
        <ele>220</ele>
        <time>2013-12-22T07:32:04.000Z</time>
      </trkpt>
      <trkpt lat="43.6232" lon="1.21666">
        <ele>219.80000305176</ele>
        <time>2013-12-22T07:32:10.000Z</time>
      </trkpt>
      <trkpt lat="43.62332" lon="1.21673">
        <ele>219.80000305176</ele>
        <time>2013-12-22T07:32:14.000Z</time>
      </trkpt>
      <trkpt lat="43.62342" lon="1.21682">
        <ele>219.80000305176</ele>
        <time>2013-12-22T07:32:20.000Z</time>
      </trkpt>
      <trkpt lat="43.62356" lon="1.21691">
        <ele>219.60000610352</ele>
        <time>2013-12-22T07:32:26.000Z</time>
      </trkpt>
      <trkpt lat="43.62365" lon="1.2169">
        <ele>219.80000305176</ele>
        <time>2013-12-22T07:32:30.000Z</time>
      </trkpt>
      <trkpt lat="43.62379" lon="1.21673">
        <ele>220.39999389648</ele>
        <time>2013-12-22T07:32:37.000Z</time>
      </trkpt>
      <trkpt lat="43.62387" lon="1.2166">
        <ele>221</ele>
        <time>2013-12-22T07:32:42.000Z</time>
      </trkpt>
      <trkpt lat="43.62392" lon="1.21647">
        <ele>221.60000610352</ele>
        <time>2013-12-22T07:32:46.000Z</time>
      </trkpt>
      <trkpt lat="43.62401" lon="1.21629">
        <ele>222.60000610352</ele>
        <time>2013-12-22T07:32:52.000Z</time>
      </trkpt>
      <trkpt lat="43.62407" lon="1.21615">
        <ele>223.19999694824</ele>
        <time>2013-12-22T07:32:56.000Z</time>
      </trkpt>
      <trkpt lat="43.62415" lon="1.21599">
        <ele>224.19999694824</ele>
        <time>2013-12-22T07:33:02.000Z</time>
      </trkpt>
      <trkpt lat="43.62421" lon="1.21585">
        <ele>225.19999694824</ele>
        <time>2013-12-22T07:33:07.000Z</time>
      </trkpt>
      <trkpt lat="43.62429" lon="1.2157">
        <ele>226.19999694824</ele>
        <time>2013-12-22T07:33:14.000Z</time>
      </trkpt>
      <trkpt lat="43.62434" lon="1.21557">
        <ele>227.19999694824</ele>
        <time>2013-12-22T07:33:19.000Z</time>
      </trkpt>
      <trkpt lat="43.62439" lon="1.21546">
        <ele>227.80000305176</ele>
        <time>2013-12-22T07:33:22.000Z</time>
      </trkpt>
      <trkpt lat="43.62445" lon="1.21528">
        <ele>229</ele>
        <time>2013-12-22T07:33:29.000Z</time>
      </trkpt>
      <trkpt lat="43.62451" lon="1.21516">
        <ele>229.80000305176</ele>
        <time>2013-12-22T07:33:35.000Z</time>
      </trkpt>
      <trkpt lat="43.62458" lon="1.21503">
        <ele>230.80000305176</ele>
        <time>2013-12-22T07:33:41.000Z</time>
      </trkpt>
      <trkpt lat="43.6246" lon="1.21498">
        <ele>231.19999694824</ele>
        <time>2013-12-22T07:33:42.000Z</time>
      </trkpt>
      <trkpt lat="43.62463" lon="1.21487">
        <ele>232</ele>
        <time>2013-12-22T07:33:47.000Z</time>
      </trkpt>
      <trkpt lat="43.62467" lon="1.21479">
        <ele>232.80000305176</ele>
        <time>2013-12-22T07:33:52.000Z</time>
      </trkpt>
      <trkpt lat="43.62471" lon="1.21471">
        <ele>233.39999389648</ele>
        <time>2013-12-22T07:33:55.000Z</time>
      </trkpt>
      <trkpt lat="43.62477" lon="1.21458">
        <ele>234.60000610352</ele>
        <time>2013-12-22T07:34:00.000Z</time>
      </trkpt>
      <trkpt lat="43.62484" lon="1.21452">
        <ele>235.39999389648</ele>
        <time>2013-12-22T07:34:05.000Z</time>
      </trkpt>
      <trkpt lat="43.62493" lon="1.21457">
        <ele>235.60000610352</ele>
        <time>2013-12-22T07:34:10.000Z</time>
      </trkpt>
      <trkpt lat="43.62495" lon="1.21458">
        <ele>235.80000305176</ele>
        <time>2013-12-22T07:34:11.000Z</time>
      </trkpt>
      <trkpt lat="43.62513" lon="1.21471">
        <ele>235.39999389648</ele>
        <time>2013-12-22T07:34:19.000Z</time>
      </trkpt>
      <trkpt lat="43.62526" lon="1.21478">
        <ele>235.19999694824</ele>
        <time>2013-12-22T07:34:24.000Z</time>
      </trkpt>
      <trkpt lat="43.62534" lon="1.21486">
        <ele>234.80000305176</ele>
        <time>2013-12-22T07:34:29.000Z</time>
      </trkpt>
      <trkpt lat="43.62547" lon="1.21496">
        <ele>234.39999389648</ele>
        <time>2013-12-22T07:34:36.000Z</time>
      </trkpt>
      <trkpt lat="43.62559" lon="1.21506">
        <ele>234.19999694824</ele>
        <time>2013-12-22T07:34:42.000Z</time>
      </trkpt>
      <trkpt lat="43.6257" lon="1.21515">
        <ele>234.19999694824</ele>
        <time>2013-12-22T07:34:47.000Z</time>
      </trkpt>
      <trkpt lat="43.62574" lon="1.21519">
        <ele>234.19999694824</ele>
        <time>2013-12-22T07:34:49.000Z</time>
      </trkpt>
      <trkpt lat="43.62583" lon="1.21526">
        <ele>234.39999389648</ele>
        <time>2013-12-22T07:34:52.000Z</time>
      </trkpt>
      <trkpt lat="43.62596" lon="1.21537">
        <ele>234.60000610352</ele>
        <time>2013-12-22T07:35:00.000Z</time>
      </trkpt>
      <trkpt lat="43.62609" lon="1.21547">
        <ele>234.80000305176</ele>
        <time>2013-12-22T07:35:06.000Z</time>
      </trkpt>
      <trkpt lat="43.6262" lon="1.21555">
        <ele>234.80000305176</ele>
        <time>2013-12-22T07:35:11.000Z</time>
      </trkpt>
      <trkpt lat="43.62633" lon="1.21563">
        <ele>235</ele>
        <time>2013-12-22T07:35:16.000Z</time>
      </trkpt>
      <trkpt lat="43.62642" lon="1.2157">
        <ele>235</ele>
        <time>2013-12-22T07:35:20.000Z</time>
      </trkpt>
      <trkpt lat="43.62652" lon="1.21578">
        <ele>234.80000305176</ele>
        <time>2013-12-22T07:35:24.000Z</time>
      </trkpt>
      <trkpt lat="43.62663" lon="1.21587">
        <ele>234.80000305176</ele>
        <time>2013-12-22T07:35:30.000Z</time>
      </trkpt>
      <trkpt lat="43.62672" lon="1.21595">
        <ele>235</ele>
        <time>2013-12-22T07:35:34.000Z</time>
      </trkpt>
      <trkpt lat="43.62679" lon="1.216">
        <ele>235.19999694824</ele>
        <time>2013-12-22T07:35:37.000Z</time>
      </trkpt>
      <trkpt lat="43.62692" lon="1.21611">
        <ele>235.39999389648</ele>
        <time>2013-12-22T07:35:44.000Z</time>
      </trkpt>
      <trkpt lat="43.62703" lon="1.2162">
        <ele>235.60000610352</ele>
        <time>2013-12-22T07:35:49.000Z</time>
      </trkpt>
      <trkpt lat="43.62716" lon="1.2163">
        <ele>235.80000305176</ele>
        <time>2013-12-22T07:35:55.000Z</time>
      </trkpt>
      <trkpt lat="43.62727" lon="1.21638">
        <ele>236</ele>
        <time>2013-12-22T07:36:00.000Z</time>
      </trkpt>
      <trkpt lat="43.62735" lon="1.21645">
        <ele>236.19999694824</ele>
        <time>2013-12-22T07:36:04.000Z</time>
      </trkpt>
      <trkpt lat="43.62747" lon="1.21655">
        <ele>236.19999694824</ele>
        <time>2013-12-22T07:36:08.000Z</time>
      </trkpt>
      <trkpt lat="43.62757" lon="1.21665">
        <ele>236.19999694824</ele>
        <time>2013-12-22T07:36:12.000Z</time>
      </trkpt>
      <trkpt lat="43.62769" lon="1.21673">
        <ele>235.80000305176</ele>
        <time>2013-12-22T07:36:17.000Z</time>
      </trkpt>
      <trkpt lat="43.62781" lon="1.21685">
        <ele>235.39999389648</ele>
        <time>2013-12-22T07:36:24.000Z</time>
      </trkpt>
      <trkpt lat="43.62808" lon="1.21705">
        <ele>234.19999694824</ele>
        <time>2013-12-22T07:36:36.000Z</time>
      </trkpt>
      <trkpt lat="43.6282" lon="1.21715">
        <ele>233.60000610352</ele>
        <time>2013-12-22T07:36:40.000Z</time>
      </trkpt>
      <trkpt lat="43.62823" lon="1.21717">
        <ele>233.39999389648</ele>
        <time>2013-12-22T07:36:41.000Z</time>
      </trkpt>
      <trkpt lat="43.62823" lon="1.2173">
        <ele>232.39999389648</ele>
        <time>2013-12-22T07:36:46.000Z</time>
      </trkpt>
      <trkpt lat="43.62818" lon="1.21746">
        <ele>231.39999389648</ele>
        <time>2013-12-22T07:36:50.000Z</time>
      </trkpt>
      <trkpt lat="43.62811" lon="1.21766">
        <ele>230.80000305176</ele>
        <time>2013-12-22T07:36:56.000Z</time>
      </trkpt>
      <trkpt lat="43.62804" lon="1.21783">
        <ele>230.19999694824</ele>
        <time>2013-12-22T07:37:02.000Z</time>
      </trkpt>
      <trkpt lat="43.62797" lon="1.21806">
        <ele>229.19999694824</ele>
        <time>2013-12-22T07:37:08.000Z</time>
      </trkpt>
      <trkpt lat="43.62791" lon="1.2182">
        <ele>228.60000610352</ele>
        <time>2013-12-22T07:37:12.000Z</time>
      </trkpt>
      <trkpt lat="43.62784" lon="1.21836">
        <ele>227.80000305176</ele>
        <time>2013-12-22T07:37:17.000Z</time>
      </trkpt>
      <trkpt lat="43.62778" lon="1.21851">
        <ele>226.80000305176</ele>
        <time>2013-12-22T07:37:22.000Z</time>
      </trkpt>
      <trkpt lat="43.62776" lon="1.21858">
        <ele>226.39999389648</ele>
        <time>2013-12-22T07:37:24.000Z</time>
      </trkpt>
      <trkpt lat="43.6277" lon="1.21874">
        <ele>225.60000610352</ele>
        <time>2013-12-22T07:37:29.000Z</time>
      </trkpt>
      <trkpt lat="43.6277" lon="1.21878">
        <ele>225.39999389648</ele>
        <time>2013-12-22T07:37:31.000Z</time>
      </trkpt>
      <trkpt lat="43.62779" lon="1.21881">
        <ele>225.39999389648</ele>
        <time>2013-12-22T07:37:36.000Z</time>
      </trkpt>
      <trkpt lat="43.6279" lon="1.21874">
        <ele>226</ele>
        <time>2013-12-22T07:37:42.000Z</time>
      </trkpt>
      <trkpt lat="43.62801" lon="1.2187">
        <ele>226.39999389648</ele>
        <time>2013-12-22T07:37:47.000Z</time>
      </trkpt>
      <trkpt lat="43.62809" lon="1.2187">
        <ele>226.60000610352</ele>
        <time>2013-12-22T07:37:50.000Z</time>
      </trkpt>
      <trkpt lat="43.62817" lon="1.21872">
        <ele>226.80000305176</ele>
        <time>2013-12-22T07:37:54.000Z</time>
      </trkpt>
      <trkpt lat="43.62832" lon="1.21885">
        <ele>226.39999389648</ele>
        <time>2013-12-22T07:38:01.000Z</time>
      </trkpt>
      <trkpt lat="43.62838" lon="1.21892">
        <ele>226.39999389648</ele>
        <time>2013-12-22T07:38:04.000Z</time>
      </trkpt>
      <trkpt lat="43.62849" lon="1.21903">
        <ele>226.60000610352</ele>
        <time>2013-12-22T07:38:08.000Z</time>
      </trkpt>
      <trkpt lat="43.62851" lon="1.21905">
        <ele>226.80000305176</ele>
        <time>2013-12-22T07:38:10.000Z</time>
      </trkpt>
      <trkpt lat="43.62861" lon="1.21918">
        <ele>227</ele>
        <time>2013-12-22T07:38:14.000Z</time>
      </trkpt>
      <trkpt lat="43.62864" lon="1.21921">
        <ele>227</ele>
        <time>2013-12-22T07:38:16.000Z</time>
      </trkpt>
      <trkpt lat="43.62872" lon="1.21931">
        <ele>227.19999694824</ele>
        <time>2013-12-22T07:38:20.000Z</time>
      </trkpt>
      <trkpt lat="43.62876" lon="1.21935">
        <ele>227.39999389648</ele>
        <time>2013-12-22T07:38:21.000Z</time>
      </trkpt>
      <trkpt lat="43.62881" lon="1.21942">
        <ele>227.60000610352</ele>
        <time>2013-12-22T07:38:25.000Z</time>
      </trkpt>
      <trkpt lat="43.62892" lon="1.21953">
        <ele>228</ele>
        <time>2013-12-22T07:38:30.000Z</time>
      </trkpt>
      <trkpt lat="43.62909" lon="1.21963">
        <ele>228.80000305176</ele>
        <time>2013-12-22T07:38:37.000Z</time>
      </trkpt>
      <trkpt lat="43.62917" lon="1.21969">
        <ele>229.19999694824</ele>
        <time>2013-12-22T07:38:42.000Z</time>
      </trkpt>
      <trkpt lat="43.62928" lon="1.21975">
        <ele>229.39999389648</ele>
        <time>2013-12-22T07:38:47.000Z</time>
      </trkpt>
      <trkpt lat="43.62941" lon="1.21981">
        <ele>229.60000610352</ele>
        <time>2013-12-22T07:38:54.000Z</time>
      </trkpt>
      <trkpt lat="43.62957" lon="1.21983">
        <ele>230</ele>
        <time>2013-12-22T07:39:01.000Z</time>
      </trkpt>
      <trkpt lat="43.6297" lon="1.21983">
        <ele>230.60000610352</ele>
        <time>2013-12-22T07:39:07.000Z</time>
      </trkpt>
      <trkpt lat="43.62982" lon="1.21983">
        <ele>231</ele>
        <time>2013-12-22T07:39:12.000Z</time>
      </trkpt>
      <trkpt lat="43.6299" lon="1.21981">
        <ele>231.39999389648</ele>
        <time>2013-12-22T07:39:16.000Z</time>
      </trkpt>
      <trkpt lat="43.63002" lon="1.21976">
        <ele>232</ele>
        <time>2013-12-22T07:39:20.000Z</time>
      </trkpt>
      <trkpt lat="43.63014" lon="1.21972">
        <ele>232.39999389648</ele>
        <time>2013-12-22T07:39:26.000Z</time>
      </trkpt>
      <trkpt lat="43.63029" lon="1.21968">
        <ele>232.80000305176</ele>
        <time>2013-12-22T07:39:32.000Z</time>
      </trkpt>
      <trkpt lat="43.63041" lon="1.21962">
        <ele>233.19999694824</ele>
        <time>2013-12-22T07:39:37.000Z</time>
      </trkpt>
      <trkpt lat="43.63053" lon="1.21958">
        <ele>233.39999389648</ele>
        <time>2013-12-22T07:39:42.000Z</time>
      </trkpt>
      <trkpt lat="43.63068" lon="1.21956">
        <ele>233.80000305176</ele>
        <time>2013-12-22T07:39:47.000Z</time>
      </trkpt>
      <trkpt lat="43.63078" lon="1.21957">
        <ele>233.80000305176</ele>
        <time>2013-12-22T07:39:52.000Z</time>
      </trkpt>
      <trkpt lat="43.63091" lon="1.21955">
        <ele>234</ele>
        <time>2013-12-22T07:39:57.000Z</time>
      </trkpt>
      <trkpt lat="43.63107" lon="1.21952">
        <ele>234.39999389648</ele>
        <time>2013-12-22T07:40:04.000Z</time>
      </trkpt>
      <trkpt lat="43.63121" lon="1.21949">
        <ele>234.60000610352</ele>
        <time>2013-12-22T07:40:08.000Z</time>
      </trkpt>
      <trkpt lat="43.63132" lon="1.21941">
        <ele>234.80000305176</ele>
        <time>2013-12-22T07:40:14.000Z</time>
      </trkpt>
      <trkpt lat="43.63146" lon="1.21926">
        <ele>235.39999389648</ele>
        <time>2013-12-22T07:40:20.000Z</time>
      </trkpt>
      <trkpt lat="43.63158" lon="1.21908">
        <ele>235.80000305176</ele>
        <time>2013-12-22T07:40:26.000Z</time>
      </trkpt>
      <trkpt lat="43.63168" lon="1.21889">
        <ele>236</ele>
        <time>2013-12-22T07:40:32.000Z</time>
      </trkpt>
      <trkpt lat="43.6319" lon="1.21856">
        <ele>235.39999389648</ele>
        <time>2013-12-22T07:40:44.000Z</time>
      </trkpt>
      <trkpt lat="43.63199" lon="1.21845">
        <ele>235.19999694824</ele>
        <time>2013-12-22T07:40:50.000Z</time>
      </trkpt>
      <trkpt lat="43.63212" lon="1.21831">
        <ele>235</ele>
        <time>2013-12-22T07:40:56.000Z</time>
      </trkpt>
      <trkpt lat="43.63224" lon="1.21815">
        <ele>234.60000610352</ele>
        <time>2013-12-22T07:41:02.000Z</time>
      </trkpt>
      <trkpt lat="43.63234" lon="1.21802">
        <ele>234.60000610352</ele>
        <time>2013-12-22T07:41:07.000Z</time>
      </trkpt>
      <trkpt lat="43.63245" lon="1.21789">
        <ele>234.60000610352</ele>
        <time>2013-12-22T07:41:12.000Z</time>
      </trkpt>
      <trkpt lat="43.63256" lon="1.21778">
        <ele>234.60000610352</ele>
        <time>2013-12-22T07:41:17.000Z</time>
      </trkpt>
      <trkpt lat="43.63265" lon="1.21762">
        <ele>234.60000610352</ele>
        <time>2013-12-22T07:41:22.000Z</time>
      </trkpt>
      <trkpt lat="43.63269" lon="1.21754">
        <ele>234.60000610352</ele>
        <time>2013-12-22T07:41:25.000Z</time>
      </trkpt>
      <trkpt lat="43.63276" lon="1.21741">
        <ele>234.39999389648</ele>
        <time>2013-12-22T07:41:29.000Z</time>
      </trkpt>
      <trkpt lat="43.63284" lon="1.21716">
        <ele>234.60000610352</ele>
        <time>2013-12-22T07:41:36.000Z</time>
      </trkpt>
      <trkpt lat="43.6329" lon="1.21695">
        <ele>234.60000610352</ele>
        <time>2013-12-22T07:41:42.000Z</time>
      </trkpt>
      <trkpt lat="43.63293" lon="1.21674">
        <ele>235</ele>
        <time>2013-12-22T07:41:47.000Z</time>
      </trkpt>
      <trkpt lat="43.63297" lon="1.2166">
        <ele>234.80000305176</ele>
        <time>2013-12-22T07:41:52.000Z</time>
      </trkpt>
      <trkpt lat="43.63301" lon="1.21641">
        <ele>234.60000610352</ele>
        <time>2013-12-22T07:41:56.000Z</time>
      </trkpt>
      <trkpt lat="43.63301" lon="1.21638">
        <ele>234.60000610352</ele>
        <time>2013-12-22T07:41:57.000Z</time>
      </trkpt>
      <trkpt lat="43.63312" lon="1.21608">
        <ele>234.19999694824</ele>
        <time>2013-12-22T07:42:06.000Z</time>
      </trkpt>
      <trkpt lat="43.63312" lon="1.21607">
        <ele>234.19999694824</ele>
        <time>2013-12-22T07:42:07.000Z</time>
      </trkpt>
      <trkpt lat="43.63314" lon="1.21601">
        <ele>234</ele>
        <time>2013-12-22T07:42:08.000Z</time>
      </trkpt>
      <trkpt lat="43.63317" lon="1.21575">
        <ele>233.60000610352</ele>
        <time>2013-12-22T07:42:16.000Z</time>
      </trkpt>
      <trkpt lat="43.6332" lon="1.21558">
        <ele>233.19999694824</ele>
        <time>2013-12-22T07:42:21.000Z</time>
      </trkpt>
      <trkpt lat="43.63325" lon="1.21534">
        <ele>232.80000305176</ele>
        <time>2013-12-22T07:42:27.000Z</time>
      </trkpt>
      <trkpt lat="43.63327" lon="1.21526">
        <ele>232.60000610352</ele>
        <time>2013-12-22T07:42:30.000Z</time>
      </trkpt>
      <trkpt lat="43.6334" lon="1.21515">
        <ele>232.60000610352</ele>
        <time>2013-12-22T07:42:36.000Z</time>
      </trkpt>
      <trkpt lat="43.63343" lon="1.21516">
        <ele>232.60000610352</ele>
        <time>2013-12-22T07:42:37.000Z</time>
      </trkpt>
      <trkpt lat="43.63371" lon="1.21534">
        <ele>233.60000610352</ele>
        <time>2013-12-22T07:42:49.000Z</time>
      </trkpt>
      <trkpt lat="43.63387" lon="1.21546">
        <ele>234</ele>
        <time>2013-12-22T07:42:56.000Z</time>
      </trkpt>
      <trkpt lat="43.63392" lon="1.21548">
        <ele>234.19999694824</ele>
        <time>2013-12-22T07:42:57.000Z</time>
      </trkpt>
      <trkpt lat="43.63401" lon="1.21538">
        <ele>234.19999694824</ele>
        <time>2013-12-22T07:43:02.000Z</time>
      </trkpt>
      <trkpt lat="43.63402" lon="1.21533">
        <ele>234.19999694824</ele>
        <time>2013-12-22T07:43:04.000Z</time>
      </trkpt>
      <trkpt lat="43.63405" lon="1.21513">
        <ele>233.80000305176</ele>
        <time>2013-12-22T07:43:10.000Z</time>
      </trkpt>
      <trkpt lat="43.63411" lon="1.215">
        <ele>233.80000305176</ele>
        <time>2013-12-22T07:43:14.000Z</time>
      </trkpt>
      <trkpt lat="43.63415" lon="1.21487">
        <ele>233.80000305176</ele>
        <time>2013-12-22T07:43:17.000Z</time>
      </trkpt>
      <trkpt lat="43.63422" lon="1.21472">
        <ele>233.80000305176</ele>
        <time>2013-12-22T07:43:22.000Z</time>
      </trkpt>
      <trkpt lat="43.63428" lon="1.21456">
        <ele>233.80000305176</ele>
        <time>2013-12-22T07:43:27.000Z</time>
      </trkpt>
      <trkpt lat="43.63433" lon="1.21438">
        <ele>233.60000610352</ele>
        <time>2013-12-22T07:43:32.000Z</time>
      </trkpt>
      <trkpt lat="43.63433" lon="1.21433">
        <ele>233.60000610352</ele>
        <time>2013-12-22T07:43:34.000Z</time>
      </trkpt>
      <trkpt lat="43.63438" lon="1.21422">
        <ele>233.60000610352</ele>
        <time>2013-12-22T07:43:37.000Z</time>
      </trkpt>
      <trkpt lat="43.63444" lon="1.21399">
        <ele>233.80000305176</ele>
        <time>2013-12-22T07:43:44.000Z</time>
      </trkpt>
      <trkpt lat="43.63446" lon="1.21378">
        <ele>234.19999694824</ele>
        <time>2013-12-22T07:43:50.000Z</time>
      </trkpt>
      <trkpt lat="43.63452" lon="1.21361">
        <ele>234.39999389648</ele>
        <time>2013-12-22T07:43:55.000Z</time>
      </trkpt>
      <trkpt lat="43.63459" lon="1.2134">
        <ele>234.39999389648</ele>
        <time>2013-12-22T07:44:01.000Z</time>
      </trkpt>
      <trkpt lat="43.63466" lon="1.21318">
        <ele>234</ele>
        <time>2013-12-22T07:44:07.000Z</time>
      </trkpt>
      <trkpt lat="43.63471" lon="1.21305">
        <ele>233.60000610352</ele>
        <time>2013-12-22T07:44:11.000Z</time>
      </trkpt>
      <trkpt lat="43.63478" lon="1.21281">
        <ele>233</ele>
        <time>2013-12-22T07:44:17.000Z</time>
      </trkpt>
      <trkpt lat="43.63481" lon="1.21279">
        <ele>233</ele>
        <time>2013-12-22T07:44:19.000Z</time>
      </trkpt>
      <trkpt lat="43.63493" lon="1.21271">
        <ele>232.60000610352</ele>
        <time>2013-12-22T07:44:25.000Z</time>
      </trkpt>
      <trkpt lat="43.63518" lon="1.21249">
        <ele>232.60000610352</ele>
        <time>2013-12-22T07:44:36.000Z</time>
      </trkpt>
      <trkpt lat="43.63534" lon="1.2124">
        <ele>233</ele>
        <time>2013-12-22T07:44:42.000Z</time>
      </trkpt>
      <trkpt lat="43.63546" lon="1.21235">
        <ele>233.19999694824</ele>
        <time>2013-12-22T07:44:47.000Z</time>
      </trkpt>
      <trkpt lat="43.63559" lon="1.21235">
        <ele>233.39999389648</ele>
        <time>2013-12-22T07:44:52.000Z</time>
      </trkpt>
      <trkpt lat="43.63572" lon="1.21234">
        <ele>233.80000305176</ele>
        <time>2013-12-22T07:44:56.000Z</time>
      </trkpt>
      <trkpt lat="43.63586" lon="1.21235">
        <ele>234</ele>
        <time>2013-12-22T07:45:02.000Z</time>
      </trkpt>
      <trkpt lat="43.63598" lon="1.21242">
        <ele>234</ele>
        <time>2013-12-22T07:45:07.000Z</time>
      </trkpt>
      <trkpt lat="43.6361" lon="1.2124">
        <ele>233.60000610352</ele>
        <time>2013-12-22T07:45:12.000Z</time>
      </trkpt>
      <trkpt lat="43.63624" lon="1.21242">
        <ele>233.19999694824</ele>
        <time>2013-12-22T07:45:17.000Z</time>
      </trkpt>
      <trkpt lat="43.63631" lon="1.21247">
        <ele>233.19999694824</ele>
        <time>2013-12-22T07:45:20.000Z</time>
      </trkpt>
      <trkpt lat="43.63657" lon="1.21299">
        <ele>233.39999389648</ele>
        <time>2013-12-22T07:45:38.000Z</time>
      </trkpt>
      <trkpt lat="43.6366" lon="1.21301">
        <ele>233.39999389648</ele>
        <time>2013-12-22T07:45:40.000Z</time>
      </trkpt>
      <trkpt lat="43.63672" lon="1.21309">
        <ele>233.19999694824</ele>
        <time>2013-12-22T07:45:44.000Z</time>
      </trkpt>
      <trkpt lat="43.63682" lon="1.21316">
        <ele>233</ele>
        <time>2013-12-22T07:45:49.000Z</time>
      </trkpt>
      <trkpt lat="43.63691" lon="1.21325">
        <ele>233</ele>
        <time>2013-12-22T07:45:52.000Z</time>
      </trkpt>
      <trkpt lat="43.63705" lon="1.21339">
        <ele>232.80000305176</ele>
        <time>2013-12-22T07:45:59.000Z</time>
      </trkpt>
      <trkpt lat="43.63711" lon="1.21352">
        <ele>232.80000305176</ele>
        <time>2013-12-22T07:46:02.000Z</time>
      </trkpt>
      <trkpt lat="43.63714" lon="1.21366">
        <ele>233.19999694824</ele>
        <time>2013-12-22T07:46:07.000Z</time>
      </trkpt>
      <trkpt lat="43.63721" lon="1.21386">
        <ele>233.39999389648</ele>
        <time>2013-12-22T07:46:12.000Z</time>
      </trkpt>
      <trkpt lat="43.63725" lon="1.21409">
        <ele>234</ele>
        <time>2013-12-22T07:46:20.000Z</time>
      </trkpt>
      <trkpt lat="43.6373" lon="1.21431">
        <ele>234.19999694824</ele>
        <time>2013-12-22T07:46:26.000Z</time>
      </trkpt>
      <trkpt lat="43.63733" lon="1.21437">
        <ele>234</ele>
        <time>2013-12-22T07:46:27.000Z</time>
      </trkpt>
      <trkpt lat="43.63741" lon="1.21447">
        <ele>233.80000305176</ele>
        <time>2013-12-22T07:46:32.000Z</time>
      </trkpt>
      <trkpt lat="43.63755" lon="1.21459">
        <ele>233.19999694824</ele>
        <time>2013-12-22T07:46:37.000Z</time>
      </trkpt>
      <trkpt lat="43.63768" lon="1.21469">
        <ele>232.60000610352</ele>
        <time>2013-12-22T07:46:42.000Z</time>
      </trkpt>
      <trkpt lat="43.63781" lon="1.21476">
        <ele>232</ele>
        <time>2013-12-22T07:46:47.000Z</time>
      </trkpt>
      <trkpt lat="43.63794" lon="1.21485">
        <ele>231.39999389648</ele>
        <time>2013-12-22T07:46:52.000Z</time>
      </trkpt>
      <trkpt lat="43.63803" lon="1.215">
        <ele>231.19999694824</ele>
        <time>2013-12-22T07:46:57.000Z</time>
      </trkpt>
      <trkpt lat="43.63807" lon="1.21513">
        <ele>230.80000305176</ele>
        <time>2013-12-22T07:47:02.000Z</time>
      </trkpt>
      <trkpt lat="43.63821" lon="1.21524">
        <ele>230.19999694824</ele>
        <time>2013-12-22T07:47:07.000Z</time>
      </trkpt>
      <trkpt lat="43.63834" lon="1.21539">
        <ele>229.60000610352</ele>
        <time>2013-12-22T07:47:14.000Z</time>
      </trkpt>
      <trkpt lat="43.63844" lon="1.21548">
        <ele>229.39999389648</ele>
        <time>2013-12-22T07:47:19.000Z</time>
      </trkpt>
      <trkpt lat="43.63857" lon="1.21559">
        <ele>229.19999694824</ele>
        <time>2013-12-22T07:47:25.000Z</time>
      </trkpt>
      <trkpt lat="43.63867" lon="1.21573">
        <ele>229.19999694824</ele>
        <time>2013-12-22T07:47:30.000Z</time>
      </trkpt>
      <trkpt lat="43.63903" lon="1.21608">
        <ele>228.80000305176</ele>
        <time>2013-12-22T07:47:46.000Z</time>
      </trkpt>
      <trkpt lat="43.63913" lon="1.21616">
        <ele>228.60000610352</ele>
        <time>2013-12-22T07:47:50.000Z</time>
      </trkpt>
      <trkpt lat="43.63921" lon="1.21624">
        <ele>228.60000610352</ele>
        <time>2013-12-22T07:47:54.000Z</time>
      </trkpt>
      <trkpt lat="43.63929" lon="1.2163">
        <ele>229</ele>
        <time>2013-12-22T07:47:57.000Z</time>
      </trkpt>
      <trkpt lat="43.63939" lon="1.21639">
        <ele>229.19999694824</ele>
        <time>2013-12-22T07:48:02.000Z</time>
      </trkpt>
      <trkpt lat="43.63948" lon="1.21646">
        <ele>229.19999694824</ele>
        <time>2013-12-22T07:48:07.000Z</time>
      </trkpt>
      <trkpt lat="43.63956" lon="1.21654">
        <ele>229.39999389648</ele>
        <time>2013-12-22T07:48:11.000Z</time>
      </trkpt>
      <trkpt lat="43.6397" lon="1.21666">
        <ele>229.19999694824</ele>
        <time>2013-12-22T07:48:17.000Z</time>
      </trkpt>
      <trkpt lat="43.63981" lon="1.21675">
        <ele>229.39999389648</ele>
        <time>2013-12-22T07:48:22.000Z</time>
      </trkpt>
      <trkpt lat="43.63991" lon="1.21684">
        <ele>229.39999389648</ele>
        <time>2013-12-22T07:48:27.000Z</time>
      </trkpt>
      <trkpt lat="43.64016" lon="1.21704">
        <ele>229.80000305176</ele>
        <time>2013-12-22T07:48:37.000Z</time>
      </trkpt>
      <trkpt lat="43.64027" lon="1.21714">
        <ele>230</ele>
        <time>2013-12-22T07:48:42.000Z</time>
      </trkpt>
      <trkpt lat="43.64036" lon="1.21722">
        <ele>230.19999694824</ele>
        <time>2013-12-22T07:48:47.000Z</time>
      </trkpt>
      <trkpt lat="43.64045" lon="1.21729">
        <ele>230.60000610352</ele>
        <time>2013-12-22T07:48:50.000Z</time>
      </trkpt>
      <trkpt lat="43.6405" lon="1.21734">
        <ele>230.60000610352</ele>
        <time>2013-12-22T07:48:54.000Z</time>
      </trkpt>
      <trkpt lat="43.64059" lon="1.21741">
        <ele>231</ele>
        <time>2013-12-22T07:48:57.000Z</time>
      </trkpt>
      <trkpt lat="43.64073" lon="1.21752">
        <ele>231.39999389648</ele>
        <time>2013-12-22T07:49:04.000Z</time>
      </trkpt>
      <trkpt lat="43.64086" lon="1.21762">
        <ele>231.80000305176</ele>
        <time>2013-12-22T07:49:08.000Z</time>
      </trkpt>
      <trkpt lat="43.64102" lon="1.21774">
        <ele>231.39999389648</ele>
        <time>2013-12-22T07:49:14.000Z</time>
      </trkpt>
      <trkpt lat="43.64114" lon="1.21784">
        <ele>231.19999694824</ele>
        <time>2013-12-22T07:49:20.000Z</time>
      </trkpt>
      <trkpt lat="43.64128" lon="1.21795">
        <ele>231</ele>
        <time>2013-12-22T07:49:26.000Z</time>
      </trkpt>
      <trkpt lat="43.64141" lon="1.21806">
        <ele>230.60000610352</ele>
        <time>2013-12-22T07:49:31.000Z</time>
      </trkpt>
      <trkpt lat="43.64151" lon="1.21815">
        <ele>230.39999389648</ele>
        <time>2013-12-22T07:49:36.000Z</time>
      </trkpt>
      <trkpt lat="43.64163" lon="1.21825">
        <ele>230.19999694824</ele>
        <time>2013-12-22T07:49:42.000Z</time>
      </trkpt>
      <trkpt lat="43.64167" lon="1.21829">
        <ele>230</ele>
        <time>2013-12-22T07:49:43.000Z</time>
      </trkpt>
      <trkpt lat="43.64177" lon="1.21839">
        <ele>229</ele>
        <time>2013-12-22T07:49:48.000Z</time>
      </trkpt>
      <trkpt lat="43.64189" lon="1.21851">
        <ele>227.80000305176</ele>
        <time>2013-12-22T07:49:53.000Z</time>
      </trkpt>
      <trkpt lat="43.64196" lon="1.21854">
        <ele>227.19999694824</ele>
        <time>2013-12-22T07:49:55.000Z</time>
      </trkpt>
      <trkpt lat="43.64207" lon="1.21848">
        <ele>226.60000610352</ele>
        <time>2013-12-22T07:50:00.000Z</time>
      </trkpt>
      <trkpt lat="43.64217" lon="1.21835">
        <ele>226.39999389648</ele>
        <time>2013-12-22T07:50:05.000Z</time>
      </trkpt>
      <trkpt lat="43.64221" lon="1.21831">
        <ele>226.19999694824</ele>
        <time>2013-12-22T07:50:07.000Z</time>
      </trkpt>
      <trkpt lat="43.64227" lon="1.2182">
        <ele>226.19999694824</ele>
        <time>2013-12-22T07:50:11.000Z</time>
      </trkpt>
      <trkpt lat="43.64233" lon="1.21804">
        <ele>226.19999694824</ele>
        <time>2013-12-22T07:50:16.000Z</time>
      </trkpt>
      <trkpt lat="43.64241" lon="1.21789">
        <ele>226.19999694824</ele>
        <time>2013-12-22T07:50:21.000Z</time>
      </trkpt>
      <trkpt lat="43.6426" lon="1.21747">
        <ele>226.39999389648</ele>
        <time>2013-12-22T07:50:35.000Z</time>
      </trkpt>
      <trkpt lat="43.64263" lon="1.21738">
        <ele>226.60000610352</ele>
        <time>2013-12-22T07:50:38.000Z</time>
      </trkpt>
      <trkpt lat="43.64271" lon="1.21718">
        <ele>226.60000610352</ele>
        <time>2013-12-22T07:50:44.000Z</time>
      </trkpt>
      <trkpt lat="43.64272" lon="1.21716">
        <ele>226.60000610352</ele>
        <time>2013-12-22T07:50:45.000Z</time>
      </trkpt>
      <trkpt lat="43.64282" lon="1.21694">
        <ele>226.80000305176</ele>
        <time>2013-12-22T07:50:52.000Z</time>
      </trkpt>
      <trkpt lat="43.64288" lon="1.21677">
        <ele>226.80000305176</ele>
        <time>2013-12-22T07:50:57.000Z</time>
      </trkpt>
      <trkpt lat="43.64295" lon="1.21661">
        <ele>227</ele>
        <time>2013-12-22T07:51:02.000Z</time>
      </trkpt>
      <trkpt lat="43.64303" lon="1.21644">
        <ele>227.19999694824</ele>
        <time>2013-12-22T07:51:07.000Z</time>
      </trkpt>
      <trkpt lat="43.64311" lon="1.2162">
        <ele>227.80000305176</ele>
        <time>2013-12-22T07:51:14.000Z</time>
      </trkpt>
      <trkpt lat="43.64319" lon="1.21601">
        <ele>228</ele>
        <time>2013-12-22T07:51:20.000Z</time>
      </trkpt>
      <trkpt lat="43.64329" lon="1.21579">
        <ele>228.39999389648</ele>
        <time>2013-12-22T07:51:27.000Z</time>
      </trkpt>
      <trkpt lat="43.64334" lon="1.21569">
        <ele>228.39999389648</ele>
        <time>2013-12-22T07:51:31.000Z</time>
      </trkpt>
      <trkpt lat="43.64344" lon="1.21542">
        <ele>229</ele>
        <time>2013-12-22T07:51:38.000Z</time>
      </trkpt>
      <trkpt lat="43.64352" lon="1.21526">
        <ele>229.39999389648</ele>
        <time>2013-12-22T07:51:43.000Z</time>
      </trkpt>
      <trkpt lat="43.64361" lon="1.21507">
        <ele>230.19999694824</ele>
        <time>2013-12-22T07:51:49.000Z</time>
      </trkpt>
      <trkpt lat="43.64369" lon="1.21487">
        <ele>230.39999389648</ele>
        <time>2013-12-22T07:51:55.000Z</time>
      </trkpt>
      <trkpt lat="43.64376" lon="1.2147">
        <ele>230.60000610352</ele>
        <time>2013-12-22T07:52:00.000Z</time>
      </trkpt>
      <trkpt lat="43.64385" lon="1.2145">
        <ele>230.60000610352</ele>
        <time>2013-12-22T07:52:06.000Z</time>
      </trkpt>
      <trkpt lat="43.64391" lon="1.21433">
        <ele>230.60000610352</ele>
        <time>2013-12-22T07:52:11.000Z</time>
      </trkpt>
      <trkpt lat="43.64399" lon="1.21414">
        <ele>230.80000305176</ele>
        <time>2013-12-22T07:52:17.000Z</time>
      </trkpt>
      <trkpt lat="43.64411" lon="1.2139">
        <ele>230</ele>
        <time>2013-12-22T07:52:25.000Z</time>
      </trkpt>
      <trkpt lat="43.64418" lon="1.21371">
        <ele>229.19999694824</ele>
        <time>2013-12-22T07:52:30.000Z</time>
      </trkpt>
      <trkpt lat="43.6442" lon="1.21362">
        <ele>228.80000305176</ele>
        <time>2013-12-22T07:52:33.000Z</time>
      </trkpt>
      <trkpt lat="43.64424" lon="1.21351">
        <ele>228</ele>
        <time>2013-12-22T07:52:36.000Z</time>
      </trkpt>
      <trkpt lat="43.64427" lon="1.21345">
        <ele>227.39999389648</ele>
        <time>2013-12-22T07:52:38.000Z</time>
      </trkpt>
      <trkpt lat="43.64436" lon="1.21323">
        <ele>225.60000610352</ele>
        <time>2013-12-22T07:52:44.000Z</time>
      </trkpt>
      <trkpt lat="43.64444" lon="1.21302">
        <ele>223.39999389648</ele>
        <time>2013-12-22T07:52:50.000Z</time>
      </trkpt>
      <trkpt lat="43.64451" lon="1.21287">
        <ele>221.60000610352</ele>
        <time>2013-12-22T07:52:55.000Z</time>
      </trkpt>
      <trkpt lat="43.64458" lon="1.21273">
        <ele>219.80000305176</ele>
        <time>2013-12-22T07:53:00.000Z</time>
      </trkpt>
      <trkpt lat="43.64466" lon="1.21255">
        <ele>217.19999694824</ele>
        <time>2013-12-22T07:53:05.000Z</time>
      </trkpt>
      <trkpt lat="43.64467" lon="1.21252">
        <ele>216.80000305176</ele>
        <time>2013-12-22T07:53:06.000Z</time>
      </trkpt>
      <trkpt lat="43.6447" lon="1.21242">
        <ele>215.80000305176</ele>
        <time>2013-12-22T07:53:09.000Z</time>
      </trkpt>
      <trkpt lat="43.64474" lon="1.21232">
        <ele>214.80000305176</ele>
        <time>2013-12-22T07:53:12.000Z</time>
      </trkpt>
      <trkpt lat="43.6447" lon="1.21222">
        <ele>214.60000610352</ele>
        <time>2013-12-22T07:53:17.000Z</time>
      </trkpt>
      <trkpt lat="43.64465" lon="1.21218">
        <ele>214.80000305176</ele>
        <time>2013-12-22T07:53:19.000Z</time>
      </trkpt>
      <trkpt lat="43.64457" lon="1.2121">
        <ele>215</ele>
        <time>2013-12-22T07:53:23.000Z</time>
      </trkpt>
      <trkpt lat="43.64442" lon="1.21204">
        <ele>216</ele>
        <time>2013-12-22T07:53:29.000Z</time>
      </trkpt>
      <trkpt lat="43.64427" lon="1.21194">
        <ele>216.39999389648</ele>
        <time>2013-12-22T07:53:36.000Z</time>
      </trkpt>
      <trkpt lat="43.64412" lon="1.2118">
        <ele>216.19999694824</ele>
        <time>2013-12-22T07:53:43.000Z</time>
      </trkpt>
      <trkpt lat="43.64403" lon="1.21168">
        <ele>215.80000305176</ele>
        <time>2013-12-22T07:53:48.000Z</time>
      </trkpt>
      <trkpt lat="43.64399" lon="1.21164">
        <ele>216</ele>
        <time>2013-12-22T07:53:50.000Z</time>
      </trkpt>
      <trkpt lat="43.64391" lon="1.2115">
        <ele>216.60000610352</ele>
        <time>2013-12-22T07:53:56.000Z</time>
      </trkpt>
      <trkpt lat="43.64384" lon="1.2114">
        <ele>217.19999694824</ele>
        <time>2013-12-22T07:54:00.000Z</time>
      </trkpt>
      <trkpt lat="43.64382" lon="1.21135">
        <ele>217.39999389648</ele>
        <time>2013-12-22T07:54:02.000Z</time>
      </trkpt>
      <trkpt lat="43.64375" lon="1.21116">
        <ele>217.39999389648</ele>
        <time>2013-12-22T07:54:08.000Z</time>
      </trkpt>
      <trkpt lat="43.64371" lon="1.21099">
        <ele>217.39999389648</ele>
        <time>2013-12-22T07:54:13.000Z</time>
      </trkpt>
      <trkpt lat="43.64364" lon="1.21078">
        <ele>217.39999389648</ele>
        <time>2013-12-22T07:54:20.000Z</time>
      </trkpt>
      <trkpt lat="43.64363" lon="1.21074">
        <ele>217.60000610352</ele>
        <time>2013-12-22T07:54:21.000Z</time>
      </trkpt>
      <trkpt lat="43.64356" lon="1.21061">
        <ele>218</ele>
        <time>2013-12-22T07:54:26.000Z</time>
      </trkpt>
      <trkpt lat="43.64352" lon="1.21044">
        <ele>218.19999694824</ele>
        <time>2013-12-22T07:54:32.000Z</time>
      </trkpt>
      <trkpt lat="43.64345" lon="1.2103">
        <ele>218.19999694824</ele>
        <time>2013-12-22T07:54:37.000Z</time>
      </trkpt>
      <trkpt lat="43.64342" lon="1.21021">
        <ele>218.19999694824</ele>
        <time>2013-12-22T07:54:40.000Z</time>
      </trkpt>
      <trkpt lat="43.64339" lon="1.21007">
        <ele>218</ele>
        <time>2013-12-22T07:54:44.000Z</time>
      </trkpt>
      <trkpt lat="43.64338" lon="1.20989">
        <ele>217.80000305176</ele>
        <time>2013-12-22T07:54:49.000Z</time>
      </trkpt>
      <trkpt lat="43.64335" lon="1.20974">
        <ele>217.60000610352</ele>
        <time>2013-12-22T07:54:54.000Z</time>
      </trkpt>
      <trkpt lat="43.64329" lon="1.20959">
        <ele>218</ele>
        <time>2013-12-22T07:54:59.000Z</time>
      </trkpt>
      <trkpt lat="43.64324" lon="1.20947">
        <ele>218.39999389648</ele>
        <time>2013-12-22T07:55:03.000Z</time>
      </trkpt>
      <trkpt lat="43.64317" lon="1.20932">
        <ele>219.19999694824</ele>
        <time>2013-12-22T07:55:08.000Z</time>
      </trkpt>
      <trkpt lat="43.64316" lon="1.2093">
        <ele>219.19999694824</ele>
        <time>2013-12-22T07:55:09.000Z</time>
      </trkpt>
      <trkpt lat="43.64308" lon="1.20915">
        <ele>220</ele>
        <time>2013-12-22T07:55:15.000Z</time>
      </trkpt>
      <trkpt lat="43.64307" lon="1.20904">
        <ele>220.19999694824</ele>
        <time>2013-12-22T07:55:18.000Z</time>
      </trkpt>
      <trkpt lat="43.64308" lon="1.20875">
        <ele>219.80000305176</ele>
        <time>2013-12-22T07:55:25.000Z</time>
      </trkpt>
      <trkpt lat="43.64309" lon="1.2085">
        <ele>219.80000305176</ele>
        <time>2013-12-22T07:55:32.000Z</time>
      </trkpt>
      <trkpt lat="43.64309" lon="1.20839">
        <ele>219.60000610352</ele>
        <time>2013-12-22T07:55:35.000Z</time>
      </trkpt>
      <trkpt lat="43.64306" lon="1.20833">
        <ele>220</ele>
        <time>2013-12-22T07:55:37.000Z</time>
      </trkpt>
      <trkpt lat="43.64293" lon="1.20812">
        <ele>221.19999694824</ele>
        <time>2013-12-22T07:55:46.000Z</time>
      </trkpt>
      <trkpt lat="43.64288" lon="1.20796">
        <ele>221.60000610352</ele>
        <time>2013-12-22T07:55:51.000Z</time>
      </trkpt>
      <trkpt lat="43.64288" lon="1.20792">
        <ele>221.60000610352</ele>
        <time>2013-12-22T07:55:52.000Z</time>
      </trkpt>
      <trkpt lat="43.64288" lon="1.20783">
        <ele>221.39999389648</ele>
        <time>2013-12-22T07:55:55.000Z</time>
      </trkpt>
      <trkpt lat="43.64285" lon="1.20768">
        <ele>221.39999389648</ele>
        <time>2013-12-22T07:56:00.000Z</time>
      </trkpt>
      <trkpt lat="43.6428" lon="1.20757">
        <ele>221.39999389648</ele>
        <time>2013-12-22T07:56:04.000Z</time>
      </trkpt>
      <trkpt lat="43.6428" lon="1.20738">
        <ele>220.60000610352</ele>
        <time>2013-12-22T07:56:10.000Z</time>
      </trkpt>
      <trkpt lat="43.64282" lon="1.20732">
        <ele>220.39999389648</ele>
        <time>2013-12-22T07:56:12.000Z</time>
      </trkpt>
      <trkpt lat="43.6428" lon="1.20716">
        <ele>219.39999389648</ele>
        <time>2013-12-22T07:56:17.000Z</time>
      </trkpt>
      <trkpt lat="43.64278" lon="1.20698">
        <ele>218.39999389648</ele>
        <time>2013-12-22T07:56:22.000Z</time>
      </trkpt>
      <trkpt lat="43.64277" lon="1.20696">
        <ele>218.19999694824</ele>
        <time>2013-12-22T07:56:23.000Z</time>
      </trkpt>
      <trkpt lat="43.64279" lon="1.20679">
        <ele>217.39999389648</ele>
        <time>2013-12-22T07:56:28.000Z</time>
      </trkpt>
      <trkpt lat="43.64265" lon="1.20654">
        <ele>216</ele>
        <time>2013-12-22T07:56:38.000Z</time>
      </trkpt>
      <trkpt lat="43.64261" lon="1.20636">
        <ele>215.80000305176</ele>
        <time>2013-12-22T07:56:43.000Z</time>
      </trkpt>
      <trkpt lat="43.6426" lon="1.20622">
        <ele>215.80000305176</ele>
        <time>2013-12-22T07:56:47.000Z</time>
      </trkpt>
      <trkpt lat="43.64253" lon="1.20599">
        <ele>215.19999694824</ele>
        <time>2013-12-22T07:56:55.000Z</time>
      </trkpt>
      <trkpt lat="43.64246" lon="1.20578">
        <ele>215.19999694824</ele>
        <time>2013-12-22T07:57:01.000Z</time>
      </trkpt>
      <trkpt lat="43.64243" lon="1.20562">
        <ele>216</ele>
        <time>2013-12-22T07:57:06.000Z</time>
      </trkpt>
      <trkpt lat="43.6424" lon="1.20543">
        <ele>216.60000610352</ele>
        <time>2013-12-22T07:57:11.000Z</time>
      </trkpt>
      <trkpt lat="43.64239" lon="1.20521">
        <ele>217.60000610352</ele>
        <time>2013-12-22T07:57:17.000Z</time>
      </trkpt>
      <trkpt lat="43.64237" lon="1.20503">
        <ele>218.19999694824</ele>
        <time>2013-12-22T07:57:22.000Z</time>
      </trkpt>
      <trkpt lat="43.64235" lon="1.20482">
        <ele>218.80000305176</ele>
        <time>2013-12-22T07:57:28.000Z</time>
      </trkpt>
      <trkpt lat="43.64234" lon="1.20467">
        <ele>219</ele>
        <time>2013-12-22T07:57:33.000Z</time>
      </trkpt>
      <trkpt lat="43.6423" lon="1.20451">
        <ele>219.39999389648</ele>
        <time>2013-12-22T07:57:38.000Z</time>
      </trkpt>
      <trkpt lat="43.64229" lon="1.20439">
        <ele>219.60000610352</ele>
        <time>2013-12-22T07:57:42.000Z</time>
      </trkpt>
      <trkpt lat="43.64224" lon="1.20417">
        <ele>220</ele>
        <time>2013-12-22T07:57:49.000Z</time>
      </trkpt>
      <trkpt lat="43.64223" lon="1.20408">
        <ele>220</ele>
        <time>2013-12-22T07:57:52.000Z</time>
      </trkpt>
      <trkpt lat="43.64219" lon="1.20394">
        <ele>219.80000305176</ele>
        <time>2013-12-22T07:57:57.000Z</time>
      </trkpt>
      <trkpt lat="43.64215" lon="1.20377">
        <ele>219.60000610352</ele>
        <time>2013-12-22T07:58:02.000Z</time>
      </trkpt>
      <trkpt lat="43.64214" lon="1.20361">
        <ele>219.39999389648</ele>
        <time>2013-12-22T07:58:07.000Z</time>
      </trkpt>
      <trkpt lat="43.64213" lon="1.20354">
        <ele>219.39999389648</ele>
        <time>2013-12-22T07:58:09.000Z</time>
      </trkpt>
      <trkpt lat="43.64211" lon="1.20336">
        <ele>219</ele>
        <time>2013-12-22T07:58:14.000Z</time>
      </trkpt>
      <trkpt lat="43.6421" lon="1.20333">
        <ele>219</ele>
        <time>2013-12-22T07:58:15.000Z</time>
      </trkpt>
      <trkpt lat="43.64209" lon="1.20329">
        <ele>219</ele>
        <time>2013-12-22T07:58:16.000Z</time>
      </trkpt>
      <trkpt lat="43.64195" lon="1.20316">
        <ele>219</ele>
        <time>2013-12-22T07:58:25.000Z</time>
      </trkpt>
      <trkpt lat="43.64192" lon="1.20318">
        <ele>219</ele>
        <time>2013-12-22T07:58:26.000Z</time>
      </trkpt>
      <trkpt lat="43.64191" lon="1.20319">
        <ele>218.80000305176</ele>
        <time>2013-12-22T07:58:27.000Z</time>
      </trkpt>
      <trkpt lat="43.64186" lon="1.20317">
        <ele>218.80000305176</ele>
        <time>2013-12-22T07:58:32.000Z</time>
      </trkpt>
      <trkpt lat="43.6418" lon="1.20313">
        <ele>218.80000305176</ele>
        <time>2013-12-22T07:58:36.000Z</time>
      </trkpt>
      <trkpt lat="43.64179" lon="1.20309">
        <ele>218.80000305176</ele>
        <time>2013-12-22T07:58:38.000Z</time>
      </trkpt>
      <trkpt lat="43.64178" lon="1.20296">
        <ele>219.19999694824</ele>
        <time>2013-12-22T07:58:42.000Z</time>
      </trkpt>
      <trkpt lat="43.64177" lon="1.20293">
        <ele>219.19999694824</ele>
        <time>2013-12-22T07:58:43.000Z</time>
      </trkpt>
      <trkpt lat="43.64174" lon="1.20288">
        <ele>219.19999694824</ele>
        <time>2013-12-22T07:58:45.000Z</time>
      </trkpt>
      <trkpt lat="43.64169" lon="1.20273">
        <ele>219.39999389648</ele>
        <time>2013-12-22T07:58:51.000Z</time>
      </trkpt>
      <trkpt lat="43.64168" lon="1.20267">
        <ele>219.60000610352</ele>
        <time>2013-12-22T07:58:53.000Z</time>
      </trkpt>
      <trkpt lat="43.6416" lon="1.2026">
        <ele>220.60000610352</ele>
        <time>2013-12-22T07:58:58.000Z</time>
      </trkpt>
      <trkpt lat="43.64159" lon="1.20258">
        <ele>220.80000305176</ele>
        <time>2013-12-22T07:58:59.000Z</time>
      </trkpt>
      <trkpt lat="43.64153" lon="1.20245">
        <ele>222</ele>
        <time>2013-12-22T07:59:05.000Z</time>
      </trkpt>
      <trkpt lat="43.64153" lon="1.20243">
        <ele>222.19999694824</ele>
        <time>2013-12-22T07:59:06.000Z</time>
      </trkpt>
      <trkpt lat="43.64157" lon="1.20236">
        <ele>222</ele>
        <time>2013-12-22T07:59:10.000Z</time>
      </trkpt>
      <trkpt lat="43.64157" lon="1.20234">
        <ele>221.80000305176</ele>
        <time>2013-12-22T07:59:11.000Z</time>
      </trkpt>
      <trkpt lat="43.64158" lon="1.20231">
        <ele>221.80000305176</ele>
        <time>2013-12-22T07:59:12.000Z</time>
      </trkpt>
      <trkpt lat="43.64154" lon="1.20215">
        <ele>223</ele>
        <time>2013-12-22T07:59:19.000Z</time>
      </trkpt>
      <trkpt lat="43.64153" lon="1.20208">
        <ele>223.19999694824</ele>
        <time>2013-12-22T07:59:22.000Z</time>
      </trkpt>
      <trkpt lat="43.64149" lon="1.20176">
        <ele>224.80000305176</ele>
        <time>2013-12-22T07:59:33.000Z</time>
      </trkpt>
      <trkpt lat="43.64145" lon="1.20157">
        <ele>226</ele>
        <time>2013-12-22T07:59:39.000Z</time>
      </trkpt>
      <trkpt lat="43.64145" lon="1.20155">
        <ele>226</ele>
        <time>2013-12-22T07:59:40.000Z</time>
      </trkpt>
      <trkpt lat="43.64141" lon="1.20143">
        <ele>226.80000305176</ele>
        <time>2013-12-22T07:59:45.000Z</time>
      </trkpt>
      <trkpt lat="43.64141" lon="1.20141">
        <ele>227</ele>
        <time>2013-12-22T07:59:46.000Z</time>
      </trkpt>
      <trkpt lat="43.64137" lon="1.20122">
        <ele>227.80000305176</ele>
        <time>2013-12-22T07:59:52.000Z</time>
      </trkpt>
      <trkpt lat="43.64133" lon="1.20102">
        <ele>228.80000305176</ele>
        <time>2013-12-22T07:59:58.000Z</time>
      </trkpt>
      <trkpt lat="43.64132" lon="1.20086">
        <ele>229.39999389648</ele>
        <time>2013-12-22T08:00:03.000Z</time>
      </trkpt>
      <trkpt lat="43.64132" lon="1.20066">
        <ele>230</ele>
        <time>2013-12-22T08:00:09.000Z</time>
      </trkpt>
      <trkpt lat="43.64132" lon="1.20055">
        <ele>230.19999694824</ele>
        <time>2013-12-22T08:00:12.000Z</time>
      </trkpt>
      <trkpt lat="43.64126" lon="1.20039">
        <ele>231</ele>
        <time>2013-12-22T08:00:17.000Z</time>
      </trkpt>
      <trkpt lat="43.64126" lon="1.20037">
        <ele>231</ele>
        <time>2013-12-22T08:00:18.000Z</time>
      </trkpt>
      <trkpt lat="43.64125" lon="1.20019">
        <ele>231.60000610352</ele>
        <time>2013-12-22T08:00:23.000Z</time>
      </trkpt>
      <trkpt lat="43.64123" lon="1.2">
        <ele>232.19999694824</ele>
        <time>2013-12-22T08:00:28.000Z</time>
      </trkpt>
      <trkpt lat="43.64114" lon="1.19978">
        <ele>233.39999389648</ele>
        <time>2013-12-22T08:00:36.000Z</time>
      </trkpt>
      <trkpt lat="43.64114" lon="1.19963">
        <ele>233.80000305176</ele>
        <time>2013-12-22T08:00:40.000Z</time>
      </trkpt>
      <trkpt lat="43.64113" lon="1.19961">
        <ele>233.80000305176</ele>
        <time>2013-12-22T08:00:41.000Z</time>
      </trkpt>
      <trkpt lat="43.64109" lon="1.19944">
        <ele>234.39999389648</ele>
        <time>2013-12-22T08:00:46.000Z</time>
      </trkpt>
      <trkpt lat="43.64107" lon="1.19925">
        <ele>235</ele>
        <time>2013-12-22T08:00:51.000Z</time>
      </trkpt>
      <trkpt lat="43.64104" lon="1.19915">
        <ele>235.19999694824</ele>
        <time>2013-12-22T08:00:54.000Z</time>
      </trkpt>
      <trkpt lat="43.64095" lon="1.19899">
        <ele>235</ele>
        <time>2013-12-22T08:01:00.000Z</time>
      </trkpt>
      <trkpt lat="43.64092" lon="1.19893">
        <ele>235</ele>
        <time>2013-12-22T08:01:02.000Z</time>
      </trkpt>
      <trkpt lat="43.64093" lon="1.19873">
        <ele>234.19999694824</ele>
        <time>2013-12-22T08:01:08.000Z</time>
      </trkpt>
      <trkpt lat="43.64087" lon="1.19859">
        <ele>233.80000305176</ele>
        <time>2013-12-22T08:01:13.000Z</time>
      </trkpt>
      <trkpt lat="43.64083" lon="1.19846">
        <ele>233.39999389648</ele>
        <time>2013-12-22T08:01:17.000Z</time>
      </trkpt>
      <trkpt lat="43.64075" lon="1.1983">
        <ele>234</ele>
        <time>2013-12-22T08:01:23.000Z</time>
      </trkpt>
      <trkpt lat="43.64067" lon="1.19822">
        <ele>234.80000305176</ele>
        <time>2013-12-22T08:01:27.000Z</time>
      </trkpt>
      <trkpt lat="43.6406" lon="1.19811">
        <ele>235.39999389648</ele>
        <time>2013-12-22T08:01:32.000Z</time>
      </trkpt>
      <trkpt lat="43.64052" lon="1.19797">
        <ele>236</ele>
        <time>2013-12-22T08:01:37.000Z</time>
      </trkpt>
      <trkpt lat="43.6405" lon="1.19794">
        <ele>236.19999694824</ele>
        <time>2013-12-22T08:01:38.000Z</time>
      </trkpt>
      <trkpt lat="43.64046" lon="1.1978">
        <ele>236.39999389648</ele>
        <time>2013-12-22T08:01:43.000Z</time>
      </trkpt>
      <trkpt lat="43.64042" lon="1.1977">
        <ele>236.80000305176</ele>
        <time>2013-12-22T08:01:47.000Z</time>
      </trkpt>
      <trkpt lat="43.64041" lon="1.19766">
        <ele>236.80000305176</ele>
        <time>2013-12-22T08:01:48.000Z</time>
      </trkpt>
      <trkpt lat="43.64038" lon="1.19761">
        <ele>237</ele>
        <time>2013-12-22T08:01:50.000Z</time>
      </trkpt>
      <trkpt lat="43.64034" lon="1.19754">
        <ele>237.19999694824</ele>
        <time>2013-12-22T08:01:53.000Z</time>
      </trkpt>
      <trkpt lat="43.6403" lon="1.19741">
        <ele>237.19999694824</ele>
        <time>2013-12-22T08:01:57.000Z</time>
      </trkpt>
      <trkpt lat="43.64023" lon="1.19728">
        <ele>237.19999694824</ele>
        <time>2013-12-22T08:02:02.000Z</time>
      </trkpt>
      <trkpt lat="43.64017" lon="1.19715">
        <ele>237</ele>
        <time>2013-12-22T08:02:07.000Z</time>
      </trkpt>
      <trkpt lat="43.64015" lon="1.19709">
        <ele>236.80000305176</ele>
        <time>2013-12-22T08:02:09.000Z</time>
      </trkpt>
      <trkpt lat="43.64013" lon="1.19701">
        <ele>236.60000610352</ele>
        <time>2013-12-22T08:02:12.000Z</time>
      </trkpt>
      <trkpt lat="43.64008" lon="1.19687">
        <ele>236</ele>
        <time>2013-12-22T08:02:17.000Z</time>
      </trkpt>
      <trkpt lat="43.64002" lon="1.19675">
        <ele>235.39999389648</ele>
        <time>2013-12-22T08:02:22.000Z</time>
      </trkpt>
      <trkpt lat="43.63998" lon="1.19664">
        <ele>235</ele>
        <time>2013-12-22T08:02:26.000Z</time>
      </trkpt>
      <trkpt lat="43.63995" lon="1.19646">
        <ele>234.60000610352</ele>
        <time>2013-12-22T08:02:31.000Z</time>
      </trkpt>
      <trkpt lat="43.63994" lon="1.19641">
        <ele>234.60000610352</ele>
        <time>2013-12-22T08:02:33.000Z</time>
      </trkpt>
      <trkpt lat="43.63987" lon="1.19626">
        <ele>234.39999389648</ele>
        <time>2013-12-22T08:02:39.000Z</time>
      </trkpt>
      <trkpt lat="43.63985" lon="1.19624">
        <ele>234.60000610352</ele>
        <time>2013-12-22T08:02:40.000Z</time>
      </trkpt>
      <trkpt lat="43.63981" lon="1.19616">
        <ele>234.60000610352</ele>
        <time>2013-12-22T08:02:44.000Z</time>
      </trkpt>
      <trkpt lat="43.63981" lon="1.19612">
        <ele>234.39999389648</ele>
        <time>2013-12-22T08:02:45.000Z</time>
      </trkpt>
      <trkpt lat="43.63981" lon="1.19609">
        <ele>234.39999389648</ele>
        <time>2013-12-22T08:02:46.000Z</time>
      </trkpt>
      <trkpt lat="43.63978" lon="1.19592">
        <ele>234.19999694824</ele>
        <time>2013-12-22T08:02:51.000Z</time>
      </trkpt>
      <trkpt lat="43.63977" lon="1.19586">
        <ele>234.19999694824</ele>
        <time>2013-12-22T08:02:53.000Z</time>
      </trkpt>
      <trkpt lat="43.63971" lon="1.19571">
        <ele>234.60000610352</ele>
        <time>2013-12-22T08:02:58.000Z</time>
      </trkpt>
      <trkpt lat="43.63971" lon="1.19569">
        <ele>234.60000610352</ele>
        <time>2013-12-22T08:02:59.000Z</time>
      </trkpt>
      <trkpt lat="43.63965" lon="1.1956">
        <ele>235</ele>
        <time>2013-12-22T08:03:03.000Z</time>
      </trkpt>
      <trkpt lat="43.63963" lon="1.19545">
        <ele>235.19999694824</ele>
        <time>2013-12-22T08:03:08.000Z</time>
      </trkpt>
      <trkpt lat="43.63962" lon="1.19536">
        <ele>235.39999389648</ele>
        <time>2013-12-22T08:03:11.000Z</time>
      </trkpt>
      <trkpt lat="43.63959" lon="1.1952">
        <ele>235.80000305176</ele>
        <time>2013-12-22T08:03:17.000Z</time>
      </trkpt>
      <trkpt lat="43.63959" lon="1.19517">
        <ele>235.80000305176</ele>
        <time>2013-12-22T08:03:18.000Z</time>
      </trkpt>
      <trkpt lat="43.63962" lon="1.19509">
        <ele>235.80000305176</ele>
        <time>2013-12-22T08:03:22.000Z</time>
      </trkpt>
      <trkpt lat="43.6397" lon="1.195">
        <ele>235.39999389648</ele>
        <time>2013-12-22T08:03:27.000Z</time>
      </trkpt>
      <trkpt lat="43.63971" lon="1.195">
        <ele>235.39999389648</ele>
        <time>2013-12-22T08:03:28.000Z</time>
      </trkpt>
      <trkpt lat="43.63972" lon="1.19496">
        <ele>235.19999694824</ele>
        <time>2013-12-22T08:03:29.000Z</time>
      </trkpt>
      <trkpt lat="43.63975" lon="1.19488">
        <ele>235</ele>
        <time>2013-12-22T08:03:32.000Z</time>
      </trkpt>
      <trkpt lat="43.63979" lon="1.19482">
        <ele>234.60000610352</ele>
        <time>2013-12-22T08:03:35.000Z</time>
      </trkpt>
      <trkpt lat="43.63979" lon="1.19472">
        <ele>234.39999389648</ele>
        <time>2013-12-22T08:03:39.000Z</time>
      </trkpt>
      <trkpt lat="43.63983" lon="1.19461">
        <ele>234</ele>
        <time>2013-12-22T08:03:43.000Z</time>
      </trkpt>
      <trkpt lat="43.63986" lon="1.1944">
        <ele>233.60000610352</ele>
        <time>2013-12-22T08:03:50.000Z</time>
      </trkpt>
      <trkpt lat="43.63992" lon="1.19424">
        <ele>233.19999694824</ele>
        <time>2013-12-22T08:03:55.000Z</time>
      </trkpt>
      <trkpt lat="43.64004" lon="1.19405">
        <ele>233</ele>
        <time>2013-12-22T08:04:02.000Z</time>
      </trkpt>
      <trkpt lat="43.6401" lon="1.19394">
        <ele>233</ele>
        <time>2013-12-22T08:04:06.000Z</time>
      </trkpt>
      <trkpt lat="43.64018" lon="1.1938">
        <ele>232.80000305176</ele>
        <time>2013-12-22T08:04:11.000Z</time>
      </trkpt>
      <trkpt lat="43.64026" lon="1.19367">
        <ele>232.60000610352</ele>
        <time>2013-12-22T08:04:16.000Z</time>
      </trkpt>
      <trkpt lat="43.64039" lon="1.19351">
        <ele>232.19999694824</ele>
        <time>2013-12-22T08:04:22.000Z</time>
      </trkpt>
      <trkpt lat="43.64052" lon="1.19333">
        <ele>231.80000305176</ele>
        <time>2013-12-22T08:04:30.000Z</time>
      </trkpt>
      <trkpt lat="43.64066" lon="1.19315">
        <ele>231.60000610352</ele>
        <time>2013-12-22T08:04:36.000Z</time>
      </trkpt>
      <trkpt lat="43.64075" lon="1.19301">
        <ele>231.60000610352</ele>
        <time>2013-12-22T08:04:41.000Z</time>
      </trkpt>
      <trkpt lat="43.64088" lon="1.19283">
        <ele>231.60000610352</ele>
        <time>2013-12-22T08:04:48.000Z</time>
      </trkpt>
      <trkpt lat="43.64101" lon="1.1927">
        <ele>231.60000610352</ele>
        <time>2013-12-22T08:04:54.000Z</time>
      </trkpt>
      <trkpt lat="43.64106" lon="1.19264">
        <ele>231.60000610352</ele>
        <time>2013-12-22T08:04:57.000Z</time>
      </trkpt>
      <trkpt lat="43.64117" lon="1.19252">
        <ele>231.60000610352</ele>
        <time>2013-12-22T08:05:02.000Z</time>
      </trkpt>
      <trkpt lat="43.64129" lon="1.1924">
        <ele>231.39999389648</ele>
        <time>2013-12-22T08:05:08.000Z</time>
      </trkpt>
      <trkpt lat="43.6413" lon="1.19239">
        <ele>231.39999389648</ele>
        <time>2013-12-22T08:05:09.000Z</time>
      </trkpt>
      <trkpt lat="43.64145" lon="1.19221">
        <ele>231</ele>
        <time>2013-12-22T08:05:16.000Z</time>
      </trkpt>
      <trkpt lat="43.64154" lon="1.19211">
        <ele>230.60000610352</ele>
        <time>2013-12-22T08:05:21.000Z</time>
      </trkpt>
      <trkpt lat="43.64169" lon="1.19196">
        <ele>230.39999389648</ele>
        <time>2013-12-22T08:05:28.000Z</time>
      </trkpt>
      <trkpt lat="43.64179" lon="1.19184">
        <ele>230</ele>
        <time>2013-12-22T08:05:33.000Z</time>
      </trkpt>
      <trkpt lat="43.64192" lon="1.19172">
        <ele>229.80000305176</ele>
        <time>2013-12-22T08:05:39.000Z</time>
      </trkpt>
      <trkpt lat="43.64207" lon="1.19155">
        <ele>229.60000610352</ele>
        <time>2013-12-22T08:05:46.000Z</time>
      </trkpt>
      <trkpt lat="43.64215" lon="1.19144">
        <ele>229.60000610352</ele>
        <time>2013-12-22T08:05:50.000Z</time>
      </trkpt>
      <trkpt lat="43.64231" lon="1.19124">
        <ele>229.80000305176</ele>
        <time>2013-12-22T08:05:58.000Z</time>
      </trkpt>
      <trkpt lat="43.64245" lon="1.19108">
        <ele>229.80000305176</ele>
        <time>2013-12-22T08:06:05.000Z</time>
      </trkpt>
      <trkpt lat="43.64261" lon="1.19104">
        <ele>229.80000305176</ele>
        <time>2013-12-22T08:06:11.000Z</time>
      </trkpt>
      <trkpt lat="43.64277" lon="1.19102">
        <ele>230</ele>
        <time>2013-12-22T08:06:17.000Z</time>
      </trkpt>
      <trkpt lat="43.64293" lon="1.19104">
        <ele>230</ele>
        <time>2013-12-22T08:06:24.000Z</time>
      </trkpt>
      <trkpt lat="43.64305" lon="1.19104">
        <ele>230</ele>
        <time>2013-12-22T08:06:28.000Z</time>
      </trkpt>
      <trkpt lat="43.6431" lon="1.19095">
        <ele>230</ele>
        <time>2013-12-22T08:06:32.000Z</time>
      </trkpt>
      <trkpt lat="43.64307" lon="1.19066">
        <ele>229.80000305176</ele>
        <time>2013-12-22T08:06:40.000Z</time>
      </trkpt>
      <trkpt lat="43.64306" lon="1.1904">
        <ele>229.60000610352</ele>
        <time>2013-12-22T08:06:47.000Z</time>
      </trkpt>
      <trkpt lat="43.64304" lon="1.19021">
        <ele>229.60000610352</ele>
        <time>2013-12-22T08:06:52.000Z</time>
      </trkpt>
      <trkpt lat="43.64303" lon="1.18998">
        <ele>229.39999389648</ele>
        <time>2013-12-22T08:06:58.000Z</time>
      </trkpt>
      <trkpt lat="43.64306" lon="1.18981">
        <ele>229</ele>
        <time>2013-12-22T08:07:03.000Z</time>
      </trkpt>
      <trkpt lat="43.64314" lon="1.18962">
        <ele>228.60000610352</ele>
        <time>2013-12-22T08:07:08.000Z</time>
      </trkpt>
      <trkpt lat="43.64317" lon="1.18956">
        <ele>228.19999694824</ele>
        <time>2013-12-22T08:07:10.000Z</time>
      </trkpt>
      <trkpt lat="43.64324" lon="1.18939">
        <ele>227.39999389648</ele>
        <time>2013-12-22T08:07:15.000Z</time>
      </trkpt>
      <trkpt lat="43.64333" lon="1.18918">
        <ele>226</ele>
        <time>2013-12-22T08:07:21.000Z</time>
      </trkpt>
      <trkpt lat="43.64341" lon="1.18896">
        <ele>225</ele>
        <time>2013-12-22T08:07:27.000Z</time>
      </trkpt>
      <trkpt lat="43.64346" lon="1.18881">
        <ele>224.60000610352</ele>
        <time>2013-12-22T08:07:31.000Z</time>
      </trkpt>
      <trkpt lat="43.64353" lon="1.18858">
        <ele>223.80000305176</ele>
        <time>2013-12-22T08:07:37.000Z</time>
      </trkpt>
      <trkpt lat="43.64358" lon="1.18834">
        <ele>223</ele>
        <time>2013-12-22T08:07:43.000Z</time>
      </trkpt>
      <trkpt lat="43.64363" lon="1.18815">
        <ele>222.60000610352</ele>
        <time>2013-12-22T08:07:48.000Z</time>
      </trkpt>
      <trkpt lat="43.64368" lon="1.18791">
        <ele>222.19999694824</ele>
        <time>2013-12-22T08:07:54.000Z</time>
      </trkpt>
      <trkpt lat="43.64374" lon="1.18768">
        <ele>221.80000305176</ele>
        <time>2013-12-22T08:08:00.000Z</time>
      </trkpt>
      <trkpt lat="43.64382" lon="1.18747">
        <ele>221.39999389648</ele>
        <time>2013-12-22T08:08:06.000Z</time>
      </trkpt>
      <trkpt lat="43.64392" lon="1.18726">
        <ele>220.60000610352</ele>
        <time>2013-12-22T08:08:12.000Z</time>
      </trkpt>
      <trkpt lat="43.64399" lon="1.18713">
        <ele>219.80000305176</ele>
        <time>2013-12-22T08:08:16.000Z</time>
      </trkpt>
      <trkpt lat="43.64407" lon="1.18699">
        <ele>218.60000610352</ele>
        <time>2013-12-22T08:08:21.000Z</time>
      </trkpt>
      <trkpt lat="43.64414" lon="1.18685">
        <ele>217.19999694824</ele>
        <time>2013-12-22T08:08:25.000Z</time>
      </trkpt>
      <trkpt lat="43.64424" lon="1.18666">
        <ele>215.60000610352</ele>
        <time>2013-12-22T08:08:31.000Z</time>
      </trkpt>
      <trkpt lat="43.64432" lon="1.1865">
        <ele>214.80000305176</ele>
        <time>2013-12-22T08:08:36.000Z</time>
      </trkpt>
      <trkpt lat="43.64442" lon="1.18626">
        <ele>213.60000610352</ele>
        <time>2013-12-22T08:08:43.000Z</time>
      </trkpt>
      <trkpt lat="43.64448" lon="1.18607">
        <ele>212.60000610352</ele>
        <time>2013-12-22T08:08:48.000Z</time>
      </trkpt>
      <trkpt lat="43.64452" lon="1.18592">
        <ele>211.80000305176</ele>
        <time>2013-12-22T08:08:52.000Z</time>
      </trkpt>
      <trkpt lat="43.64458" lon="1.18574">
        <ele>211</ele>
        <time>2013-12-22T08:08:57.000Z</time>
      </trkpt>
      <trkpt lat="43.64468" lon="1.18551">
        <ele>210.19999694824</ele>
        <time>2013-12-22T08:09:04.000Z</time>
      </trkpt>
      <trkpt lat="43.64476" lon="1.18537">
        <ele>209.80000305176</ele>
        <time>2013-12-22T08:09:09.000Z</time>
      </trkpt>
      <trkpt lat="43.64484" lon="1.18519">
        <ele>208.80000305176</ele>
        <time>2013-12-22T08:09:14.000Z</time>
      </trkpt>
      <trkpt lat="43.64485" lon="1.18516">
        <ele>208.80000305176</ele>
        <time>2013-12-22T08:09:15.000Z</time>
      </trkpt>
      <trkpt lat="43.6449" lon="1.18508">
        <ele>208.19999694824</ele>
        <time>2013-12-22T08:09:18.000Z</time>
      </trkpt>
      <trkpt lat="43.64504" lon="1.18484">
        <ele>206.39999389648</ele>
        <time>2013-12-22T08:09:26.000Z</time>
      </trkpt>
      <trkpt lat="43.64517" lon="1.18461">
        <ele>204.80000305176</ele>
        <time>2013-12-22T08:09:33.000Z</time>
      </trkpt>
      <trkpt lat="43.64526" lon="1.18445">
        <ele>203.60000610352</ele>
        <time>2013-12-22T08:09:38.000Z</time>
      </trkpt>
      <trkpt lat="43.6453" lon="1.18435">
        <ele>202.60000610352</ele>
        <time>2013-12-22T08:09:41.000Z</time>
      </trkpt>
      <trkpt lat="43.64526" lon="1.18414">
        <ele>199.60000610352</ele>
        <time>2013-12-22T08:09:47.000Z</time>
      </trkpt>
      <trkpt lat="43.64524" lon="1.18412">
        <ele>199.19999694824</ele>
        <time>2013-12-22T08:09:48.000Z</time>
      </trkpt>
      <trkpt lat="43.64514" lon="1.184">
        <ele>197.19999694824</ele>
        <time>2013-12-22T08:09:53.000Z</time>
      </trkpt>
      <trkpt lat="43.64505" lon="1.18392">
        <ele>195.80000305176</ele>
        <time>2013-12-22T08:09:57.000Z</time>
      </trkpt>
      <trkpt lat="43.64491" lon="1.18376">
        <ele>194.60000610352</ele>
        <time>2013-12-22T08:10:03.000Z</time>
      </trkpt>
      <trkpt lat="43.64479" lon="1.18358">
        <ele>193.39999389648</ele>
        <time>2013-12-22T08:10:09.000Z</time>
      </trkpt>
      <trkpt lat="43.64479" lon="1.18339">
        <ele>191.80000305176</ele>
        <time>2013-12-22T08:10:14.000Z</time>
      </trkpt>
      <trkpt lat="43.64481" lon="1.1832">
        <ele>190.19999694824</ele>
        <time>2013-12-22T08:10:20.000Z</time>
      </trkpt>
      <trkpt lat="43.64483" lon="1.18311">
        <ele>189.39999389648</ele>
        <time>2013-12-22T08:10:24.000Z</time>
      </trkpt>
      <trkpt lat="43.64486" lon="1.18288">
        <ele>187.60000610352</ele>
        <time>2013-12-22T08:10:29.000Z</time>
      </trkpt>
      <trkpt lat="43.64489" lon="1.1827">
        <ele>186.19999694824</ele>
        <time>2013-12-22T08:10:33.000Z</time>
      </trkpt>
      <trkpt lat="43.6449" lon="1.1826">
        <ele>185.19999694824</ele>
        <time>2013-12-22T08:10:36.000Z</time>
      </trkpt>
      <trkpt lat="43.64495" lon="1.18234">
        <ele>183.19999694824</ele>
        <time>2013-12-22T08:10:43.000Z</time>
      </trkpt>
      <trkpt lat="43.645" lon="1.18211">
        <ele>181.60000610352</ele>
        <time>2013-12-22T08:10:49.000Z</time>
      </trkpt>
      <trkpt lat="43.64504" lon="1.18191">
        <ele>180.39999389648</ele>
        <time>2013-12-22T08:10:54.000Z</time>
      </trkpt>
      <trkpt lat="43.64506" lon="1.18167">
        <ele>179</ele>
        <time>2013-12-22T08:11:00.000Z</time>
      </trkpt>
      <trkpt lat="43.64504" lon="1.18149">
        <ele>178.39999389648</ele>
        <time>2013-12-22T08:11:05.000Z</time>
      </trkpt>
      <trkpt lat="43.64489" lon="1.18128">
        <ele>178</ele>
        <time>2013-12-22T08:11:12.000Z</time>
      </trkpt>
      <trkpt lat="43.64474" lon="1.18111">
        <ele>177.80000305176</ele>
        <time>2013-12-22T08:11:19.000Z</time>
      </trkpt>
      <trkpt lat="43.64459" lon="1.18093">
        <ele>177.39999389648</ele>
        <time>2013-12-22T08:11:26.000Z</time>
      </trkpt>
      <trkpt lat="43.64445" lon="1.18076">
        <ele>177</ele>
        <time>2013-12-22T08:11:33.000Z</time>
      </trkpt>
      <trkpt lat="43.64433" lon="1.18063">
        <ele>176.39999389648</ele>
        <time>2013-12-22T08:11:38.000Z</time>
      </trkpt>
      <trkpt lat="43.64418" lon="1.18047">
        <ele>175.80000305176</ele>
        <time>2013-12-22T08:11:45.000Z</time>
      </trkpt>
      <trkpt lat="43.64405" lon="1.18033">
        <ele>175.80000305176</ele>
        <time>2013-12-22T08:11:51.000Z</time>
      </trkpt>
      <trkpt lat="43.6439" lon="1.18018">
        <ele>175.80000305176</ele>
        <time>2013-12-22T08:11:58.000Z</time>
      </trkpt>
      <trkpt lat="43.64375" lon="1.18003">
        <ele>175.60000610352</ele>
        <time>2013-12-22T08:12:05.000Z</time>
      </trkpt>
      <trkpt lat="43.6436" lon="1.17989">
        <ele>175.80000305176</ele>
        <time>2013-12-22T08:12:12.000Z</time>
      </trkpt>
      <trkpt lat="43.64348" lon="1.17978">
        <ele>175.80000305176</ele>
        <time>2013-12-22T08:12:18.000Z</time>
      </trkpt>
      <trkpt lat="43.64342" lon="1.17973">
        <ele>176</ele>
        <time>2013-12-22T08:12:29.000Z</time>
      </trkpt>
      <trkpt lat="43.64326" lon="1.17959">
        <ele>175.80000305176</ele>
        <time>2013-12-22T08:12:35.000Z</time>
      </trkpt>
      <trkpt lat="43.64309" lon="1.17943">
        <ele>175.19999694824</ele>
        <time>2013-12-22T08:12:41.000Z</time>
      </trkpt>
      <trkpt lat="43.64297" lon="1.17928">
        <ele>174.60000610352</ele>
        <time>2013-12-22T08:12:46.000Z</time>
      </trkpt>
      <trkpt lat="43.64284" lon="1.17908">
        <ele>173.80000305176</ele>
        <time>2013-12-22T08:12:52.000Z</time>
      </trkpt>
      <trkpt lat="43.64271" lon="1.17888">
        <ele>173.19999694824</ele>
        <time>2013-12-22T08:12:58.000Z</time>
      </trkpt>
      <trkpt lat="43.6426" lon="1.17872">
        <ele>173</ele>
        <time>2013-12-22T08:13:03.000Z</time>
      </trkpt>
      <trkpt lat="43.6425" lon="1.17854">
        <ele>172.80000305176</ele>
        <time>2013-12-22T08:13:09.000Z</time>
      </trkpt>
      <trkpt lat="43.64239" lon="1.17838">
        <ele>172.39999389648</ele>
        <time>2013-12-22T08:13:15.000Z</time>
      </trkpt>
      <trkpt lat="43.64225" lon="1.17813">
        <ele>171.39999389648</ele>
        <time>2013-12-22T08:13:23.000Z</time>
      </trkpt>
      <trkpt lat="43.64214" lon="1.17797">
        <ele>171</ele>
        <time>2013-12-22T08:13:29.000Z</time>
      </trkpt>
      <trkpt lat="43.64201" lon="1.17778">
        <ele>170.80000305176</ele>
        <time>2013-12-22T08:13:35.000Z</time>
      </trkpt>
      <trkpt lat="43.64192" lon="1.17764">
        <ele>170.80000305176</ele>
        <time>2013-12-22T08:13:40.000Z</time>
      </trkpt>
      <trkpt lat="43.6418" lon="1.17746">
        <ele>171</ele>
        <time>2013-12-22T08:13:46.000Z</time>
      </trkpt>
      <trkpt lat="43.64171" lon="1.1773">
        <ele>171.19999694824</ele>
        <time>2013-12-22T08:13:51.000Z</time>
      </trkpt>
      <trkpt lat="43.6416" lon="1.17713">
        <ele>171.39999389648</ele>
        <time>2013-12-22T08:13:57.000Z</time>
      </trkpt>
      <trkpt lat="43.64148" lon="1.17695">
        <ele>171.39999389648</ele>
        <time>2013-12-22T08:14:04.000Z</time>
      </trkpt>
      <trkpt lat="43.64137" lon="1.17678">
        <ele>171.39999389648</ele>
        <time>2013-12-22T08:14:10.000Z</time>
      </trkpt>
      <trkpt lat="43.64127" lon="1.1766">
        <ele>171.19999694824</ele>
        <time>2013-12-22T08:14:16.000Z</time>
      </trkpt>
      <trkpt lat="43.64122" lon="1.17644">
        <ele>170.80000305176</ele>
        <time>2013-12-22T08:14:21.000Z</time>
      </trkpt>
      <trkpt lat="43.64117" lon="1.17619">
        <ele>170.19999694824</ele>
        <time>2013-12-22T08:14:28.000Z</time>
      </trkpt>
      <trkpt lat="43.64113" lon="1.17596">
        <ele>169.60000610352</ele>
        <time>2013-12-22T08:14:34.000Z</time>
      </trkpt>
      <trkpt lat="43.64108" lon="1.17574">
        <ele>169.60000610352</ele>
        <time>2013-12-22T08:14:40.000Z</time>
      </trkpt>
      <trkpt lat="43.64103" lon="1.17548">
        <ele>170</ele>
        <time>2013-12-22T08:14:47.000Z</time>
      </trkpt>
      <trkpt lat="43.64098" lon="1.17526">
        <ele>170.19999694824</ele>
        <time>2013-12-22T08:14:53.000Z</time>
      </trkpt>
      <trkpt lat="43.64094" lon="1.17504">
        <ele>170.39999389648</ele>
        <time>2013-12-22T08:14:59.000Z</time>
      </trkpt>
      <trkpt lat="43.6409" lon="1.17482">
        <ele>171</ele>
        <time>2013-12-22T08:15:05.000Z</time>
      </trkpt>
      <trkpt lat="43.64085" lon="1.17457">
        <ele>171.39999389648</ele>
        <time>2013-12-22T08:15:12.000Z</time>
      </trkpt>
      <trkpt lat="43.64081" lon="1.17436">
        <ele>171.80000305176</ele>
        <time>2013-12-22T08:15:18.000Z</time>
      </trkpt>
      <trkpt lat="43.64075" lon="1.17411">
        <ele>172</ele>
        <time>2013-12-22T08:15:25.000Z</time>
      </trkpt>
      <trkpt lat="43.64067" lon="1.17386">
        <ele>172.19999694824</ele>
        <time>2013-12-22T08:15:32.000Z</time>
      </trkpt>
      <trkpt lat="43.64059" lon="1.17362">
        <ele>172.19999694824</ele>
        <time>2013-12-22T08:15:39.000Z</time>
      </trkpt>
      <trkpt lat="43.6405" lon="1.17337">
        <ele>172.39999389648</ele>
        <time>2013-12-22T08:15:46.000Z</time>
      </trkpt>
      <trkpt lat="43.64044" lon="1.17318">
        <ele>172</ele>
        <time>2013-12-22T08:15:52.000Z</time>
      </trkpt>
      <trkpt lat="43.64039" lon="1.17302">
        <ele>171.80000305176</ele>
        <time>2013-12-22T08:15:57.000Z</time>
      </trkpt>
      <trkpt lat="43.64046" lon="1.17292">
        <ele>171.39999389648</ele>
        <time>2013-12-22T08:16:01.000Z</time>
      </trkpt>
      <trkpt lat="43.64052" lon="1.17285">
        <ele>171.19999694824</ele>
        <time>2013-12-22T08:16:04.000Z</time>
      </trkpt>
      <trkpt lat="43.64062" lon="1.17268">
        <ele>170.60000610352</ele>
        <time>2013-12-22T08:16:09.000Z</time>
      </trkpt>
      <trkpt lat="43.64071" lon="1.17252">
        <ele>170.19999694824</ele>
        <time>2013-12-22T08:16:14.000Z</time>
      </trkpt>
      <trkpt lat="43.6408" lon="1.17233">
        <ele>169.60000610352</ele>
        <time>2013-12-22T08:16:20.000Z</time>
      </trkpt>
      <trkpt lat="43.6409" lon="1.17211">
        <ele>169</ele>
        <time>2013-12-22T08:16:27.000Z</time>
      </trkpt>
      <trkpt lat="43.64101" lon="1.17191">
        <ele>168.19999694824</ele>
        <time>2013-12-22T08:16:34.000Z</time>
      </trkpt>
      <trkpt lat="43.64109" lon="1.17175">
        <ele>167.80000305176</ele>
        <time>2013-12-22T08:16:39.000Z</time>
      </trkpt>
      <trkpt lat="43.64115" lon="1.17162">
        <ele>167.60000610352</ele>
        <time>2013-12-22T08:16:43.000Z</time>
      </trkpt>
      <trkpt lat="43.64126" lon="1.17142">
        <ele>166.80000305176</ele>
        <time>2013-12-22T08:16:50.000Z</time>
      </trkpt>
      <trkpt lat="43.64135" lon="1.17127">
        <ele>166.39999389648</ele>
        <time>2013-12-22T08:16:55.000Z</time>
      </trkpt>
      <trkpt lat="43.64144" lon="1.17108">
        <ele>165.60000610352</ele>
        <time>2013-12-22T08:17:01.000Z</time>
      </trkpt>
      <trkpt lat="43.64155" lon="1.17085">
        <ele>164.39999389648</ele>
        <time>2013-12-22T08:17:08.000Z</time>
      </trkpt>
      <trkpt lat="43.64167" lon="1.17064">
        <ele>162.80000305176</ele>
        <time>2013-12-22T08:17:15.000Z</time>
      </trkpt>
      <trkpt lat="43.64181" lon="1.17037">
        <ele>160.80000305176</ele>
        <time>2013-12-22T08:17:24.000Z</time>
      </trkpt>
      <trkpt lat="43.64191" lon="1.17018">
        <ele>159.80000305176</ele>
        <time>2013-12-22T08:17:30.000Z</time>
      </trkpt>
      <trkpt lat="43.64203" lon="1.16998">
        <ele>159</ele>
        <time>2013-12-22T08:17:37.000Z</time>
      </trkpt>
      <trkpt lat="43.64213" lon="1.1698">
        <ele>158.60000610352</ele>
        <time>2013-12-22T08:17:43.000Z</time>
      </trkpt>
      <trkpt lat="43.64225" lon="1.16959">
        <ele>158.19999694824</ele>
        <time>2013-12-22T08:17:50.000Z</time>
      </trkpt>
      <trkpt lat="43.64233" lon="1.16944">
        <ele>157.80000305176</ele>
        <time>2013-12-22T08:17:55.000Z</time>
      </trkpt>
      <trkpt lat="43.64243" lon="1.16924">
        <ele>157.19999694824</ele>
        <time>2013-12-22T08:18:02.000Z</time>
      </trkpt>
      <trkpt lat="43.64251" lon="1.16908">
        <ele>157</ele>
        <time>2013-12-22T08:18:07.000Z</time>
      </trkpt>
      <trkpt lat="43.64256" lon="1.16901">
        <ele>156.80000305176</ele>
        <time>2013-12-22T08:18:10.000Z</time>
      </trkpt>
      <trkpt lat="43.64254" lon="1.16891">
        <ele>156.80000305176</ele>
        <time>2013-12-22T08:18:14.000Z</time>
      </trkpt>
      <trkpt lat="43.6425" lon="1.16886">
        <ele>157</ele>
        <time>2013-12-22T08:18:16.000Z</time>
      </trkpt>
      <trkpt lat="43.64237" lon="1.16872">
        <ele>157.19999694824</ele>
        <time>2013-12-22T08:18:22.000Z</time>
      </trkpt>
      <trkpt lat="43.64223" lon="1.16857">
        <ele>157.60000610352</ele>
        <time>2013-12-22T08:18:29.000Z</time>
      </trkpt>
      <trkpt lat="43.64212" lon="1.16842">
        <ele>157.80000305176</ele>
        <time>2013-12-22T08:18:35.000Z</time>
      </trkpt>
      <trkpt lat="43.64197" lon="1.16824">
        <ele>158.39999389648</ele>
        <time>2013-12-22T08:18:43.000Z</time>
      </trkpt>
      <trkpt lat="43.64185" lon="1.16808">
        <ele>159.19999694824</ele>
        <time>2013-12-22T08:18:50.000Z</time>
      </trkpt>
      <trkpt lat="43.64175" lon="1.16795">
        <ele>160</ele>
        <time>2013-12-22T08:18:55.000Z</time>
      </trkpt>
      <trkpt lat="43.6416" lon="1.16776">
        <ele>161.19999694824</ele>
        <time>2013-12-22T08:19:03.000Z</time>
      </trkpt>
      <trkpt lat="43.64147" lon="1.1676">
        <ele>162</ele>
        <time>2013-12-22T08:19:10.000Z</time>
      </trkpt>
      <trkpt lat="43.64135" lon="1.16747">
        <ele>162.19999694824</ele>
        <time>2013-12-22T08:19:16.000Z</time>
      </trkpt>
      <trkpt lat="43.64124" lon="1.16731">
        <ele>161.80000305176</ele>
        <time>2013-12-22T08:19:22.000Z</time>
      </trkpt>
      <trkpt lat="43.64111" lon="1.16715">
        <ele>161.39999389648</ele>
        <time>2013-12-22T08:19:29.000Z</time>
      </trkpt>
      <trkpt lat="43.64099" lon="1.16701">
        <ele>161</ele>
        <time>2013-12-22T08:19:35.000Z</time>
      </trkpt>
      <trkpt lat="43.64086" lon="1.16683">
        <ele>160.60000610352</ele>
        <time>2013-12-22T08:19:42.000Z</time>
      </trkpt>
      <trkpt lat="43.64073" lon="1.16665">
        <ele>160.39999389648</ele>
        <time>2013-12-22T08:19:49.000Z</time>
      </trkpt>
      <trkpt lat="43.64071" lon="1.16663">
        <ele>160.60000610352</ele>
        <time>2013-12-22T08:19:50.000Z</time>
      </trkpt>
      <trkpt lat="43.64058" lon="1.16668">
        <ele>161.19999694824</ele>
        <time>2013-12-22T08:19:56.000Z</time>
      </trkpt>
      <trkpt lat="43.64046" lon="1.16677">
        <ele>162</ele>
        <time>2013-12-22T08:20:02.000Z</time>
      </trkpt>
      <trkpt lat="43.64034" lon="1.16686">
        <ele>162.60000610352</ele>
        <time>2013-12-22T08:20:07.000Z</time>
      </trkpt>
      <trkpt lat="43.64019" lon="1.16695">
        <ele>163.39999389648</ele>
        <time>2013-12-22T08:20:14.000Z</time>
      </trkpt>
      <trkpt lat="43.64006" lon="1.16702">
        <ele>163.80000305176</ele>
        <time>2013-12-22T08:20:19.000Z</time>
      </trkpt>
      <trkpt lat="43.63989" lon="1.16706">
        <ele>164.19999694824</ele>
        <time>2013-12-22T08:20:26.000Z</time>
      </trkpt>
      <trkpt lat="43.63976" lon="1.16711">
        <ele>164.39999389648</ele>
        <time>2013-12-22T08:20:31.000Z</time>
      </trkpt>
      <trkpt lat="43.63959" lon="1.1672">
        <ele>164.60000610352</ele>
        <time>2013-12-22T08:20:39.000Z</time>
      </trkpt>
      <trkpt lat="43.6395" lon="1.16727">
        <ele>164.80000305176</ele>
        <time>2013-12-22T08:20:43.000Z</time>
      </trkpt>
      <trkpt lat="43.63935" lon="1.16736">
        <ele>165.19999694824</ele>
        <time>2013-12-22T08:20:49.000Z</time>
      </trkpt>
      <trkpt lat="43.63924" lon="1.16748">
        <ele>165.80000305176</ele>
        <time>2013-12-22T08:20:55.000Z</time>
      </trkpt>
      <trkpt lat="43.63909" lon="1.16763">
        <ele>166.39999389648</ele>
        <time>2013-12-22T08:21:02.000Z</time>
      </trkpt>
      <trkpt lat="43.63896" lon="1.16777">
        <ele>167.19999694824</ele>
        <time>2013-12-22T08:21:09.000Z</time>
      </trkpt>
      <trkpt lat="43.63883" lon="1.16787">
        <ele>167.60000610352</ele>
        <time>2013-12-22T08:21:15.000Z</time>
      </trkpt>
      <trkpt lat="43.63874" lon="1.16794">
        <ele>168</ele>
        <time>2013-12-22T08:21:20.000Z</time>
      </trkpt>
      <trkpt lat="43.63865" lon="1.16802">
        <ele>168.39999389648</ele>
        <time>2013-12-22T08:21:24.000Z</time>
      </trkpt>
      <trkpt lat="43.63856" lon="1.1681">
        <ele>168.60000610352</ele>
        <time>2013-12-22T08:21:28.000Z</time>
      </trkpt>
      <trkpt lat="43.63854" lon="1.16818">
        <ele>168.60000610352</ele>
        <time>2013-12-22T08:21:32.000Z</time>
      </trkpt>
      <trkpt lat="43.63858" lon="1.16837">
        <ele>168.39999389648</ele>
        <time>2013-12-22T08:21:37.000Z</time>
      </trkpt>
      <trkpt lat="43.63853" lon="1.16856">
        <ele>169</ele>
        <time>2013-12-22T08:21:43.000Z</time>
      </trkpt>
      <trkpt lat="43.63846" lon="1.16873">
        <ele>169.60000610352</ele>
        <time>2013-12-22T08:21:48.000Z</time>
      </trkpt>
      <trkpt lat="43.63845" lon="1.16875">
        <ele>169.60000610352</ele>
        <time>2013-12-22T08:21:49.000Z</time>
      </trkpt>
      <trkpt lat="43.63839" lon="1.16892">
        <ele>170.19999694824</ele>
        <time>2013-12-22T08:21:54.000Z</time>
      </trkpt>
      <trkpt lat="43.63835" lon="1.16906">
        <ele>170.80000305176</ele>
        <time>2013-12-22T08:21:59.000Z</time>
      </trkpt>
      <trkpt lat="43.63828" lon="1.16922">
        <ele>171.19999694824</ele>
        <time>2013-12-22T08:22:04.000Z</time>
      </trkpt>
      <trkpt lat="43.63823" lon="1.16935">
        <ele>171.60000610352</ele>
        <time>2013-12-22T08:22:08.000Z</time>
      </trkpt>
      <trkpt lat="43.63819" lon="1.16952">
        <ele>172.19999694824</ele>
        <time>2013-12-22T08:22:13.000Z</time>
      </trkpt>
      <trkpt lat="43.63818" lon="1.16954">
        <ele>172.19999694824</ele>
        <time>2013-12-22T08:22:14.000Z</time>
      </trkpt>
      <trkpt lat="43.63801" lon="1.16961">
        <ele>172.80000305176</ele>
        <time>2013-12-22T08:22:21.000Z</time>
      </trkpt>
      <trkpt lat="43.63794" lon="1.16972">
        <ele>173.19999694824</ele>
        <time>2013-12-22T08:22:25.000Z</time>
      </trkpt>
      <trkpt lat="43.6378" lon="1.16995">
        <ele>174.19999694824</ele>
        <time>2013-12-22T08:22:33.000Z</time>
      </trkpt>
      <trkpt lat="43.63772" lon="1.17008">
        <ele>174.60000610352</ele>
        <time>2013-12-22T08:22:38.000Z</time>
      </trkpt>
      <trkpt lat="43.63761" lon="1.17022">
        <ele>175</ele>
        <time>2013-12-22T08:22:44.000Z</time>
      </trkpt>
      <trkpt lat="43.63751" lon="1.17036">
        <ele>175.39999389648</ele>
        <time>2013-12-22T08:22:50.000Z</time>
      </trkpt>
      <trkpt lat="43.63741" lon="1.1705">
        <ele>175.60000610352</ele>
        <time>2013-12-22T08:22:56.000Z</time>
      </trkpt>
      <trkpt lat="43.63733" lon="1.17062">
        <ele>176</ele>
        <time>2013-12-22T08:23:01.000Z</time>
      </trkpt>
      <trkpt lat="43.63724" lon="1.17072">
        <ele>176.19999694824</ele>
        <time>2013-12-22T08:23:05.000Z</time>
      </trkpt>
      <trkpt lat="43.63723" lon="1.17074">
        <ele>176.19999694824</ele>
        <time>2013-12-22T08:23:06.000Z</time>
      </trkpt>
      <trkpt lat="43.63715" lon="1.17086">
        <ele>176.39999389648</ele>
        <time>2013-12-22T08:23:10.000Z</time>
      </trkpt>
      <trkpt lat="43.6371" lon="1.17093">
        <ele>176.39999389648</ele>
        <time>2013-12-22T08:23:13.000Z</time>
      </trkpt>
      <trkpt lat="43.63696" lon="1.17108">
        <ele>176.19999694824</ele>
        <time>2013-12-22T08:23:20.000Z</time>
      </trkpt>
      <trkpt lat="43.63684" lon="1.17124">
        <ele>176</ele>
        <time>2013-12-22T08:23:27.000Z</time>
      </trkpt>
      <trkpt lat="43.63671" lon="1.17144">
        <ele>175.60000610352</ele>
        <time>2013-12-22T08:23:34.000Z</time>
      </trkpt>
      <trkpt lat="43.63662" lon="1.17156">
        <ele>175.39999389648</ele>
        <time>2013-12-22T08:23:39.000Z</time>
      </trkpt>
      <trkpt lat="43.63653" lon="1.17169">
        <ele>175.39999389648</ele>
        <time>2013-12-22T08:23:44.000Z</time>
      </trkpt>
      <trkpt lat="43.63646" lon="1.17179">
        <ele>175.60000610352</ele>
        <time>2013-12-22T08:23:48.000Z</time>
      </trkpt>
      <trkpt lat="43.63637" lon="1.17192">
        <ele>175.80000305176</ele>
        <time>2013-12-22T08:23:53.000Z</time>
      </trkpt>
      <trkpt lat="43.63627" lon="1.17204">
        <ele>176</ele>
        <time>2013-12-22T08:23:58.000Z</time>
      </trkpt>
      <trkpt lat="43.63615" lon="1.17213">
        <ele>176.19999694824</ele>
        <time>2013-12-22T08:24:03.000Z</time>
      </trkpt>
      <trkpt lat="43.63601" lon="1.17225">
        <ele>176.19999694824</ele>
        <time>2013-12-22T08:24:09.000Z</time>
      </trkpt>
      <trkpt lat="43.63591" lon="1.17238">
        <ele>176.19999694824</ele>
        <time>2013-12-22T08:24:14.000Z</time>
      </trkpt>
      <trkpt lat="43.63582" lon="1.17252">
        <ele>176.19999694824</ele>
        <time>2013-12-22T08:24:19.000Z</time>
      </trkpt>
      <trkpt lat="43.63574" lon="1.17275">
        <ele>178</ele>
        <time>2013-12-22T08:24:26.000Z</time>
      </trkpt>
      <trkpt lat="43.63567" lon="1.17296">
        <ele>179.60000610352</ele>
        <time>2013-12-22T08:24:33.000Z</time>
      </trkpt>
      <trkpt lat="43.6356" lon="1.17312">
        <ele>180.80000305176</ele>
        <time>2013-12-22T08:24:38.000Z</time>
      </trkpt>
      <trkpt lat="43.63554" lon="1.17326">
        <ele>181.80000305176</ele>
        <time>2013-12-22T08:24:43.000Z</time>
      </trkpt>
      <trkpt lat="43.63548" lon="1.17338">
        <ele>182.80000305176</ele>
        <time>2013-12-22T08:24:48.000Z</time>
      </trkpt>
      <trkpt lat="43.63542" lon="1.17353">
        <ele>184</ele>
        <time>2013-12-22T08:24:54.000Z</time>
      </trkpt>
      <trkpt lat="43.63542" lon="1.17356">
        <ele>184.19999694824</ele>
        <time>2013-12-22T08:24:55.000Z</time>
      </trkpt>
      <trkpt lat="43.63536" lon="1.1737">
        <ele>185.19999694824</ele>
        <time>2013-12-22T08:25:01.000Z</time>
      </trkpt>
      <trkpt lat="43.63535" lon="1.17372">
        <ele>185.39999389648</ele>
        <time>2013-12-22T08:25:02.000Z</time>
      </trkpt>
      <trkpt lat="43.63526" lon="1.1739">
        <ele>186.39999389648</ele>
        <time>2013-12-22T08:25:09.000Z</time>
      </trkpt>
      <trkpt lat="43.63515" lon="1.17403">
        <ele>187</ele>
        <time>2013-12-22T08:25:15.000Z</time>
      </trkpt>
      <trkpt lat="43.635" lon="1.17412">
        <ele>186.80000305176</ele>
        <time>2013-12-22T08:25:22.000Z</time>
      </trkpt>
      <trkpt lat="43.63489" lon="1.17421">
        <ele>188.39999389648</ele>
        <time>2013-12-22T08:25:29.000Z</time>
      </trkpt>
      <trkpt lat="43.63472" lon="1.17432">
        <ele>191</ele>
        <time>2013-12-22T08:25:39.000Z</time>
      </trkpt>
      <trkpt lat="43.63468" lon="1.17439">
        <ele>192.19999694824</ele>
        <time>2013-12-22T08:25:43.000Z</time>
      </trkpt>
      <trkpt lat="43.63461" lon="1.17455">
        <ele>194.39999389648</ele>
        <time>2013-12-22T08:25:50.000Z</time>
      </trkpt>
      <trkpt lat="43.63455" lon="1.17468">
        <ele>196.39999389648</ele>
        <time>2013-12-22T08:25:57.000Z</time>
      </trkpt>
      <trkpt lat="43.63447" lon="1.17479">
        <ele>198.19999694824</ele>
        <time>2013-12-22T08:26:04.000Z</time>
      </trkpt>
      <trkpt lat="43.63441" lon="1.17486">
        <ele>199.60000610352</ele>
        <time>2013-12-22T08:26:10.000Z</time>
      </trkpt>
      <trkpt lat="43.63436" lon="1.17494">
        <ele>201</ele>
        <time>2013-12-22T08:26:15.000Z</time>
      </trkpt>
      <trkpt lat="43.63432" lon="1.17501">
        <ele>202.19999694824</ele>
        <time>2013-12-22T08:26:20.000Z</time>
      </trkpt>
      <trkpt lat="43.63431" lon="1.17504">
        <ele>202.60000610352</ele>
        <time>2013-12-22T08:26:22.000Z</time>
      </trkpt>
      <trkpt lat="43.63427" lon="1.1751">
        <ele>203.39999389648</ele>
        <time>2013-12-22T08:26:27.000Z</time>
      </trkpt>
      <trkpt lat="43.63422" lon="1.17519">
        <ele>204.39999389648</ele>
        <time>2013-12-22T08:26:33.000Z</time>
      </trkpt>
      <trkpt lat="43.63415" lon="1.1753">
        <ele>206</ele>
        <time>2013-12-22T08:26:41.000Z</time>
      </trkpt>
      <trkpt lat="43.6341" lon="1.17537">
        <ele>206.60000610352</ele>
        <time>2013-12-22T08:26:46.000Z</time>
      </trkpt>
      <trkpt lat="43.63403" lon="1.17545">
        <ele>207.60000610352</ele>
        <time>2013-12-22T08:26:52.000Z</time>
      </trkpt>
      <trkpt lat="43.63398" lon="1.17552">
        <ele>208.39999389648</ele>
        <time>2013-12-22T08:26:58.000Z</time>
      </trkpt>
      <trkpt lat="43.63396" lon="1.17555">
        <ele>208.80000305176</ele>
        <time>2013-12-22T08:27:00.000Z</time>
      </trkpt>
      <trkpt lat="43.63389" lon="1.17562">
        <ele>209.60000610352</ele>
        <time>2013-12-22T08:27:05.000Z</time>
      </trkpt>
      <trkpt lat="43.63382" lon="1.17572">
        <ele>211</ele>
        <time>2013-12-22T08:27:11.000Z</time>
      </trkpt>
      <trkpt lat="43.63376" lon="1.17579">
        <ele>212</ele>
        <time>2013-12-22T08:27:16.000Z</time>
      </trkpt>
      <trkpt lat="43.63369" lon="1.1759">
        <ele>213.19999694824</ele>
        <time>2013-12-22T08:27:23.000Z</time>
      </trkpt>
      <trkpt lat="43.63362" lon="1.176">
        <ele>214</ele>
        <time>2013-12-22T08:27:29.000Z</time>
      </trkpt>
      <trkpt lat="43.63356" lon="1.17608">
        <ele>214.80000305176</ele>
        <time>2013-12-22T08:27:34.000Z</time>
      </trkpt>
      <trkpt lat="43.6335" lon="1.17618">
        <ele>215.80000305176</ele>
        <time>2013-12-22T08:27:39.000Z</time>
      </trkpt>
      <trkpt lat="43.63341" lon="1.17631">
        <ele>217.39999389648</ele>
        <time>2013-12-22T08:27:46.000Z</time>
      </trkpt>
      <trkpt lat="43.63334" lon="1.17641">
        <ele>218.60000610352</ele>
        <time>2013-12-22T08:27:51.000Z</time>
      </trkpt>
      <trkpt lat="43.63327" lon="1.17652">
        <ele>219.39999389648</ele>
        <time>2013-12-22T08:27:56.000Z</time>
      </trkpt>
      <trkpt lat="43.6332" lon="1.17666">
        <ele>220.39999389648</ele>
        <time>2013-12-22T08:28:01.000Z</time>
      </trkpt>
      <trkpt lat="43.63309" lon="1.17686">
        <ele>221.39999389648</ele>
        <time>2013-12-22T08:28:08.000Z</time>
      </trkpt>
      <trkpt lat="43.63301" lon="1.177">
        <ele>222.60000610352</ele>
        <time>2013-12-22T08:28:14.000Z</time>
      </trkpt>
      <trkpt lat="43.63293" lon="1.17715">
        <ele>224</ele>
        <time>2013-12-22T08:28:20.000Z</time>
      </trkpt>
      <trkpt lat="43.63281" lon="1.17732">
        <ele>226.80000305176</ele>
        <time>2013-12-22T08:28:28.000Z</time>
      </trkpt>
      <trkpt lat="43.63273" lon="1.17744">
        <ele>228.80000305176</ele>
        <time>2013-12-22T08:28:34.000Z</time>
      </trkpt>
      <trkpt lat="43.63266" lon="1.17755">
        <ele>230.80000305176</ele>
        <time>2013-12-22T08:28:40.000Z</time>
      </trkpt>
      <trkpt lat="43.63263" lon="1.17767">
        <ele>232.60000610352</ele>
        <time>2013-12-22T08:28:46.000Z</time>
      </trkpt>
      <trkpt lat="43.6326" lon="1.17781">
        <ele>234.39999389648</ele>
        <time>2013-12-22T08:28:52.000Z</time>
      </trkpt>
      <trkpt lat="43.63259" lon="1.17786">
        <ele>235</ele>
        <time>2013-12-22T08:28:54.000Z</time>
      </trkpt>
      <trkpt lat="43.63258" lon="1.17794">
        <ele>235.80000305176</ele>
        <time>2013-12-22T08:28:58.000Z</time>
      </trkpt>
      <trkpt lat="43.63255" lon="1.1781">
        <ele>238</ele>
        <time>2013-12-22T08:29:06.000Z</time>
      </trkpt>
      <trkpt lat="43.63252" lon="1.17822">
        <ele>239.60000610352</ele>
        <time>2013-12-22T08:29:12.000Z</time>
      </trkpt>
      <trkpt lat="43.63249" lon="1.17835">
        <ele>241</ele>
        <time>2013-12-22T08:29:18.000Z</time>
      </trkpt>
      <trkpt lat="43.63247" lon="1.17855">
        <ele>241.39999389648</ele>
        <time>2013-12-22T08:29:26.000Z</time>
      </trkpt>
      <trkpt lat="43.63245" lon="1.17873">
        <ele>241.80000305176</ele>
        <time>2013-12-22T08:29:33.000Z</time>
      </trkpt>
      <trkpt lat="43.63241" lon="1.17889">
        <ele>242.19999694824</ele>
        <time>2013-12-22T08:29:40.000Z</time>
      </trkpt>
      <trkpt lat="43.63238" lon="1.179">
        <ele>242.60000610352</ele>
        <time>2013-12-22T08:29:45.000Z</time>
      </trkpt>
      <trkpt lat="43.63233" lon="1.17915">
        <ele>243.39999389648</ele>
        <time>2013-12-22T08:29:53.000Z</time>
      </trkpt>
      <trkpt lat="43.6323" lon="1.17921">
        <ele>243.60000610352</ele>
        <time>2013-12-22T08:29:57.000Z</time>
      </trkpt>
      <trkpt lat="43.63226" lon="1.17933">
        <ele>244.39999389648</ele>
        <time>2013-12-22T08:30:04.000Z</time>
      </trkpt>
      <trkpt lat="43.63221" lon="1.17945">
        <ele>245</ele>
        <time>2013-12-22T08:30:10.000Z</time>
      </trkpt>
      <trkpt lat="43.6322" lon="1.17948">
        <ele>245.19999694824</ele>
        <time>2013-12-22T08:30:11.000Z</time>
      </trkpt>
      <trkpt lat="43.63198" lon="1.17974">
        <ele>247</ele>
        <time>2013-12-22T08:30:24.000Z</time>
      </trkpt>
      <trkpt lat="43.63184" lon="1.17983">
        <ele>247.80000305176</ele>
        <time>2013-12-22T08:30:30.000Z</time>
      </trkpt>
      <trkpt lat="43.63172" lon="1.17989">
        <ele>248.39999389648</ele>
        <time>2013-12-22T08:30:35.000Z</time>
      </trkpt>
      <trkpt lat="43.63155" lon="1.17999">
        <ele>249</ele>
        <time>2013-12-22T08:30:42.000Z</time>
      </trkpt>
      <trkpt lat="43.63141" lon="1.18006">
        <ele>249</ele>
        <time>2013-12-22T08:30:48.000Z</time>
      </trkpt>
      <trkpt lat="43.63129" lon="1.18013">
        <ele>249.19999694824</ele>
        <time>2013-12-22T08:30:53.000Z</time>
      </trkpt>
      <trkpt lat="43.63114" lon="1.18018">
        <ele>249.19999694824</ele>
        <time>2013-12-22T08:30:59.000Z</time>
      </trkpt>
      <trkpt lat="43.63099" lon="1.18021">
        <ele>249.39999389648</ele>
        <time>2013-12-22T08:31:05.000Z</time>
      </trkpt>
      <trkpt lat="43.63081" lon="1.18026">
        <ele>249.60000610352</ele>
        <time>2013-12-22T08:31:12.000Z</time>
      </trkpt>
      <trkpt lat="43.63068" lon="1.18029">
        <ele>249.80000305176</ele>
        <time>2013-12-22T08:31:17.000Z</time>
      </trkpt>
      <trkpt lat="43.63055" lon="1.18032">
        <ele>249.80000305176</ele>
        <time>2013-12-22T08:31:22.000Z</time>
      </trkpt>
      <trkpt lat="43.63045" lon="1.18036">
        <ele>250</ele>
        <time>2013-12-22T08:31:26.000Z</time>
      </trkpt>
      <trkpt lat="43.63037" lon="1.18054">
        <ele>250.19999694824</ele>
        <time>2013-12-22T08:31:32.000Z</time>
      </trkpt>
      <trkpt lat="43.63029" lon="1.18078">
        <ele>250.39999389648</ele>
        <time>2013-12-22T08:31:40.000Z</time>
      </trkpt>
      <trkpt lat="43.63023" lon="1.18097">
        <ele>249.80000305176</ele>
        <time>2013-12-22T08:31:46.000Z</time>
      </trkpt>
      <trkpt lat="43.63018" lon="1.1811">
        <ele>249.60000610352</ele>
        <time>2013-12-22T08:31:50.000Z</time>
      </trkpt>
      <trkpt lat="43.63012" lon="1.18125">
        <ele>249</ele>
        <time>2013-12-22T08:31:55.000Z</time>
      </trkpt>
      <trkpt lat="43.63004" lon="1.18147">
        <ele>248.39999389648</ele>
        <time>2013-12-22T08:32:01.000Z</time>
      </trkpt>
      <trkpt lat="43.63002" lon="1.1815">
        <ele>248.39999389648</ele>
        <time>2013-12-22T08:32:02.000Z</time>
      </trkpt>
      <trkpt lat="43.62995" lon="1.18171">
        <ele>247.80000305176</ele>
        <time>2013-12-22T08:32:08.000Z</time>
      </trkpt>
      <trkpt lat="43.62993" lon="1.18178">
        <ele>247.39999389648</ele>
        <time>2013-12-22T08:32:12.000Z</time>
      </trkpt>
      <trkpt lat="43.6299" lon="1.18185">
        <ele>247</ele>
        <time>2013-12-22T08:32:19.000Z</time>
      </trkpt>
      <trkpt lat="43.62986" lon="1.18193">
        <ele>246.80000305176</ele>
        <time>2013-12-22T08:32:27.000Z</time>
      </trkpt>
      <trkpt lat="43.62979" lon="1.18198">
        <ele>246.39999389648</ele>
        <time>2013-12-22T08:32:34.000Z</time>
      </trkpt>
      <trkpt lat="43.62978" lon="1.182">
        <ele>246.39999389648</ele>
        <time>2013-12-22T08:32:41.000Z</time>
      </trkpt>
      <trkpt lat="43.62974" lon="1.18203">
        <ele>246.19999694824</ele>
        <time>2013-12-22T08:33:28.000Z</time>
      </trkpt>
      <trkpt lat="43.62973" lon="1.18204">
        <ele>246.19999694824</ele>
        <time>2013-12-22T08:33:34.000Z</time>
      </trkpt>
      <trkpt lat="43.62972" lon="1.18204">
        <ele>246</ele>
        <time>2013-12-22T08:33:41.000Z</time>
      </trkpt>
      <trkpt lat="43.62967" lon="1.18204">
        <ele>246</ele>
        <time>2013-12-22T08:33:55.000Z</time>
      </trkpt>
      <trkpt lat="43.62959" lon="1.18204">
        <ele>245.80000305176</ele>
        <time>2013-12-22T08:34:03.000Z</time>
      </trkpt>
      <trkpt lat="43.62952" lon="1.18201">
        <ele>245.80000305176</ele>
        <time>2013-12-22T08:34:10.000Z</time>
      </trkpt>
      <trkpt lat="43.62944" lon="1.18198">
        <ele>245.60000610352</ele>
        <time>2013-12-22T08:34:17.000Z</time>
      </trkpt>
      <trkpt lat="43.62932" lon="1.18195">
        <ele>245.39999389648</ele>
        <time>2013-12-22T08:34:27.000Z</time>
      </trkpt>
      <trkpt lat="43.62922" lon="1.18193">
        <ele>245.19999694824</ele>
        <time>2013-12-22T08:34:36.000Z</time>
      </trkpt>
      <trkpt lat="43.62912" lon="1.1819">
        <ele>244.80000305176</ele>
        <time>2013-12-22T08:34:44.000Z</time>
      </trkpt>
      <trkpt lat="43.62901" lon="1.18186">
        <ele>244.60000610352</ele>
        <time>2013-12-22T08:34:53.000Z</time>
      </trkpt>
      <trkpt lat="43.62893" lon="1.18184">
        <ele>244.39999389648</ele>
        <time>2013-12-22T08:35:00.000Z</time>
      </trkpt>
      <trkpt lat="43.62884" lon="1.1818">
        <ele>244.19999694824</ele>
        <time>2013-12-22T08:35:08.000Z</time>
      </trkpt>
      <trkpt lat="43.62874" lon="1.18177">
        <ele>244</ele>
        <time>2013-12-22T08:35:14.000Z</time>
      </trkpt>
      <trkpt lat="43.62858" lon="1.18172">
        <ele>243.60000610352</ele>
        <time>2013-12-22T08:35:20.000Z</time>
      </trkpt>
      <trkpt lat="43.62838" lon="1.18168">
        <ele>243.19999694824</ele>
        <time>2013-12-22T08:35:27.000Z</time>
      </trkpt>
      <trkpt lat="43.62824" lon="1.18163">
        <ele>243.19999694824</ele>
        <time>2013-12-22T08:35:32.000Z</time>
      </trkpt>
      <trkpt lat="43.62807" lon="1.18159">
        <ele>243.80000305176</ele>
        <time>2013-12-22T08:35:38.000Z</time>
      </trkpt>
      <trkpt lat="43.6279" lon="1.18153">
        <ele>244.19999694824</ele>
        <time>2013-12-22T08:35:44.000Z</time>
      </trkpt>
      <trkpt lat="43.62774" lon="1.18147">
        <ele>244.80000305176</ele>
        <time>2013-12-22T08:35:50.000Z</time>
      </trkpt>
      <trkpt lat="43.6276" lon="1.18143">
        <ele>245</ele>
        <time>2013-12-22T08:35:55.000Z</time>
      </trkpt>
      <trkpt lat="43.62744" lon="1.18138">
        <ele>245.80000305176</ele>
        <time>2013-12-22T08:36:01.000Z</time>
      </trkpt>
      <trkpt lat="43.62731" lon="1.18134">
        <ele>246.60000610352</ele>
        <time>2013-12-22T08:36:06.000Z</time>
      </trkpt>
      <trkpt lat="43.62716" lon="1.18129">
        <ele>247.39999389648</ele>
        <time>2013-12-22T08:36:12.000Z</time>
      </trkpt>
      <trkpt lat="43.62698" lon="1.18125">
        <ele>248.60000610352</ele>
        <time>2013-12-22T08:36:19.000Z</time>
      </trkpt>
      <trkpt lat="43.62681" lon="1.18122">
        <ele>249.60000610352</ele>
        <time>2013-12-22T08:36:26.000Z</time>
      </trkpt>
      <trkpt lat="43.62663" lon="1.18117">
        <ele>250.80000305176</ele>
        <time>2013-12-22T08:36:33.000Z</time>
      </trkpt>
      <trkpt lat="43.6265" lon="1.18114">
        <ele>251.80000305176</ele>
        <time>2013-12-22T08:36:38.000Z</time>
      </trkpt>
      <trkpt lat="43.62631" lon="1.1811">
        <ele>253</ele>
        <time>2013-12-22T08:36:46.000Z</time>
      </trkpt>
      <trkpt lat="43.62617" lon="1.18107">
        <ele>254</ele>
        <time>2013-12-22T08:36:52.000Z</time>
      </trkpt>
      <trkpt lat="43.62601" lon="1.18104">
        <ele>255</ele>
        <time>2013-12-22T08:36:59.000Z</time>
      </trkpt>
      <trkpt lat="43.6259" lon="1.18099">
        <ele>255.80000305176</ele>
        <time>2013-12-22T08:37:05.000Z</time>
      </trkpt>
      <trkpt lat="43.62578" lon="1.18093">
        <ele>256.79998779297</ele>
        <time>2013-12-22T08:37:11.000Z</time>
      </trkpt>
      <trkpt lat="43.62567" lon="1.18085">
        <ele>257.79998779297</ele>
        <time>2013-12-22T08:37:17.000Z</time>
      </trkpt>
      <trkpt lat="43.62553" lon="1.18073">
        <ele>259</ele>
        <time>2013-12-22T08:37:25.000Z</time>
      </trkpt>
      <trkpt lat="43.62547" lon="1.18069">
        <ele>259.60000610352</ele>
        <time>2013-12-22T08:37:28.000Z</time>
      </trkpt>
      <trkpt lat="43.62539" lon="1.18063">
        <ele>260.20001220703</ele>
        <time>2013-12-22T08:37:32.000Z</time>
      </trkpt>
      <trkpt lat="43.62524" lon="1.18054">
        <ele>261.20001220703</ele>
        <time>2013-12-22T08:37:39.000Z</time>
      </trkpt>
      <trkpt lat="43.62514" lon="1.18047">
        <ele>262</ele>
        <time>2013-12-22T08:37:44.000Z</time>
      </trkpt>
      <trkpt lat="43.62501" lon="1.18039">
        <ele>262.79998779297</ele>
        <time>2013-12-22T08:37:50.000Z</time>
      </trkpt>
      <trkpt lat="43.62484" lon="1.18029">
        <ele>262.60000610352</ele>
        <time>2013-12-22T08:37:58.000Z</time>
      </trkpt>
      <trkpt lat="43.62465" lon="1.18019">
        <ele>262.39999389648</ele>
        <time>2013-12-22T08:38:06.000Z</time>
      </trkpt>
      <trkpt lat="43.6245" lon="1.18014">
        <ele>262.20001220703</ele>
        <time>2013-12-22T08:38:12.000Z</time>
      </trkpt>
      <trkpt lat="43.62432" lon="1.18009">
        <ele>262.20001220703</ele>
        <time>2013-12-22T08:38:19.000Z</time>
      </trkpt>
      <trkpt lat="43.62413" lon="1.18007">
        <ele>262.20001220703</ele>
        <time>2013-12-22T08:38:26.000Z</time>
      </trkpt>
      <trkpt lat="43.62401" lon="1.18006">
        <ele>262</ele>
        <time>2013-12-22T08:38:31.000Z</time>
      </trkpt>
      <trkpt lat="43.62395" lon="1.18006">
        <ele>262</ele>
        <time>2013-12-22T08:38:33.000Z</time>
      </trkpt>
      <trkpt lat="43.62386" lon="1.18022">
        <ele>262.39999389648</ele>
        <time>2013-12-22T08:38:40.000Z</time>
      </trkpt>
      <trkpt lat="43.62385" lon="1.18025">
        <ele>262.39999389648</ele>
        <time>2013-12-22T08:38:41.000Z</time>
      </trkpt>
      <trkpt lat="43.62379" lon="1.18049">
        <ele>263</ele>
        <time>2013-12-22T08:38:49.000Z</time>
      </trkpt>
      <trkpt lat="43.62374" lon="1.18068">
        <ele>263.60000610352</ele>
        <time>2013-12-22T08:38:55.000Z</time>
      </trkpt>
      <trkpt lat="43.62369" lon="1.1809">
        <ele>264</ele>
        <time>2013-12-22T08:39:02.000Z</time>
      </trkpt>
      <trkpt lat="43.62365" lon="1.18109">
        <ele>264.60000610352</ele>
        <time>2013-12-22T08:39:08.000Z</time>
      </trkpt>
      <trkpt lat="43.6236" lon="1.18128">
        <ele>265.39999389648</ele>
        <time>2013-12-22T08:39:14.000Z</time>
      </trkpt>
      <trkpt lat="43.62355" lon="1.18149">
        <ele>266.39999389648</ele>
        <time>2013-12-22T08:39:20.000Z</time>
      </trkpt>
      <trkpt lat="43.6235" lon="1.1817">
        <ele>267.20001220703</ele>
        <time>2013-12-22T08:39:26.000Z</time>
      </trkpt>
      <trkpt lat="43.62343" lon="1.18191">
        <ele>267.60000610352</ele>
        <time>2013-12-22T08:39:32.000Z</time>
      </trkpt>
      <trkpt lat="43.62337" lon="1.18209">
        <ele>268</ele>
        <time>2013-12-22T08:39:37.000Z</time>
      </trkpt>
      <trkpt lat="43.62334" lon="1.18232">
        <ele>268.60000610352</ele>
        <time>2013-12-22T08:39:43.000Z</time>
      </trkpt>
      <trkpt lat="43.62329" lon="1.18253">
        <ele>268.60000610352</ele>
        <time>2013-12-22T08:39:49.000Z</time>
      </trkpt>
      <trkpt lat="43.62329" lon="1.1826">
        <ele>268.20001220703</ele>
        <time>2013-12-22T08:39:51.000Z</time>
      </trkpt>
      <trkpt lat="43.62335" lon="1.18268">
        <ele>268</ele>
        <time>2013-12-22T08:39:55.000Z</time>
      </trkpt>
      <trkpt lat="43.62338" lon="1.1827">
        <ele>268</ele>
        <time>2013-12-22T08:39:56.000Z</time>
      </trkpt>
      <trkpt lat="43.62353" lon="1.18277">
        <ele>267.39999389648</ele>
        <time>2013-12-22T08:40:02.000Z</time>
      </trkpt>
      <trkpt lat="43.62371" lon="1.18286">
        <ele>266.79998779297</ele>
        <time>2013-12-22T08:40:09.000Z</time>
      </trkpt>
      <trkpt lat="43.62386" lon="1.18295">
        <ele>266.20001220703</ele>
        <time>2013-12-22T08:40:15.000Z</time>
      </trkpt>
      <trkpt lat="43.62397" lon="1.18302">
        <ele>266</ele>
        <time>2013-12-22T08:40:20.000Z</time>
      </trkpt>
      <trkpt lat="43.62411" lon="1.18309">
        <ele>265.60000610352</ele>
        <time>2013-12-22T08:40:25.000Z</time>
      </trkpt>
      <trkpt lat="43.62425" lon="1.18316">
        <ele>265.20001220703</ele>
        <time>2013-12-22T08:40:31.000Z</time>
      </trkpt>
      <trkpt lat="43.62437" lon="1.18324">
        <ele>264.79998779297</ele>
        <time>2013-12-22T08:40:36.000Z</time>
      </trkpt>
      <trkpt lat="43.62439" lon="1.18334">
        <ele>264.39999389648</ele>
        <time>2013-12-22T08:40:39.000Z</time>
      </trkpt>
      <trkpt lat="43.62435" lon="1.18349">
        <ele>264.20001220703</ele>
        <time>2013-12-22T08:40:44.000Z</time>
      </trkpt>
      <trkpt lat="43.62434" lon="1.18352">
        <ele>264.20001220703</ele>
        <time>2013-12-22T08:40:45.000Z</time>
      </trkpt>
      <trkpt lat="43.62426" lon="1.18369">
        <ele>264</ele>
        <time>2013-12-22T08:40:51.000Z</time>
      </trkpt>
      <trkpt lat="43.62419" lon="1.18388">
        <ele>263.60000610352</ele>
        <time>2013-12-22T08:40:57.000Z</time>
      </trkpt>
      <trkpt lat="43.62412" lon="1.18403">
        <ele>263.20001220703</ele>
        <time>2013-12-22T08:41:02.000Z</time>
      </trkpt>
      <trkpt lat="43.62405" lon="1.18418">
        <ele>262.60000610352</ele>
        <time>2013-12-22T08:41:07.000Z</time>
      </trkpt>
      <trkpt lat="43.62398" lon="1.18432">
        <ele>262.20001220703</ele>
        <time>2013-12-22T08:41:12.000Z</time>
      </trkpt>
      <trkpt lat="43.62388" lon="1.18447">
        <ele>262</ele>
        <time>2013-12-22T08:41:17.000Z</time>
      </trkpt>
      <trkpt lat="43.62379" lon="1.18461">
        <ele>261.79998779297</ele>
        <time>2013-12-22T08:41:22.000Z</time>
      </trkpt>
      <trkpt lat="43.62372" lon="1.18478">
        <ele>261.60000610352</ele>
        <time>2013-12-22T08:41:27.000Z</time>
      </trkpt>
      <trkpt lat="43.6236" lon="1.18499">
        <ele>261.60000610352</ele>
        <time>2013-12-22T08:41:34.000Z</time>
      </trkpt>
      <trkpt lat="43.62349" lon="1.18518">
        <ele>261.79998779297</ele>
        <time>2013-12-22T08:41:40.000Z</time>
      </trkpt>
      <trkpt lat="43.62342" lon="1.18535">
        <ele>262.20001220703</ele>
        <time>2013-12-22T08:41:45.000Z</time>
      </trkpt>
      <trkpt lat="43.62333" lon="1.18551">
        <ele>262.60000610352</ele>
        <time>2013-12-22T08:41:50.000Z</time>
      </trkpt>
      <trkpt lat="43.62323" lon="1.18566">
        <ele>261.79998779297</ele>
        <time>2013-12-22T08:41:55.000Z</time>
      </trkpt>
      <trkpt lat="43.62315" lon="1.1858">
        <ele>261.20001220703</ele>
        <time>2013-12-22T08:42:00.000Z</time>
      </trkpt>
      <trkpt lat="43.62306" lon="1.18592">
        <ele>260.20001220703</ele>
        <time>2013-12-22T08:42:04.000Z</time>
      </trkpt>
      <trkpt lat="43.62295" lon="1.18611">
        <ele>259</ele>
        <time>2013-12-22T08:42:10.000Z</time>
      </trkpt>
      <trkpt lat="43.62286" lon="1.18627">
        <ele>257.79998779297</ele>
        <time>2013-12-22T08:42:15.000Z</time>
      </trkpt>
      <trkpt lat="43.62265" lon="1.18665">
        <ele>255.39999389648</ele>
        <time>2013-12-22T08:42:27.000Z</time>
      </trkpt>
      <trkpt lat="43.62254" lon="1.18683">
        <ele>254.80000305176</ele>
        <time>2013-12-22T08:42:33.000Z</time>
      </trkpt>
      <trkpt lat="43.62245" lon="1.18697">
        <ele>254.39999389648</ele>
        <time>2013-12-22T08:42:38.000Z</time>
      </trkpt>
      <trkpt lat="43.62236" lon="1.18713">
        <ele>254.19999694824</ele>
        <time>2013-12-22T08:42:43.000Z</time>
      </trkpt>
      <trkpt lat="43.62227" lon="1.18723">
        <ele>253.80000305176</ele>
        <time>2013-12-22T08:42:47.000Z</time>
      </trkpt>
      <trkpt lat="43.62216" lon="1.18731">
        <ele>253.39999389648</ele>
        <time>2013-12-22T08:42:51.000Z</time>
      </trkpt>
      <trkpt lat="43.62203" lon="1.18739">
        <ele>252.80000305176</ele>
        <time>2013-12-22T08:42:56.000Z</time>
      </trkpt>
      <trkpt lat="43.6219" lon="1.18746">
        <ele>252.19999694824</ele>
        <time>2013-12-22T08:43:01.000Z</time>
      </trkpt>
      <trkpt lat="43.62175" lon="1.18756">
        <ele>251.60000610352</ele>
        <time>2013-12-22T08:43:07.000Z</time>
      </trkpt>
      <trkpt lat="43.62173" lon="1.18757">
        <ele>251.60000610352</ele>
        <time>2013-12-22T08:43:08.000Z</time>
      </trkpt>
      <trkpt lat="43.6216" lon="1.18766">
        <ele>251.19999694824</ele>
        <time>2013-12-22T08:43:13.000Z</time>
      </trkpt>
      <trkpt lat="43.6215" lon="1.18772">
        <ele>250.80000305176</ele>
        <time>2013-12-22T08:43:17.000Z</time>
      </trkpt>
      <trkpt lat="43.62142" lon="1.18781">
        <ele>250.80000305176</ele>
        <time>2013-12-22T08:43:21.000Z</time>
      </trkpt>
      <trkpt lat="43.62122" lon="1.1878">
        <ele>249.60000610352</ele>
        <time>2013-12-22T08:43:28.000Z</time>
      </trkpt>
      <trkpt lat="43.62106" lon="1.18775">
        <ele>248.39999389648</ele>
        <time>2013-12-22T08:43:34.000Z</time>
      </trkpt>
      <trkpt lat="43.62091" lon="1.18772">
        <ele>247.60000610352</ele>
        <time>2013-12-22T08:43:39.000Z</time>
      </trkpt>
      <trkpt lat="43.62074" lon="1.18771">
        <ele>246.80000305176</ele>
        <time>2013-12-22T08:43:45.000Z</time>
      </trkpt>
      <trkpt lat="43.62071" lon="1.1877">
        <ele>246.60000610352</ele>
        <time>2013-12-22T08:43:46.000Z</time>
      </trkpt>
      <trkpt lat="43.62051" lon="1.18764">
        <ele>246</ele>
        <time>2013-12-22T08:43:53.000Z</time>
      </trkpt>
      <trkpt lat="43.6204" lon="1.18765">
        <ele>245.80000305176</ele>
        <time>2013-12-22T08:43:58.000Z</time>
      </trkpt>
      <trkpt lat="43.62033" lon="1.18766">
        <ele>245.60000610352</ele>
        <time>2013-12-22T08:44:02.000Z</time>
      </trkpt>
      <trkpt lat="43.62032" lon="1.18765">
        <ele>245.60000610352</ele>
        <time>2013-12-22T08:44:04.000Z</time>
      </trkpt>
      <trkpt lat="43.62028" lon="1.18763">
        <ele>245.39999389648</ele>
        <time>2013-12-22T08:44:08.000Z</time>
      </trkpt>
      <trkpt lat="43.62027" lon="1.18765">
        <ele>245.39999389648</ele>
        <time>2013-12-22T08:44:10.000Z</time>
      </trkpt>
      <trkpt lat="43.62023" lon="1.18779">
        <ele>245.39999389648</ele>
        <time>2013-12-22T08:44:14.000Z</time>
      </trkpt>
      <trkpt lat="43.62018" lon="1.18801">
        <ele>245.19999694824</ele>
        <time>2013-12-22T08:44:20.000Z</time>
      </trkpt>
      <trkpt lat="43.62012" lon="1.18821">
        <ele>244.80000305176</ele>
        <time>2013-12-22T08:44:26.000Z</time>
      </trkpt>
      <trkpt lat="43.62008" lon="1.1882">
        <ele>244.60000610352</ele>
        <time>2013-12-22T08:44:30.000Z</time>
      </trkpt>
      <trkpt lat="43.62007" lon="1.18817">
        <ele>244.60000610352</ele>
        <time>2013-12-22T08:44:32.000Z</time>
      </trkpt>
      <trkpt lat="43.62006" lon="1.18807">
        <ele>244.60000610352</ele>
        <time>2013-12-22T08:44:36.000Z</time>
      </trkpt>
      <trkpt lat="43.62007" lon="1.18805">
        <ele>244.80000305176</ele>
        <time>2013-12-22T08:44:37.000Z</time>
      </trkpt>
      <trkpt lat="43.62009" lon="1.18801">
        <ele>244.80000305176</ele>
        <time>2013-12-22T08:44:39.000Z</time>
      </trkpt>
      <trkpt lat="43.62012" lon="1.18784">
        <ele>245</ele>
        <time>2013-12-22T08:44:46.000Z</time>
      </trkpt>
      <trkpt lat="43.62013" lon="1.18778">
        <ele>245</ele>
        <time>2013-12-22T08:44:48.000Z</time>
      </trkpt>
      <trkpt lat="43.62015" lon="1.18771">
        <ele>245.19999694824</ele>
        <time>2013-12-22T08:44:51.000Z</time>
      </trkpt>
      <trkpt lat="43.62017" lon="1.18762">
        <ele>245.19999694824</ele>
        <time>2013-12-22T08:44:57.000Z</time>
      </trkpt>
      <trkpt lat="43.62017" lon="1.1876">
        <ele>245.19999694824</ele>
        <time>2013-12-22T08:44:58.000Z</time>
      </trkpt>
      <trkpt lat="43.62014" lon="1.18758">
        <ele>245.19999694824</ele>
        <time>2013-12-22T08:45:03.000Z</time>
      </trkpt>
      <trkpt lat="43.62011" lon="1.18757">
        <ele>245.19999694824</ele>
        <time>2013-12-22T08:45:05.000Z</time>
      </trkpt>
      <trkpt lat="43.62007" lon="1.18754">
        <ele>245</ele>
        <time>2013-12-22T08:45:09.000Z</time>
      </trkpt>
      <trkpt lat="43.61999" lon="1.18751">
        <ele>245</ele>
        <time>2013-12-22T08:45:15.000Z</time>
      </trkpt>
      <trkpt lat="43.61991" lon="1.18749">
        <ele>245</ele>
        <time>2013-12-22T08:45:20.000Z</time>
      </trkpt>
      <trkpt lat="43.61983" lon="1.18743">
        <ele>245</ele>
        <time>2013-12-22T08:45:26.000Z</time>
      </trkpt>
      <trkpt lat="43.61972" lon="1.18745">
        <ele>244.80000305176</ele>
        <time>2013-12-22T08:45:34.000Z</time>
      </trkpt>
      <trkpt lat="43.61968" lon="1.18744">
        <ele>244.80000305176</ele>
        <time>2013-12-22T08:45:38.000Z</time>
      </trkpt>
      <trkpt lat="43.61964" lon="1.18741">
        <ele>244.80000305176</ele>
        <time>2013-12-22T08:45:42.000Z</time>
      </trkpt>
      <trkpt lat="43.6196" lon="1.18734">
        <ele>244.80000305176</ele>
        <time>2013-12-22T08:45:47.000Z</time>
      </trkpt>
      <trkpt lat="43.61955" lon="1.18734">
        <ele>244.80000305176</ele>
        <time>2013-12-22T08:45:52.000Z</time>
      </trkpt>
      <trkpt lat="43.6195" lon="1.18731">
        <ele>244.80000305176</ele>
        <time>2013-12-22T08:45:58.000Z</time>
      </trkpt>
      <trkpt lat="43.61951" lon="1.18727">
        <ele>244.80000305176</ele>
        <time>2013-12-22T08:46:03.000Z</time>
      </trkpt>
      <trkpt lat="43.6195" lon="1.1872">
        <ele>245</ele>
        <time>2013-12-22T08:46:10.000Z</time>
      </trkpt>
      <trkpt lat="43.61948" lon="1.18721">
        <ele>244.80000305176</ele>
        <time>2013-12-22T08:46:14.000Z</time>
      </trkpt>
      <trkpt lat="43.61945" lon="1.18724">
        <ele>244.80000305176</ele>
        <time>2013-12-22T08:46:18.000Z</time>
      </trkpt>
      <trkpt lat="43.61944" lon="1.18729">
        <ele>244.60000610352</ele>
        <time>2013-12-22T08:46:27.000Z</time>
      </trkpt>
      <trkpt lat="43.61943" lon="1.18729">
        <ele>244.60000610352</ele>
        <time>2013-12-22T08:46:34.000Z</time>
      </trkpt>
      <trkpt lat="43.61942" lon="1.18725">
        <ele>244.80000305176</ele>
        <time>2013-12-22T08:46:40.000Z</time>
      </trkpt>
      <trkpt lat="43.61942" lon="1.18724">
        <ele>244.80000305176</ele>
        <time>2013-12-22T08:46:41.000Z</time>
      </trkpt>
      <trkpt lat="43.61939" lon="1.18722">
        <ele>244.80000305176</ele>
        <time>2013-12-22T08:46:45.000Z</time>
      </trkpt>
      <trkpt lat="43.61939" lon="1.1872">
        <ele>244.80000305176</ele>
        <time>2013-12-22T08:46:46.000Z</time>
      </trkpt>
      <trkpt lat="43.61936" lon="1.18719">
        <ele>244.60000610352</ele>
        <time>2013-12-22T08:46:52.000Z</time>
      </trkpt>
      <trkpt lat="43.61935" lon="1.1872">
        <ele>244.60000610352</ele>
        <time>2013-12-22T08:46:56.000Z</time>
      </trkpt>
      <trkpt lat="43.61934" lon="1.1872">
        <ele>244.60000610352</ele>
        <time>2013-12-22T08:46:57.000Z</time>
      </trkpt>
      <trkpt lat="43.61931" lon="1.18722">
        <ele>244.60000610352</ele>
        <time>2013-12-22T08:47:00.000Z</time>
      </trkpt>
      <trkpt lat="43.61926" lon="1.18716">
        <ele>244.60000610352</ele>
        <time>2013-12-22T08:47:03.000Z</time>
      </trkpt>
      <trkpt lat="43.61925" lon="1.18708">
        <ele>244.60000610352</ele>
        <time>2013-12-22T08:47:06.000Z</time>
      </trkpt>
      <trkpt lat="43.61915" lon="1.18703">
        <ele>244.80000305176</ele>
        <time>2013-12-22T08:47:10.000Z</time>
      </trkpt>
      <trkpt lat="43.61912" lon="1.18704">
        <ele>245</ele>
        <time>2013-12-22T08:47:11.000Z</time>
      </trkpt>
      <trkpt lat="43.61907" lon="1.18705">
        <ele>245.39999389648</ele>
        <time>2013-12-22T08:47:13.000Z</time>
      </trkpt>
      <trkpt lat="43.61901" lon="1.18697">
        <ele>246</ele>
        <time>2013-12-22T08:47:17.000Z</time>
      </trkpt>
      <trkpt lat="43.61901" lon="1.18694">
        <ele>246</ele>
        <time>2013-12-22T08:47:18.000Z</time>
      </trkpt>
      <trkpt lat="43.61901" lon="1.18689">
        <ele>246</ele>
        <time>2013-12-22T08:47:20.000Z</time>
      </trkpt>
      <trkpt lat="43.61902" lon="1.18677">
        <ele>246</ele>
        <time>2013-12-22T08:47:24.000Z</time>
      </trkpt>
      <trkpt lat="43.61903" lon="1.18674">
        <ele>246</ele>
        <time>2013-12-22T08:47:27.000Z</time>
      </trkpt>
      <trkpt lat="43.61906" lon="1.18672">
        <ele>245.80000305176</ele>
        <time>2013-12-22T08:47:55.000Z</time>
      </trkpt>
      <trkpt lat="43.61903" lon="1.18655">
        <ele>246.19999694824</ele>
        <time>2013-12-22T08:48:00.000Z</time>
      </trkpt>
      <trkpt lat="43.61899" lon="1.18647">
        <ele>246.60000610352</ele>
        <time>2013-12-22T08:48:03.000Z</time>
      </trkpt>
      <trkpt lat="43.61896" lon="1.18637">
        <ele>247</ele>
        <time>2013-12-22T08:48:06.000Z</time>
      </trkpt>
      <trkpt lat="43.61893" lon="1.18617">
        <ele>247.19999694824</ele>
        <time>2013-12-22T08:48:13.000Z</time>
      </trkpt>
      <trkpt lat="43.61891" lon="1.18611">
        <ele>247.39999389648</ele>
        <time>2013-12-22T08:48:15.000Z</time>
      </trkpt>
      <trkpt lat="43.61886" lon="1.18602">
        <ele>247.80000305176</ele>
        <time>2013-12-22T08:48:19.000Z</time>
      </trkpt>
      <trkpt lat="43.61878" lon="1.18583">
        <ele>248.19999694824</ele>
        <time>2013-12-22T08:48:25.000Z</time>
      </trkpt>
      <trkpt lat="43.61877" lon="1.1858">
        <ele>248.39999389648</ele>
        <time>2013-12-22T08:48:26.000Z</time>
      </trkpt>
      <trkpt lat="43.61876" lon="1.18578">
        <ele>248.39999389648</ele>
        <time>2013-12-22T08:48:27.000Z</time>
      </trkpt>
      <trkpt lat="43.61868" lon="1.1856">
        <ele>248.60000610352</ele>
        <time>2013-12-22T08:48:33.000Z</time>
      </trkpt>
      <trkpt lat="43.61865" lon="1.18552">
        <ele>248.60000610352</ele>
        <time>2013-12-22T08:48:36.000Z</time>
      </trkpt>
      <trkpt lat="43.61859" lon="1.18543">
        <ele>248.80000305176</ele>
        <time>2013-12-22T08:48:40.000Z</time>
      </trkpt>
      <trkpt lat="43.61858" lon="1.18542">
        <ele>248.80000305176</ele>
        <time>2013-12-22T08:48:41.000Z</time>
      </trkpt>
      <trkpt lat="43.61851" lon="1.18534">
        <ele>249</ele>
        <time>2013-12-22T08:48:45.000Z</time>
      </trkpt>
      <trkpt lat="43.61847" lon="1.18528">
        <ele>249</ele>
        <time>2013-12-22T08:48:49.000Z</time>
      </trkpt>
      <trkpt lat="43.61845" lon="1.18519">
        <ele>249</ele>
        <time>2013-12-22T08:48:52.000Z</time>
      </trkpt>
      <trkpt lat="43.61844" lon="1.18509">
        <ele>248.80000305176</ele>
        <time>2013-12-22T08:48:55.000Z</time>
      </trkpt>
      <trkpt lat="43.61843" lon="1.18496">
        <ele>248.39999389648</ele>
        <time>2013-12-22T08:48:59.000Z</time>
      </trkpt>
      <trkpt lat="43.61841" lon="1.18493">
        <ele>248.19999694824</ele>
        <time>2013-12-22T08:49:00.000Z</time>
      </trkpt>
      <trkpt lat="43.61835" lon="1.18485">
        <ele>248</ele>
        <time>2013-12-22T08:49:03.000Z</time>
      </trkpt>
      <trkpt lat="43.61822" lon="1.18472">
        <ele>247.80000305176</ele>
        <time>2013-12-22T08:49:10.000Z</time>
      </trkpt>
      <trkpt lat="43.61813" lon="1.18461">
        <ele>247.80000305176</ele>
        <time>2013-12-22T08:49:15.000Z</time>
      </trkpt>
      <trkpt lat="43.6181" lon="1.18456">
        <ele>247.60000610352</ele>
        <time>2013-12-22T08:49:17.000Z</time>
      </trkpt>
      <trkpt lat="43.61802" lon="1.18448">
        <ele>248</ele>
        <time>2013-12-22T08:49:22.000Z</time>
      </trkpt>
      <trkpt lat="43.61796" lon="1.18442">
        <ele>248.19999694824</ele>
        <time>2013-12-22T08:49:26.000Z</time>
      </trkpt>
      <trkpt lat="43.61788" lon="1.18435">
        <ele>248.60000610352</ele>
        <time>2013-12-22T08:49:31.000Z</time>
      </trkpt>
      <trkpt lat="43.6178" lon="1.18432">
        <ele>249.19999694824</ele>
        <time>2013-12-22T08:49:35.000Z</time>
      </trkpt>
      <trkpt lat="43.61768" lon="1.18423">
        <ele>250.19999694824</ele>
        <time>2013-12-22T08:49:41.000Z</time>
      </trkpt>
      <trkpt lat="43.61762" lon="1.18414">
        <ele>250.60000610352</ele>
        <time>2013-12-22T08:49:45.000Z</time>
      </trkpt>
      <trkpt lat="43.61758" lon="1.184">
        <ele>250.39999389648</ele>
        <time>2013-12-22T08:49:50.000Z</time>
      </trkpt>
      <trkpt lat="43.61758" lon="1.18398">
        <ele>250.39999389648</ele>
        <time>2013-12-22T08:49:51.000Z</time>
      </trkpt>
      <trkpt lat="43.61748" lon="1.18387">
        <ele>250.80000305176</ele>
        <time>2013-12-22T08:49:55.000Z</time>
      </trkpt>
      <trkpt lat="43.61746" lon="1.18385">
        <ele>250.80000305176</ele>
        <time>2013-12-22T08:49:56.000Z</time>
      </trkpt>
      <trkpt lat="43.61738" lon="1.18377">
        <ele>251.19999694824</ele>
        <time>2013-12-22T08:50:00.000Z</time>
      </trkpt>
      <trkpt lat="43.61736" lon="1.18374">
        <ele>251.39999389648</ele>
        <time>2013-12-22T08:50:01.000Z</time>
      </trkpt>
      <trkpt lat="43.61728" lon="1.1836">
        <ele>251.60000610352</ele>
        <time>2013-12-22T08:50:06.000Z</time>
      </trkpt>
      <trkpt lat="43.61724" lon="1.18353">
        <ele>251.60000610352</ele>
        <time>2013-12-22T08:50:09.000Z</time>
      </trkpt>
      <trkpt lat="43.61718" lon="1.18345">
        <ele>251.80000305176</ele>
        <time>2013-12-22T08:50:14.000Z</time>
      </trkpt>
      <trkpt lat="43.61717" lon="1.18343">
        <ele>252</ele>
        <time>2013-12-22T08:50:15.000Z</time>
      </trkpt>
      <trkpt lat="43.61712" lon="1.18335">
        <ele>252.19999694824</ele>
        <time>2013-12-22T08:50:19.000Z</time>
      </trkpt>
      <trkpt lat="43.6171" lon="1.18327">
        <ele>252.19999694824</ele>
        <time>2013-12-22T08:50:21.000Z</time>
      </trkpt>
      <trkpt lat="43.61706" lon="1.18314">
        <ele>252.39999389648</ele>
        <time>2013-12-22T08:50:25.000Z</time>
      </trkpt>
      <trkpt lat="43.61704" lon="1.18307">
        <ele>252.39999389648</ele>
        <time>2013-12-22T08:50:27.000Z</time>
      </trkpt>
      <trkpt lat="43.61701" lon="1.18304">
        <ele>252.60000610352</ele>
        <time>2013-12-22T08:50:29.000Z</time>
      </trkpt>
      <trkpt lat="43.617" lon="1.18292">
        <ele>252.39999389648</ele>
        <time>2013-12-22T08:50:32.000Z</time>
      </trkpt>
      <trkpt lat="43.61696" lon="1.18273">
        <ele>252.19999694824</ele>
        <time>2013-12-22T08:50:37.000Z</time>
      </trkpt>
      <trkpt lat="43.61691" lon="1.18254">
        <ele>252</ele>
        <time>2013-12-22T08:50:43.000Z</time>
      </trkpt>
      <trkpt lat="43.6169" lon="1.18251">
        <ele>252</ele>
        <time>2013-12-22T08:50:44.000Z</time>
      </trkpt>
      <trkpt lat="43.61689" lon="1.18242">
        <ele>252</ele>
        <time>2013-12-22T08:50:48.000Z</time>
      </trkpt>
      <trkpt lat="43.61687" lon="1.18241">
        <ele>252.19999694824</ele>
        <time>2013-12-22T08:50:49.000Z</time>
      </trkpt>
      <trkpt lat="43.61679" lon="1.18231">
        <ele>252.60000610352</ele>
        <time>2013-12-22T08:50:54.000Z</time>
      </trkpt>
      <trkpt lat="43.61675" lon="1.18228">
        <ele>252.80000305176</ele>
        <time>2013-12-22T08:50:56.000Z</time>
      </trkpt>
      <trkpt lat="43.61667" lon="1.18214">
        <ele>253.39999389648</ele>
        <time>2013-12-22T08:51:01.000Z</time>
      </trkpt>
      <trkpt lat="43.61666" lon="1.1821">
        <ele>253.39999389648</ele>
        <time>2013-12-22T08:51:02.000Z</time>
      </trkpt>
      <trkpt lat="43.61664" lon="1.18203">
        <ele>253.80000305176</ele>
        <time>2013-12-22T08:51:04.000Z</time>
      </trkpt>
      <trkpt lat="43.61653" lon="1.18194">
        <ele>254.39999389648</ele>
        <time>2013-12-22T08:51:09.000Z</time>
      </trkpt>
      <trkpt lat="43.61651" lon="1.18191">
        <ele>254.39999389648</ele>
        <time>2013-12-22T08:51:10.000Z</time>
      </trkpt>
      <trkpt lat="43.6164" lon="1.18177">
        <ele>254.80000305176</ele>
        <time>2013-12-22T08:51:16.000Z</time>
      </trkpt>
      <trkpt lat="43.61631" lon="1.18162">
        <ele>254.80000305176</ele>
        <time>2013-12-22T08:51:21.000Z</time>
      </trkpt>
      <trkpt lat="43.61629" lon="1.1816">
        <ele>255</ele>
        <time>2013-12-22T08:51:22.000Z</time>
      </trkpt>
      <trkpt lat="43.61622" lon="1.18157">
        <ele>255</ele>
        <time>2013-12-22T08:51:26.000Z</time>
      </trkpt>
      <trkpt lat="43.61611" lon="1.1815">
        <ele>255.19999694824</ele>
        <time>2013-12-22T08:51:31.000Z</time>
      </trkpt>
      <trkpt lat="43.61604" lon="1.18148">
        <ele>255.19999694824</ele>
        <time>2013-12-22T08:51:34.000Z</time>
      </trkpt>
      <trkpt lat="43.61594" lon="1.18148">
        <ele>255.39999389648</ele>
        <time>2013-12-22T08:51:38.000Z</time>
      </trkpt>
      <trkpt lat="43.61588" lon="1.18146">
        <ele>255.39999389648</ele>
        <time>2013-12-22T08:51:40.000Z</time>
      </trkpt>
      <trkpt lat="43.61582" lon="1.18131">
        <ele>255.19999694824</ele>
        <time>2013-12-22T08:51:46.000Z</time>
      </trkpt>
      <trkpt lat="43.6158" lon="1.18128">
        <ele>255.19999694824</ele>
        <time>2013-12-22T08:51:47.000Z</time>
      </trkpt>
      <trkpt lat="43.61572" lon="1.18117">
        <ele>255.39999389648</ele>
        <time>2013-12-22T08:51:52.000Z</time>
      </trkpt>
      <trkpt lat="43.61571" lon="1.18115">
        <ele>255.39999389648</ele>
        <time>2013-12-22T08:51:53.000Z</time>
      </trkpt>
      <trkpt lat="43.61564" lon="1.18103">
        <ele>255.19999694824</ele>
        <time>2013-12-22T08:51:58.000Z</time>
      </trkpt>
      <trkpt lat="43.61562" lon="1.18102">
        <ele>255.39999389648</ele>
        <time>2013-12-22T08:51:59.000Z</time>
      </trkpt>
      <trkpt lat="43.6156" lon="1.18102">
        <ele>255.39999389648</ele>
        <time>2013-12-22T08:52:00.000Z</time>
      </trkpt>
      <trkpt lat="43.61557" lon="1.18104">
        <ele>255.60000610352</ele>
        <time>2013-12-22T08:52:02.000Z</time>
      </trkpt>
      <trkpt lat="43.6155" lon="1.18101">
        <ele>255.80000305176</ele>
        <time>2013-12-22T08:52:05.000Z</time>
      </trkpt>
      <trkpt lat="43.61543" lon="1.181">
        <ele>256</ele>
        <time>2013-12-22T08:52:08.000Z</time>
      </trkpt>
      <trkpt lat="43.61542" lon="1.18093">
        <ele>255.80000305176</ele>
        <time>2013-12-22T08:52:12.000Z</time>
      </trkpt>
      <trkpt lat="43.61544" lon="1.18083">
        <ele>255.39999389648</ele>
        <time>2013-12-22T08:52:16.000Z</time>
      </trkpt>
      <trkpt lat="43.61542" lon="1.18079">
        <ele>255.60000610352</ele>
        <time>2013-12-22T08:52:18.000Z</time>
      </trkpt>
      <trkpt lat="43.6154" lon="1.18077">
        <ele>255.80000305176</ele>
        <time>2013-12-22T08:52:20.000Z</time>
      </trkpt>
      <trkpt lat="43.61531" lon="1.1807">
        <ele>256.39999389648</ele>
        <time>2013-12-22T08:52:25.000Z</time>
      </trkpt>
      <trkpt lat="43.61525" lon="1.18068">
        <ele>256.39999389648</ele>
        <time>2013-12-22T08:52:28.000Z</time>
      </trkpt>
      <trkpt lat="43.61517" lon="1.18069">
        <ele>256.60000610352</ele>
        <time>2013-12-22T08:52:32.000Z</time>
      </trkpt>
      <trkpt lat="43.61513" lon="1.18068">
        <ele>256.79998779297</ele>
        <time>2013-12-22T08:52:34.000Z</time>
      </trkpt>
      <trkpt lat="43.61501" lon="1.18067">
        <ele>257</ele>
        <time>2013-12-22T08:52:40.000Z</time>
      </trkpt>
      <trkpt lat="43.61499" lon="1.18068">
        <ele>257</ele>
        <time>2013-12-22T08:52:41.000Z</time>
      </trkpt>
      <trkpt lat="43.61485" lon="1.18072">
        <ele>257.60000610352</ele>
        <time>2013-12-22T08:52:48.000Z</time>
      </trkpt>
      <trkpt lat="43.61483" lon="1.18072">
        <ele>257.79998779297</ele>
        <time>2013-12-22T08:52:49.000Z</time>
      </trkpt>
      <trkpt lat="43.61476" lon="1.18064">
        <ele>258</ele>
        <time>2013-12-22T08:52:53.000Z</time>
      </trkpt>
      <trkpt lat="43.61474" lon="1.18062">
        <ele>258</ele>
        <time>2013-12-22T08:52:54.000Z</time>
      </trkpt>
      <trkpt lat="43.61471" lon="1.18058">
        <ele>258.20001220703</ele>
        <time>2013-12-22T08:52:56.000Z</time>
      </trkpt>
      <trkpt lat="43.61471" lon="1.18047">
        <ele>258</ele>
        <time>2013-12-22T08:53:00.000Z</time>
      </trkpt>
      <trkpt lat="43.61466" lon="1.18038">
        <ele>258.20001220703</ele>
        <time>2013-12-22T08:53:04.000Z</time>
      </trkpt>
      <trkpt lat="43.61463" lon="1.18034">
        <ele>258.20001220703</ele>
        <time>2013-12-22T08:53:06.000Z</time>
      </trkpt>
      <trkpt lat="43.6146" lon="1.18029">
        <ele>258.20001220703</ele>
        <time>2013-12-22T08:53:08.000Z</time>
      </trkpt>
      <trkpt lat="43.61459" lon="1.18016">
        <ele>258.20001220703</ele>
        <time>2013-12-22T08:53:13.000Z</time>
      </trkpt>
      <trkpt lat="43.61458" lon="1.18013">
        <ele>258.20001220703</ele>
        <time>2013-12-22T08:53:14.000Z</time>
      </trkpt>
      <trkpt lat="43.61449" lon="1.18009">
        <ele>258.39999389648</ele>
        <time>2013-12-22T08:53:18.000Z</time>
      </trkpt>
      <trkpt lat="43.61445" lon="1.18006">
        <ele>258.39999389648</ele>
        <time>2013-12-22T08:53:20.000Z</time>
      </trkpt>
      <trkpt lat="43.61441" lon="1.18005">
        <ele>258.39999389648</ele>
        <time>2013-12-22T08:53:22.000Z</time>
      </trkpt>
      <trkpt lat="43.61437" lon="1.17998">
        <ele>258.60000610352</ele>
        <time>2013-12-22T08:53:25.000Z</time>
      </trkpt>
      <trkpt lat="43.61433" lon="1.17985">
        <ele>258.79998779297</ele>
        <time>2013-12-22T08:53:29.000Z</time>
      </trkpt>
      <trkpt lat="43.61432" lon="1.17983">
        <ele>258.79998779297</ele>
        <time>2013-12-22T08:53:30.000Z</time>
      </trkpt>
      <trkpt lat="43.6142" lon="1.17973">
        <ele>259</ele>
        <time>2013-12-22T08:53:35.000Z</time>
      </trkpt>
      <trkpt lat="43.61411" lon="1.1797">
        <ele>259</ele>
        <time>2013-12-22T08:53:39.000Z</time>
      </trkpt>
      <trkpt lat="43.614" lon="1.17963">
        <ele>259.20001220703</ele>
        <time>2013-12-22T08:53:44.000Z</time>
      </trkpt>
      <trkpt lat="43.61394" lon="1.17968">
        <ele>259.20001220703</ele>
        <time>2013-12-22T08:53:48.000Z</time>
      </trkpt>
      <trkpt lat="43.61385" lon="1.17963">
        <ele>259.20001220703</ele>
        <time>2013-12-22T08:53:53.000Z</time>
      </trkpt>
      <trkpt lat="43.61384" lon="1.17961">
        <ele>259.20001220703</ele>
        <time>2013-12-22T08:53:54.000Z</time>
      </trkpt>
      <trkpt lat="43.61376" lon="1.17951">
        <ele>259.20001220703</ele>
        <time>2013-12-22T08:53:59.000Z</time>
      </trkpt>
      <trkpt lat="43.61375" lon="1.17949">
        <ele>259</ele>
        <time>2013-12-22T08:54:00.000Z</time>
      </trkpt>
      <trkpt lat="43.61371" lon="1.17944">
        <ele>259</ele>
        <time>2013-12-22T08:54:03.000Z</time>
      </trkpt>
      <trkpt lat="43.61369" lon="1.17931">
        <ele>258.79998779297</ele>
        <time>2013-12-22T08:54:07.000Z</time>
      </trkpt>
      <trkpt lat="43.61362" lon="1.17922">
        <ele>258.39999389648</ele>
        <time>2013-12-22T08:54:12.000Z</time>
      </trkpt>
      <trkpt lat="43.61357" lon="1.17916">
        <ele>258.20001220703</ele>
        <time>2013-12-22T08:54:15.000Z</time>
      </trkpt>
      <trkpt lat="43.61335" lon="1.17909">
        <ele>258</ele>
        <time>2013-12-22T08:54:25.000Z</time>
      </trkpt>
      <trkpt lat="43.61334" lon="1.17906">
        <ele>257.79998779297</ele>
        <time>2013-12-22T08:54:26.000Z</time>
      </trkpt>
      <trkpt lat="43.6132" lon="1.17897">
        <ele>258.60000610352</ele>
        <time>2013-12-22T08:54:32.000Z</time>
      </trkpt>
      <trkpt lat="43.61319" lon="1.17895">
        <ele>258.79998779297</ele>
        <time>2013-12-22T08:54:33.000Z</time>
      </trkpt>
      <trkpt lat="43.61315" lon="1.1788">
        <ele>258.79998779297</ele>
        <time>2013-12-22T08:54:37.000Z</time>
      </trkpt>
      <trkpt lat="43.61314" lon="1.17867">
        <ele>258.39999389648</ele>
        <time>2013-12-22T08:54:41.000Z</time>
      </trkpt>
      <trkpt lat="43.61308" lon="1.17858">
        <ele>258.60000610352</ele>
        <time>2013-12-22T08:54:45.000Z</time>
      </trkpt>
      <trkpt lat="43.61307" lon="1.17856">
        <ele>258.60000610352</ele>
        <time>2013-12-22T08:54:46.000Z</time>
      </trkpt>
      <trkpt lat="43.61297" lon="1.17844">
        <ele>258.60000610352</ele>
        <time>2013-12-22T08:54:51.000Z</time>
      </trkpt>
      <trkpt lat="43.61292" lon="1.17834">
        <ele>258.60000610352</ele>
        <time>2013-12-22T08:54:55.000Z</time>
      </trkpt>
      <trkpt lat="43.6129" lon="1.17829">
        <ele>258.60000610352</ele>
        <time>2013-12-22T08:54:57.000Z</time>
      </trkpt>
      <trkpt lat="43.61286" lon="1.17822">
        <ele>258.79998779297</ele>
        <time>2013-12-22T08:55:00.000Z</time>
      </trkpt>
      <trkpt lat="43.61281" lon="1.17817">
        <ele>259</ele>
        <time>2013-12-22T08:55:04.000Z</time>
      </trkpt>
      <trkpt lat="43.61279" lon="1.17811">
        <ele>259.20001220703</ele>
        <time>2013-12-22T08:55:06.000Z</time>
      </trkpt>
      <trkpt lat="43.61275" lon="1.17806">
        <ele>259.39999389648</ele>
        <time>2013-12-22T08:55:08.000Z</time>
      </trkpt>
      <trkpt lat="43.61268" lon="1.17801">
        <ele>259.60000610352</ele>
        <time>2013-12-22T08:55:12.000Z</time>
      </trkpt>
      <trkpt lat="43.61266" lon="1.17801">
        <ele>259.79998779297</ele>
        <time>2013-12-22T08:55:13.000Z</time>
      </trkpt>
      <trkpt lat="43.61265" lon="1.17799">
        <ele>259.79998779297</ele>
        <time>2013-12-22T08:55:14.000Z</time>
      </trkpt>
      <trkpt lat="43.61262" lon="1.17788">
        <ele>260</ele>
        <time>2013-12-22T08:55:18.000Z</time>
      </trkpt>
      <trkpt lat="43.61261" lon="1.17786">
        <ele>260.20001220703</ele>
        <time>2013-12-22T08:55:19.000Z</time>
      </trkpt>
      <trkpt lat="43.61256" lon="1.17782">
        <ele>260.39999389648</ele>
        <time>2013-12-22T08:55:21.000Z</time>
      </trkpt>
      <trkpt lat="43.61247" lon="1.17776">
        <ele>261</ele>
        <time>2013-12-22T08:55:27.000Z</time>
      </trkpt>
      <trkpt lat="43.61245" lon="1.17775">
        <ele>261.20001220703</ele>
        <time>2013-12-22T08:55:28.000Z</time>
      </trkpt>
      <trkpt lat="43.61244" lon="1.17775">
        <ele>261.20001220703</ele>
        <time>2013-12-22T08:55:29.000Z</time>
      </trkpt>
      <trkpt lat="43.61234" lon="1.17745">
        <ele>262.20001220703</ele>
        <time>2013-12-22T08:55:38.000Z</time>
      </trkpt>
      <trkpt lat="43.61234" lon="1.1774">
        <ele>261.79998779297</ele>
        <time>2013-12-22T08:55:40.000Z</time>
      </trkpt>
      <trkpt lat="43.61233" lon="1.17727">
        <ele>261.60000610352</ele>
        <time>2013-12-22T08:55:44.000Z</time>
      </trkpt>
      <trkpt lat="43.61228" lon="1.17711">
        <ele>261.20001220703</ele>
        <time>2013-12-22T08:55:49.000Z</time>
      </trkpt>
      <trkpt lat="43.61226" lon="1.17708">
        <ele>261.20001220703</ele>
        <time>2013-12-22T08:55:50.000Z</time>
      </trkpt>
      <trkpt lat="43.61215" lon="1.17696">
        <ele>261.39999389648</ele>
        <time>2013-12-22T08:55:56.000Z</time>
      </trkpt>
      <trkpt lat="43.61207" lon="1.17686">
        <ele>261.39999389648</ele>
        <time>2013-12-22T08:56:01.000Z</time>
      </trkpt>
      <trkpt lat="43.61199" lon="1.17675">
        <ele>261.60000610352</ele>
        <time>2013-12-22T08:56:06.000Z</time>
      </trkpt>
      <trkpt lat="43.6119" lon="1.17663">
        <ele>261.39999389648</ele>
        <time>2013-12-22T08:56:11.000Z</time>
      </trkpt>
      <trkpt lat="43.61181" lon="1.17654">
        <ele>261.60000610352</ele>
        <time>2013-12-22T08:56:17.000Z</time>
      </trkpt>
      <trkpt lat="43.61179" lon="1.17652">
        <ele>261.60000610352</ele>
        <time>2013-12-22T08:56:18.000Z</time>
      </trkpt>
      <trkpt lat="43.61174" lon="1.17634">
        <ele>261.20001220703</ele>
        <time>2013-12-22T08:56:24.000Z</time>
      </trkpt>
      <trkpt lat="43.6117" lon="1.17628">
        <ele>261</ele>
        <time>2013-12-22T08:56:26.000Z</time>
      </trkpt>
      <trkpt lat="43.61165" lon="1.17615">
        <ele>260.79998779297</ele>
        <time>2013-12-22T08:56:31.000Z</time>
      </trkpt>
      <trkpt lat="43.61164" lon="1.17614">
        <ele>260.79998779297</ele>
        <time>2013-12-22T08:56:32.000Z</time>
      </trkpt>
      <trkpt lat="43.61157" lon="1.17611">
        <ele>261.20001220703</ele>
        <time>2013-12-22T08:56:34.000Z</time>
      </trkpt>
      <trkpt lat="43.61151" lon="1.17598">
        <ele>261</ele>
        <time>2013-12-22T08:56:39.000Z</time>
      </trkpt>
      <trkpt lat="43.6115" lon="1.17597">
        <ele>261</ele>
        <time>2013-12-22T08:56:40.000Z</time>
      </trkpt>
      <trkpt lat="43.61137" lon="1.17591">
        <ele>261.60000610352</ele>
        <time>2013-12-22T08:56:46.000Z</time>
      </trkpt>
      <trkpt lat="43.61135" lon="1.1759">
        <ele>261.60000610352</ele>
        <time>2013-12-22T08:56:47.000Z</time>
      </trkpt>
      <trkpt lat="43.61126" lon="1.17587">
        <ele>262.20001220703</ele>
        <time>2013-12-22T08:56:51.000Z</time>
      </trkpt>
      <trkpt lat="43.61121" lon="1.17586">
        <ele>262.39999389648</ele>
        <time>2013-12-22T08:56:53.000Z</time>
      </trkpt>
      <trkpt lat="43.61114" lon="1.17574">
        <ele>262.60000610352</ele>
        <time>2013-12-22T08:56:58.000Z</time>
      </trkpt>
      <trkpt lat="43.61113" lon="1.17571">
        <ele>262.60000610352</ele>
        <time>2013-12-22T08:56:59.000Z</time>
      </trkpt>
      <trkpt lat="43.61104" lon="1.17558">
        <ele>262.60000610352</ele>
        <time>2013-12-22T08:57:05.000Z</time>
      </trkpt>
      <trkpt lat="43.61104" lon="1.17555">
        <ele>262.60000610352</ele>
        <time>2013-12-22T08:57:06.000Z</time>
      </trkpt>
      <trkpt lat="43.61103" lon="1.1755">
        <ele>262.39999389648</ele>
        <time>2013-12-22T08:57:08.000Z</time>
      </trkpt>
      <trkpt lat="43.61098" lon="1.17532">
        <ele>262</ele>
        <time>2013-12-22T08:57:14.000Z</time>
      </trkpt>
      <trkpt lat="43.61097" lon="1.17529">
        <ele>262</ele>
        <time>2013-12-22T08:57:15.000Z</time>
      </trkpt>
      <trkpt lat="43.61092" lon="1.17512">
        <ele>261.39999389648</ele>
        <time>2013-12-22T08:57:20.000Z</time>
      </trkpt>
      <trkpt lat="43.6108" lon="1.17503">
        <ele>261.39999389648</ele>
        <time>2013-12-22T08:57:25.000Z</time>
      </trkpt>
      <trkpt lat="43.61074" lon="1.17501">
        <ele>261.79998779297</ele>
        <time>2013-12-22T08:57:28.000Z</time>
      </trkpt>
      <trkpt lat="43.61054" lon="1.17482">
        <ele>263.39999389648</ele>
        <time>2013-12-22T08:57:37.000Z</time>
      </trkpt>
      <trkpt lat="43.61053" lon="1.17479">
        <ele>263.60000610352</ele>
        <time>2013-12-22T08:57:38.000Z</time>
      </trkpt>
      <trkpt lat="43.61048" lon="1.1747">
        <ele>263.79998779297</ele>
        <time>2013-12-22T08:57:41.000Z</time>
      </trkpt>
      <trkpt lat="43.61032" lon="1.17461">
        <ele>264.60000610352</ele>
        <time>2013-12-22T08:57:48.000Z</time>
      </trkpt>
      <trkpt lat="43.6102" lon="1.17452">
        <ele>264.79998779297</ele>
        <time>2013-12-22T08:57:53.000Z</time>
      </trkpt>
      <trkpt lat="43.61006" lon="1.17444">
        <ele>265.20001220703</ele>
        <time>2013-12-22T08:57:59.000Z</time>
      </trkpt>
      <trkpt lat="43.61004" lon="1.17443">
        <ele>265.20001220703</ele>
        <time>2013-12-22T08:58:00.000Z</time>
      </trkpt>
      <trkpt lat="43.6099" lon="1.17433">
        <ele>265.20001220703</ele>
        <time>2013-12-22T08:58:06.000Z</time>
      </trkpt>
      <trkpt lat="43.60988" lon="1.17432">
        <ele>265.20001220703</ele>
        <time>2013-12-22T08:58:07.000Z</time>
      </trkpt>
      <trkpt lat="43.60972" lon="1.17426">
        <ele>265.20001220703</ele>
        <time>2013-12-22T08:58:14.000Z</time>
      </trkpt>
      <trkpt lat="43.60958" lon="1.17418">
        <ele>265</ele>
        <time>2013-12-22T08:58:20.000Z</time>
      </trkpt>
      <trkpt lat="43.60944" lon="1.17411">
        <ele>265</ele>
        <time>2013-12-22T08:58:26.000Z</time>
      </trkpt>
      <trkpt lat="43.60935" lon="1.17397">
        <ele>264.60000610352</ele>
        <time>2013-12-22T08:58:32.000Z</time>
      </trkpt>
      <trkpt lat="43.60932" lon="1.17395">
        <ele>264.39999389648</ele>
        <time>2013-12-22T08:58:33.000Z</time>
      </trkpt>
      <trkpt lat="43.60916" lon="1.17386">
        <ele>264.20001220703</ele>
        <time>2013-12-22T08:58:39.000Z</time>
      </trkpt>
      <trkpt lat="43.60905" lon="1.17378">
        <ele>264.60000610352</ele>
        <time>2013-12-22T08:58:44.000Z</time>
      </trkpt>
      <trkpt lat="43.60892" lon="1.17373">
        <ele>265.39999389648</ele>
        <time>2013-12-22T08:58:49.000Z</time>
      </trkpt>
      <trkpt lat="43.60885" lon="1.1737">
        <ele>265.79998779297</ele>
        <time>2013-12-22T08:58:52.000Z</time>
      </trkpt>
      <trkpt lat="43.60872" lon="1.17373">
        <ele>267.20001220703</ele>
        <time>2013-12-22T08:58:58.000Z</time>
      </trkpt>
      <trkpt lat="43.60865" lon="1.17374">
        <ele>267.79998779297</ele>
        <time>2013-12-22T08:59:03.000Z</time>
      </trkpt>
      <trkpt lat="43.60855" lon="1.17372">
        <ele>268.39999389648</ele>
        <time>2013-12-22T08:59:09.000Z</time>
      </trkpt>
      <trkpt lat="43.60851" lon="1.17367">
        <ele>268.39999389648</ele>
        <time>2013-12-22T08:59:11.000Z</time>
      </trkpt>
      <trkpt lat="43.60838" lon="1.17357">
        <ele>268.60000610352</ele>
        <time>2013-12-22T08:59:17.000Z</time>
      </trkpt>
      <trkpt lat="43.60829" lon="1.17353">
        <ele>269</ele>
        <time>2013-12-22T08:59:21.000Z</time>
      </trkpt>
      <trkpt lat="43.60816" lon="1.17343">
        <ele>269.20001220703</ele>
        <time>2013-12-22T08:59:27.000Z</time>
      </trkpt>
      <trkpt lat="43.60801" lon="1.17332">
        <ele>269.60000610352</ele>
        <time>2013-12-22T08:59:34.000Z</time>
      </trkpt>
      <trkpt lat="43.60788" lon="1.17328">
        <ele>270.60000610352</ele>
        <time>2013-12-22T08:59:39.000Z</time>
      </trkpt>
      <trkpt lat="43.60786" lon="1.17327">
        <ele>270.79998779297</ele>
        <time>2013-12-22T08:59:40.000Z</time>
      </trkpt>
      <trkpt lat="43.60772" lon="1.17324">
        <ele>271.79998779297</ele>
        <time>2013-12-22T08:59:47.000Z</time>
      </trkpt>
      <trkpt lat="43.60757" lon="1.17314">
        <ele>272.60000610352</ele>
        <time>2013-12-22T08:59:54.000Z</time>
      </trkpt>
      <trkpt lat="43.60743" lon="1.17304">
        <ele>273</ele>
        <time>2013-12-22T09:00:00.000Z</time>
      </trkpt>
      <trkpt lat="43.60739" lon="1.17299">
        <ele>273</ele>
        <time>2013-12-22T09:00:02.000Z</time>
      </trkpt>
      <trkpt lat="43.60736" lon="1.1729">
        <ele>272.79998779297</ele>
        <time>2013-12-22T09:00:05.000Z</time>
      </trkpt>
      <trkpt lat="43.60733" lon="1.17276">
        <ele>272.39999389648</ele>
        <time>2013-12-22T09:00:10.000Z</time>
      </trkpt>
      <trkpt lat="43.60726" lon="1.17268">
        <ele>272.60000610352</ele>
        <time>2013-12-22T09:00:14.000Z</time>
      </trkpt>
      <trkpt lat="43.60726" lon="1.17265">
        <ele>272.60000610352</ele>
        <time>2013-12-22T09:00:15.000Z</time>
      </trkpt>
      <trkpt lat="43.60725" lon="1.17258">
        <ele>272.39999389648</ele>
        <time>2013-12-22T09:00:17.000Z</time>
      </trkpt>
      <trkpt lat="43.60718" lon="1.17248">
        <ele>272.79998779297</ele>
        <time>2013-12-22T09:00:21.000Z</time>
      </trkpt>
      <trkpt lat="43.6071" lon="1.17234">
        <ele>273.60000610352</ele>
        <time>2013-12-22T09:00:27.000Z</time>
      </trkpt>
      <trkpt lat="43.60705" lon="1.17226">
        <ele>274</ele>
        <time>2013-12-22T09:00:30.000Z</time>
      </trkpt>
      <trkpt lat="43.60704" lon="1.17217">
        <ele>274.20001220703</ele>
        <time>2013-12-22T09:00:33.000Z</time>
      </trkpt>
      <trkpt lat="43.60702" lon="1.17199">
        <ele>274.60000610352</ele>
        <time>2013-12-22T09:00:38.000Z</time>
      </trkpt>
      <trkpt lat="43.60702" lon="1.17189">
        <ele>274.60000610352</ele>
        <time>2013-12-22T09:00:41.000Z</time>
      </trkpt>
      <trkpt lat="43.60695" lon="1.17168">
        <ele>275.20001220703</ele>
        <time>2013-12-22T09:00:48.000Z</time>
      </trkpt>
      <trkpt lat="43.60692" lon="1.17163">
        <ele>275.39999389648</ele>
        <time>2013-12-22T09:00:50.000Z</time>
      </trkpt>
      <trkpt lat="43.60685" lon="1.17155">
        <ele>275.39999389648</ele>
        <time>2013-12-22T09:00:54.000Z</time>
      </trkpt>
      <trkpt lat="43.60677" lon="1.17138">
        <ele>275.20001220703</ele>
        <time>2013-12-22T09:01:00.000Z</time>
      </trkpt>
      <trkpt lat="43.60674" lon="1.1713">
        <ele>274.79998779297</ele>
        <time>2013-12-22T09:01:03.000Z</time>
      </trkpt>
      <trkpt lat="43.60673" lon="1.17124">
        <ele>274.60000610352</ele>
        <time>2013-12-22T09:01:05.000Z</time>
      </trkpt>
      <trkpt lat="43.60671" lon="1.17111">
        <ele>274.20001220703</ele>
        <time>2013-12-22T09:01:09.000Z</time>
      </trkpt>
      <trkpt lat="43.6067" lon="1.17108">
        <ele>274</ele>
        <time>2013-12-22T09:01:10.000Z</time>
      </trkpt>
      <trkpt lat="43.60667" lon="1.17103">
        <ele>274</ele>
        <time>2013-12-22T09:01:12.000Z</time>
      </trkpt>
      <trkpt lat="43.60664" lon="1.17086">
        <ele>273.39999389648</ele>
        <time>2013-12-22T09:01:17.000Z</time>
      </trkpt>
      <trkpt lat="43.60663" lon="1.17083">
        <ele>273.39999389648</ele>
        <time>2013-12-22T09:01:18.000Z</time>
      </trkpt>
      <trkpt lat="43.60658" lon="1.17065">
        <ele>273.79998779297</ele>
        <time>2013-12-22T09:01:24.000Z</time>
      </trkpt>
      <trkpt lat="43.60657" lon="1.17063">
        <ele>274</ele>
        <time>2013-12-22T09:01:25.000Z</time>
      </trkpt>
      <trkpt lat="43.60648" lon="1.17047">
        <ele>274.79998779297</ele>
        <time>2013-12-22T09:01:31.000Z</time>
      </trkpt>
      <trkpt lat="43.60644" lon="1.17036">
        <ele>275.20001220703</ele>
        <time>2013-12-22T09:01:35.000Z</time>
      </trkpt>
      <trkpt lat="43.60644" lon="1.17034">
        <ele>275.20001220703</ele>
        <time>2013-12-22T09:01:36.000Z</time>
      </trkpt>
      <trkpt lat="43.60642" lon="1.17025">
        <ele>275.20001220703</ele>
        <time>2013-12-22T09:01:39.000Z</time>
      </trkpt>
      <trkpt lat="43.6064" lon="1.17009">
        <ele>275.39999389648</ele>
        <time>2013-12-22T09:01:44.000Z</time>
      </trkpt>
      <trkpt lat="43.60639" lon="1.17003">
        <ele>275.39999389648</ele>
        <time>2013-12-22T09:01:46.000Z</time>
      </trkpt>
      <trkpt lat="43.60635" lon="1.16997">
        <ele>275.79998779297</ele>
        <time>2013-12-22T09:01:49.000Z</time>
      </trkpt>
      <trkpt lat="43.60631" lon="1.16994">
        <ele>276.20001220703</ele>
        <time>2013-12-22T09:01:51.000Z</time>
      </trkpt>
      <trkpt lat="43.60631" lon="1.16978">
        <ele>276.20001220703</ele>
        <time>2013-12-22T09:01:56.000Z</time>
      </trkpt>
      <trkpt lat="43.60636" lon="1.16968">
        <ele>275.60000610352</ele>
        <time>2013-12-22T09:02:00.000Z</time>
      </trkpt>
      <trkpt lat="43.60633" lon="1.16951">
        <ele>275.79998779297</ele>
        <time>2013-12-22T09:02:05.000Z</time>
      </trkpt>
      <trkpt lat="43.60632" lon="1.16937">
        <ele>276</ele>
        <time>2013-12-22T09:02:09.000Z</time>
      </trkpt>
      <trkpt lat="43.60627" lon="1.16923">
        <ele>276.39999389648</ele>
        <time>2013-12-22T09:02:14.000Z</time>
      </trkpt>
      <trkpt lat="43.60622" lon="1.16912">
        <ele>276.60000610352</ele>
        <time>2013-12-22T09:02:18.000Z</time>
      </trkpt>
      <trkpt lat="43.60615" lon="1.16907">
        <ele>277.20001220703</ele>
        <time>2013-12-22T09:02:22.000Z</time>
      </trkpt>
      <trkpt lat="43.6061" lon="1.16891">
        <ele>277.39999389648</ele>
        <time>2013-12-22T09:02:27.000Z</time>
      </trkpt>
      <trkpt lat="43.60607" lon="1.16888">
        <ele>277.60000610352</ele>
        <time>2013-12-22T09:02:29.000Z</time>
      </trkpt>
      <trkpt lat="43.60605" lon="1.16887">
        <ele>277.60000610352</ele>
        <time>2013-12-22T09:02:30.000Z</time>
      </trkpt>
      <trkpt lat="43.60596" lon="1.16869">
        <ele>278</ele>
        <time>2013-12-22T09:02:37.000Z</time>
      </trkpt>
      <trkpt lat="43.60593" lon="1.16864">
        <ele>278</ele>
        <time>2013-12-22T09:02:39.000Z</time>
      </trkpt>
      <trkpt lat="43.60587" lon="1.16849">
        <ele>278.20001220703</ele>
        <time>2013-12-22T09:02:45.000Z</time>
      </trkpt>
      <trkpt lat="43.60584" lon="1.16844">
        <ele>278.20001220703</ele>
        <time>2013-12-22T09:02:47.000Z</time>
      </trkpt>
      <trkpt lat="43.6058" lon="1.16827">
        <ele>278</ele>
        <time>2013-12-22T09:02:52.000Z</time>
      </trkpt>
      <trkpt lat="43.60575" lon="1.16811">
        <ele>277.39999389648</ele>
        <time>2013-12-22T09:02:57.000Z</time>
      </trkpt>
      <trkpt lat="43.60573" lon="1.16809">
        <ele>277.39999389648</ele>
        <time>2013-12-22T09:02:58.000Z</time>
      </trkpt>
      <trkpt lat="43.60565" lon="1.16799">
        <ele>277.60000610352</ele>
        <time>2013-12-22T09:03:02.000Z</time>
      </trkpt>
      <trkpt lat="43.60559" lon="1.16788">
        <ele>277.39999389648</ele>
        <time>2013-12-22T09:03:06.000Z</time>
      </trkpt>
      <trkpt lat="43.60553" lon="1.16778">
        <ele>277.39999389648</ele>
        <time>2013-12-22T09:03:11.000Z</time>
      </trkpt>
      <trkpt lat="43.60543" lon="1.16767">
        <ele>277.60000610352</ele>
        <time>2013-12-22T09:03:16.000Z</time>
      </trkpt>
      <trkpt lat="43.60536" lon="1.16761">
        <ele>278</ele>
        <time>2013-12-22T09:03:20.000Z</time>
      </trkpt>
      <trkpt lat="43.60527" lon="1.16751">
        <ele>278</ele>
        <time>2013-12-22T09:03:25.000Z</time>
      </trkpt>
      <trkpt lat="43.60513" lon="1.16731">
        <ele>278.79998779297</ele>
        <time>2013-12-22T09:03:35.000Z</time>
      </trkpt>
      <trkpt lat="43.60513" lon="1.16729">
        <ele>278.79998779297</ele>
        <time>2013-12-22T09:03:36.000Z</time>
      </trkpt>
      <trkpt lat="43.60505" lon="1.1672">
        <ele>279.20001220703</ele>
        <time>2013-12-22T09:03:40.000Z</time>
      </trkpt>
      <trkpt lat="43.60502" lon="1.16714">
        <ele>279.39999389648</ele>
        <time>2013-12-22T09:03:42.000Z</time>
      </trkpt>
      <trkpt lat="43.60496" lon="1.16707">
        <ele>279.79998779297</ele>
        <time>2013-12-22T09:03:45.000Z</time>
      </trkpt>
      <trkpt lat="43.60484" lon="1.16693">
        <ele>281</ele>
        <time>2013-12-22T09:03:51.000Z</time>
      </trkpt>
      <trkpt lat="43.60478" lon="1.16686">
        <ele>281.60000610352</ele>
        <time>2013-12-22T09:03:54.000Z</time>
      </trkpt>
      <trkpt lat="43.60474" lon="1.16679">
        <ele>282</ele>
        <time>2013-12-22T09:03:57.000Z</time>
      </trkpt>
      <trkpt lat="43.60462" lon="1.16669">
        <ele>283.20001220703</ele>
        <time>2013-12-22T09:04:04.000Z</time>
      </trkpt>
      <trkpt lat="43.60452" lon="1.16659">
        <ele>284.20001220703</ele>
        <time>2013-12-22T09:04:10.000Z</time>
      </trkpt>
      <trkpt lat="43.60448" lon="1.16656">
        <ele>284.39999389648</ele>
        <time>2013-12-22T09:04:12.000Z</time>
      </trkpt>
      <trkpt lat="43.60442" lon="1.16655">
        <ele>285</ele>
        <time>2013-12-22T09:04:15.000Z</time>
      </trkpt>
      <trkpt lat="43.60428" lon="1.16651">
        <ele>286.60000610352</ele>
        <time>2013-12-22T09:04:22.000Z</time>
      </trkpt>
      <trkpt lat="43.60426" lon="1.1665">
        <ele>286.79998779297</ele>
        <time>2013-12-22T09:04:23.000Z</time>
      </trkpt>
      <trkpt lat="43.60421" lon="1.1664">
        <ele>287.20001220703</ele>
        <time>2013-12-22T09:04:27.000Z</time>
      </trkpt>
      <trkpt lat="43.60415" lon="1.16625">
        <ele>287.60000610352</ele>
        <time>2013-12-22T09:04:32.000Z</time>
      </trkpt>
      <trkpt lat="43.60409" lon="1.16607">
        <ele>287.39999389648</ele>
        <time>2013-12-22T09:04:38.000Z</time>
      </trkpt>
      <trkpt lat="43.60402" lon="1.16588">
        <ele>287</ele>
        <time>2013-12-22T09:04:44.000Z</time>
      </trkpt>
      <trkpt lat="43.60397" lon="1.16571">
        <ele>287</ele>
        <time>2013-12-22T09:04:49.000Z</time>
      </trkpt>
      <trkpt lat="43.60394" lon="1.16555">
        <ele>286.79998779297</ele>
        <time>2013-12-22T09:04:54.000Z</time>
      </trkpt>
      <trkpt lat="43.60393" lon="1.16539">
        <ele>286.79998779297</ele>
        <time>2013-12-22T09:04:59.000Z</time>
      </trkpt>
      <trkpt lat="43.60392" lon="1.16536">
        <ele>286.79998779297</ele>
        <time>2013-12-22T09:05:00.000Z</time>
      </trkpt>
      <trkpt lat="43.60389" lon="1.16512">
        <ele>287</ele>
        <time>2013-12-22T09:05:07.000Z</time>
      </trkpt>
      <trkpt lat="43.60385" lon="1.16495">
        <ele>287.20001220703</ele>
        <time>2013-12-22T09:05:12.000Z</time>
      </trkpt>
      <trkpt lat="43.60381" lon="1.16483">
        <ele>287.39999389648</ele>
        <time>2013-12-22T09:05:16.000Z</time>
      </trkpt>
      <trkpt lat="43.60375" lon="1.16468">
        <ele>287.79998779297</ele>
        <time>2013-12-22T09:05:21.000Z</time>
      </trkpt>
      <trkpt lat="43.60369" lon="1.16456">
        <ele>288.20001220703</ele>
        <time>2013-12-22T09:05:26.000Z</time>
      </trkpt>
      <trkpt lat="43.60368" lon="1.16454">
        <ele>288.39999389648</ele>
        <time>2013-12-22T09:05:27.000Z</time>
      </trkpt>
      <trkpt lat="43.60355" lon="1.16439">
        <ele>289.60000610352</ele>
        <time>2013-12-22T09:05:34.000Z</time>
      </trkpt>
      <trkpt lat="43.60351" lon="1.1643">
        <ele>290</ele>
        <time>2013-12-22T09:05:38.000Z</time>
      </trkpt>
      <trkpt lat="43.60342" lon="1.1642">
        <ele>291</ele>
        <time>2013-12-22T09:05:43.000Z</time>
      </trkpt>
      <trkpt lat="43.60335" lon="1.16406">
        <ele>291.79998779297</ele>
        <time>2013-12-22T09:05:49.000Z</time>
      </trkpt>
      <trkpt lat="43.60331" lon="1.16401">
        <ele>292.20001220703</ele>
        <time>2013-12-22T09:05:52.000Z</time>
      </trkpt>
      <trkpt lat="43.60324" lon="1.16387">
        <ele>292.60000610352</ele>
        <time>2013-12-22T09:05:58.000Z</time>
      </trkpt>
      <trkpt lat="43.60323" lon="1.16386">
        <ele>292.60000610352</ele>
        <time>2013-12-22T09:05:59.000Z</time>
      </trkpt>
      <trkpt lat="43.60315" lon="1.16373">
        <ele>293</ele>
        <time>2013-12-22T09:06:04.000Z</time>
      </trkpt>
      <trkpt lat="43.60307" lon="1.16359">
        <ele>293.39999389648</ele>
        <time>2013-12-22T09:06:09.000Z</time>
      </trkpt>
      <trkpt lat="43.60301" lon="1.16346">
        <ele>293.79998779297</ele>
        <time>2013-12-22T09:06:14.000Z</time>
      </trkpt>
      <trkpt lat="43.60291" lon="1.16331">
        <ele>294.60000610352</ele>
        <time>2013-12-22T09:06:20.000Z</time>
      </trkpt>
      <trkpt lat="43.60276" lon="1.16321">
        <ele>295.79998779297</ele>
        <time>2013-12-22T09:06:27.000Z</time>
      </trkpt>
      <trkpt lat="43.60263" lon="1.16314">
        <ele>296.79998779297</ele>
        <time>2013-12-22T09:06:33.000Z</time>
      </trkpt>
      <trkpt lat="43.60252" lon="1.16309">
        <ele>297.39999389648</ele>
        <time>2013-12-22T09:06:38.000Z</time>
      </trkpt>
      <trkpt lat="43.60241" lon="1.16302">
        <ele>298</ele>
        <time>2013-12-22T09:06:43.000Z</time>
      </trkpt>
      <trkpt lat="43.60229" lon="1.16295">
        <ele>298.20001220703</ele>
        <time>2013-12-22T09:06:49.000Z</time>
      </trkpt>
      <trkpt lat="43.60222" lon="1.16295">
        <ele>298.39999389648</ele>
        <time>2013-12-22T09:06:52.000Z</time>
      </trkpt>
      <trkpt lat="43.6021" lon="1.16302">
        <ele>298.60000610352</ele>
        <time>2013-12-22T09:06:58.000Z</time>
      </trkpt>
      <trkpt lat="43.60208" lon="1.16304">
        <ele>298.60000610352</ele>
        <time>2013-12-22T09:06:59.000Z</time>
      </trkpt>
      <trkpt lat="43.60199" lon="1.16317">
        <ele>299.20001220703</ele>
        <time>2013-12-22T09:07:05.000Z</time>
      </trkpt>
      <trkpt lat="43.6019" lon="1.16328">
        <ele>299.79998779297</ele>
        <time>2013-12-22T09:07:10.000Z</time>
      </trkpt>
      <trkpt lat="43.60188" lon="1.1633">
        <ele>299.79998779297</ele>
        <time>2013-12-22T09:07:11.000Z</time>
      </trkpt>
      <trkpt lat="43.60175" lon="1.16333">
        <ele>300.60000610352</ele>
        <time>2013-12-22T09:07:17.000Z</time>
      </trkpt>
      <trkpt lat="43.6017" lon="1.16333">
        <ele>300.79998779297</ele>
        <time>2013-12-22T09:07:19.000Z</time>
      </trkpt>
      <trkpt lat="43.60168" lon="1.16332">
        <ele>300.79998779297</ele>
        <time>2013-12-22T09:07:20.000Z</time>
      </trkpt>
      <trkpt lat="43.60159" lon="1.16319">
        <ele>299.60000610352</ele>
        <time>2013-12-22T09:07:26.000Z</time>
      </trkpt>
      <trkpt lat="43.60155" lon="1.16317">
        <ele>299.20001220703</ele>
        <time>2013-12-22T09:07:28.000Z</time>
      </trkpt>
      <trkpt lat="43.60153" lon="1.16303">
        <ele>298.20001220703</ele>
        <time>2013-12-22T09:07:33.000Z</time>
      </trkpt>
      <trkpt lat="43.60152" lon="1.16301">
        <ele>298</ele>
        <time>2013-12-22T09:07:34.000Z</time>
      </trkpt>
      <trkpt lat="43.60146" lon="1.16296">
        <ele>297.20001220703</ele>
        <time>2013-12-22T09:07:37.000Z</time>
      </trkpt>
      <trkpt lat="43.60136" lon="1.16292">
        <ele>295.79998779297</ele>
        <time>2013-12-22T09:07:42.000Z</time>
      </trkpt>
      <trkpt lat="43.60123" lon="1.16293">
        <ele>294.60000610352</ele>
        <time>2013-12-22T09:07:47.000Z</time>
      </trkpt>
      <trkpt lat="43.60114" lon="1.16309">
        <ele>294.60000610352</ele>
        <time>2013-12-22T09:07:53.000Z</time>
      </trkpt>
      <trkpt lat="43.60114" lon="1.16312">
        <ele>294.79998779297</ele>
        <time>2013-12-22T09:07:54.000Z</time>
      </trkpt>
      <trkpt lat="43.60113" lon="1.16322">
        <ele>295.20001220703</ele>
        <time>2013-12-22T09:07:57.000Z</time>
      </trkpt>
      <trkpt lat="43.6011" lon="1.16337">
        <ele>295.79998779297</ele>
        <time>2013-12-22T09:08:02.000Z</time>
      </trkpt>
      <trkpt lat="43.60109" lon="1.16347">
        <ele>296.20001220703</ele>
        <time>2013-12-22T09:08:05.000Z</time>
      </trkpt>
      <trkpt lat="43.60106" lon="1.16367">
        <ele>296.79998779297</ele>
        <time>2013-12-22T09:08:11.000Z</time>
      </trkpt>
      <trkpt lat="43.60099" lon="1.16391">
        <ele>297.60000610352</ele>
        <time>2013-12-22T09:08:18.000Z</time>
      </trkpt>
      <trkpt lat="43.60097" lon="1.1643">
        <ele>298.79998779297</ele>
        <time>2013-12-22T09:08:30.000Z</time>
      </trkpt>
      <trkpt lat="43.60102" lon="1.16448">
        <ele>299</ele>
        <time>2013-12-22T09:08:35.000Z</time>
      </trkpt>
      <trkpt lat="43.60109" lon="1.16463">
        <ele>299.39999389648</ele>
        <time>2013-12-22T09:08:40.000Z</time>
      </trkpt>
      <trkpt lat="43.60114" lon="1.16486">
        <ele>299.60000610352</ele>
        <time>2013-12-22T09:08:46.000Z</time>
      </trkpt>
      <trkpt lat="43.60117" lon="1.16504">
        <ele>299.39999389648</ele>
        <time>2013-12-22T09:08:51.000Z</time>
      </trkpt>
      <trkpt lat="43.60116" lon="1.16523">
        <ele>299</ele>
        <time>2013-12-22T09:08:56.000Z</time>
      </trkpt>
      <trkpt lat="43.60116" lon="1.16542">
        <ele>298.39999389648</ele>
        <time>2013-12-22T09:09:01.000Z</time>
      </trkpt>
      <trkpt lat="43.60121" lon="1.16566">
        <ele>298</ele>
        <time>2013-12-22T09:09:07.000Z</time>
      </trkpt>
      <trkpt lat="43.60124" lon="1.16593">
        <ele>297.20001220703</ele>
        <time>2013-12-22T09:09:14.000Z</time>
      </trkpt>
      <trkpt lat="43.6012" lon="1.16612">
        <ele>296.79998779297</ele>
        <time>2013-12-22T09:09:19.000Z</time>
      </trkpt>
      <trkpt lat="43.60119" lon="1.16625">
        <ele>296.39999389648</ele>
        <time>2013-12-22T09:09:23.000Z</time>
      </trkpt>
      <trkpt lat="43.60118" lon="1.16648">
        <ele>295.79998779297</ele>
        <time>2013-12-22T09:09:29.000Z</time>
      </trkpt>
      <trkpt lat="43.60118" lon="1.16662">
        <ele>295.60000610352</ele>
        <time>2013-12-22T09:09:33.000Z</time>
      </trkpt>
      <trkpt lat="43.60118" lon="1.1668">
        <ele>295.39999389648</ele>
        <time>2013-12-22T09:09:38.000Z</time>
      </trkpt>
      <trkpt lat="43.60119" lon="1.16683">
        <ele>295.39999389648</ele>
        <time>2013-12-22T09:09:39.000Z</time>
      </trkpt>
      <trkpt lat="43.60118" lon="1.16698">
        <ele>295.39999389648</ele>
        <time>2013-12-22T09:09:44.000Z</time>
      </trkpt>
      <trkpt lat="43.60119" lon="1.16714">
        <ele>295.60000610352</ele>
        <time>2013-12-22T09:09:49.000Z</time>
      </trkpt>
      <trkpt lat="43.60119" lon="1.16721">
        <ele>295.60000610352</ele>
        <time>2013-12-22T09:09:51.000Z</time>
      </trkpt>
      <trkpt lat="43.60123" lon="1.1674">
        <ele>295.60000610352</ele>
        <time>2013-12-22T09:09:57.000Z</time>
      </trkpt>
      <trkpt lat="43.60124" lon="1.16748">
        <ele>295.60000610352</ele>
        <time>2013-12-22T09:09:59.000Z</time>
      </trkpt>
      <trkpt lat="43.60125" lon="1.16767">
        <ele>294.60000610352</ele>
        <time>2013-12-22T09:10:04.000Z</time>
      </trkpt>
      <trkpt lat="43.60125" lon="1.16787">
        <ele>293.79998779297</ele>
        <time>2013-12-22T09:10:09.000Z</time>
      </trkpt>
      <trkpt lat="43.60123" lon="1.16806">
        <ele>293</ele>
        <time>2013-12-22T09:10:14.000Z</time>
      </trkpt>
      <trkpt lat="43.6012" lon="1.16831">
        <ele>291.79998779297</ele>
        <time>2013-12-22T09:10:20.000Z</time>
      </trkpt>
      <trkpt lat="43.60118" lon="1.1685">
        <ele>290.60000610352</ele>
        <time>2013-12-22T09:10:25.000Z</time>
      </trkpt>
      <trkpt lat="43.60118" lon="1.16855">
        <ele>290.39999389648</ele>
        <time>2013-12-22T09:10:26.000Z</time>
      </trkpt>
      <trkpt lat="43.60113" lon="1.1687">
        <ele>289.39999389648</ele>
        <time>2013-12-22T09:10:30.000Z</time>
      </trkpt>
      <trkpt lat="43.60111" lon="1.16877">
        <ele>289</ele>
        <time>2013-12-22T09:10:32.000Z</time>
      </trkpt>
      <trkpt lat="43.60105" lon="1.16897">
        <ele>287.60000610352</ele>
        <time>2013-12-22T09:10:37.000Z</time>
      </trkpt>
      <trkpt lat="43.601" lon="1.16917">
        <ele>286</ele>
        <time>2013-12-22T09:10:42.000Z</time>
      </trkpt>
      <trkpt lat="43.60096" lon="1.16935">
        <ele>285.39999389648</ele>
        <time>2013-12-22T09:10:47.000Z</time>
      </trkpt>
      <trkpt lat="43.6009" lon="1.16957">
        <ele>284.79998779297</ele>
        <time>2013-12-22T09:10:53.000Z</time>
      </trkpt>
      <trkpt lat="43.60084" lon="1.16974">
        <ele>284.60000610352</ele>
        <time>2013-12-22T09:10:58.000Z</time>
      </trkpt>
      <trkpt lat="43.60078" lon="1.16992">
        <ele>283.79998779297</ele>
        <time>2013-12-22T09:11:03.000Z</time>
      </trkpt>
      <trkpt lat="43.60069" lon="1.17012">
        <ele>283.20001220703</ele>
        <time>2013-12-22T09:11:09.000Z</time>
      </trkpt>
      <trkpt lat="43.60059" lon="1.17029">
        <ele>282.79998779297</ele>
        <time>2013-12-22T09:11:14.000Z</time>
      </trkpt>
      <trkpt lat="43.60046" lon="1.17042">
        <ele>282</ele>
        <time>2013-12-22T09:11:20.000Z</time>
      </trkpt>
      <trkpt lat="43.60032" lon="1.17058">
        <ele>281.20001220703</ele>
        <time>2013-12-22T09:11:27.000Z</time>
      </trkpt>
      <trkpt lat="43.6002" lon="1.17074">
        <ele>280.39999389648</ele>
        <time>2013-12-22T09:11:33.000Z</time>
      </trkpt>
      <trkpt lat="43.6001" lon="1.17087">
        <ele>279.79998779297</ele>
        <time>2013-12-22T09:11:38.000Z</time>
      </trkpt>
      <trkpt lat="43.59997" lon="1.171">
        <ele>279.39999389648</ele>
        <time>2013-12-22T09:11:44.000Z</time>
      </trkpt>
      <trkpt lat="43.59989" lon="1.17113">
        <ele>279.39999389648</ele>
        <time>2013-12-22T09:11:49.000Z</time>
      </trkpt>
      <trkpt lat="43.59983" lon="1.17122">
        <ele>279.60000610352</ele>
        <time>2013-12-22T09:11:52.000Z</time>
      </trkpt>
      <trkpt lat="43.59976" lon="1.17141">
        <ele>280.39999389648</ele>
        <time>2013-12-22T09:11:58.000Z</time>
      </trkpt>
      <trkpt lat="43.59971" lon="1.17153">
        <ele>280.79998779297</ele>
        <time>2013-12-22T09:12:02.000Z</time>
      </trkpt>
      <trkpt lat="43.59964" lon="1.17172">
        <ele>281.60000610352</ele>
        <time>2013-12-22T09:12:08.000Z</time>
      </trkpt>
      <trkpt lat="43.59959" lon="1.17189">
        <ele>281.60000610352</ele>
        <time>2013-12-22T09:12:13.000Z</time>
      </trkpt>
      <trkpt lat="43.59952" lon="1.17207">
        <ele>281.79998779297</ele>
        <time>2013-12-22T09:12:19.000Z</time>
      </trkpt>
      <trkpt lat="43.59945" lon="1.17223">
        <ele>281.79998779297</ele>
        <time>2013-12-22T09:12:24.000Z</time>
      </trkpt>
      <trkpt lat="43.59934" lon="1.17239">
        <ele>281.79998779297</ele>
        <time>2013-12-22T09:12:30.000Z</time>
      </trkpt>
      <trkpt lat="43.59922" lon="1.17253">
        <ele>282</ele>
        <time>2013-12-22T09:12:36.000Z</time>
      </trkpt>
      <trkpt lat="43.59911" lon="1.17268">
        <ele>282.20001220703</ele>
        <time>2013-12-22T09:12:42.000Z</time>
      </trkpt>
      <trkpt lat="43.599" lon="1.17287">
        <ele>282.79998779297</ele>
        <time>2013-12-22T09:12:49.000Z</time>
      </trkpt>
      <trkpt lat="43.59895" lon="1.17301">
        <ele>283.20001220703</ele>
        <time>2013-12-22T09:12:54.000Z</time>
      </trkpt>
      <trkpt lat="43.59888" lon="1.1732">
        <ele>283.60000610352</ele>
        <time>2013-12-22T09:13:00.000Z</time>
      </trkpt>
      <trkpt lat="43.5988" lon="1.17337">
        <ele>284</ele>
        <time>2013-12-22T09:13:06.000Z</time>
      </trkpt>
      <trkpt lat="43.59873" lon="1.1735">
        <ele>283.60000610352</ele>
        <time>2013-12-22T09:13:10.000Z</time>
      </trkpt>
      <trkpt lat="43.59864" lon="1.17363">
        <ele>283.39999389648</ele>
        <time>2013-12-22T09:13:15.000Z</time>
      </trkpt>
      <trkpt lat="43.59851" lon="1.17375">
        <ele>283.39999389648</ele>
        <time>2013-12-22T09:13:21.000Z</time>
      </trkpt>
      <trkpt lat="43.59835" lon="1.17386">
        <ele>283.79998779297</ele>
        <time>2013-12-22T09:13:28.000Z</time>
      </trkpt>
      <trkpt lat="43.59821" lon="1.174">
        <ele>282.39999389648</ele>
        <time>2013-12-22T09:13:35.000Z</time>
      </trkpt>
      <trkpt lat="43.59812" lon="1.17414">
        <ele>281.20001220703</ele>
        <time>2013-12-22T09:13:40.000Z</time>
      </trkpt>
      <trkpt lat="43.59803" lon="1.17435">
        <ele>279.39999389648</ele>
        <time>2013-12-22T09:13:47.000Z</time>
      </trkpt>
      <trkpt lat="43.59797" lon="1.17454">
        <ele>278</ele>
        <time>2013-12-22T09:13:52.000Z</time>
      </trkpt>
      <trkpt lat="43.59795" lon="1.17477">
        <ele>276.39999389648</ele>
        <time>2013-12-22T09:13:58.000Z</time>
      </trkpt>
      <trkpt lat="43.59792" lon="1.17505">
        <ele>275</ele>
        <time>2013-12-22T09:14:05.000Z</time>
      </trkpt>
      <trkpt lat="43.59787" lon="1.17532">
        <ele>274.20001220703</ele>
        <time>2013-12-22T09:14:12.000Z</time>
      </trkpt>
      <trkpt lat="43.59778" lon="1.17552">
        <ele>273.60000610352</ele>
        <time>2013-12-22T09:14:18.000Z</time>
      </trkpt>
      <trkpt lat="43.59772" lon="1.17578">
        <ele>273</ele>
        <time>2013-12-22T09:14:25.000Z</time>
      </trkpt>
      <trkpt lat="43.59768" lon="1.176">
        <ele>272.79998779297</ele>
        <time>2013-12-22T09:14:31.000Z</time>
      </trkpt>
      <trkpt lat="43.59762" lon="1.17625">
        <ele>272.79998779297</ele>
        <time>2013-12-22T09:14:38.000Z</time>
      </trkpt>
      <trkpt lat="43.59754" lon="1.17649">
        <ele>272.79998779297</ele>
        <time>2013-12-22T09:14:45.000Z</time>
      </trkpt>
      <trkpt lat="43.59743" lon="1.17668">
        <ele>272.39999389648</ele>
        <time>2013-12-22T09:14:51.000Z</time>
      </trkpt>
      <trkpt lat="43.59734" lon="1.17691">
        <ele>271.60000610352</ele>
        <time>2013-12-22T09:14:58.000Z</time>
      </trkpt>
      <trkpt lat="43.59731" lon="1.17715">
        <ele>271</ele>
        <time>2013-12-22T09:15:05.000Z</time>
      </trkpt>
      <trkpt lat="43.59731" lon="1.17734">
        <ele>271</ele>
        <time>2013-12-22T09:15:10.000Z</time>
      </trkpt>
      <trkpt lat="43.59732" lon="1.17755">
        <ele>270.79998779297</ele>
        <time>2013-12-22T09:15:16.000Z</time>
      </trkpt>
      <trkpt lat="43.59733" lon="1.17772">
        <ele>270.60000610352</ele>
        <time>2013-12-22T09:15:21.000Z</time>
      </trkpt>
      <trkpt lat="43.59736" lon="1.17794">
        <ele>270.20001220703</ele>
        <time>2013-12-22T09:15:27.000Z</time>
      </trkpt>
      <trkpt lat="43.59734" lon="1.17813">
        <ele>269.60000610352</ele>
        <time>2013-12-22T09:15:32.000Z</time>
      </trkpt>
      <trkpt lat="43.59732" lon="1.17831">
        <ele>269.20001220703</ele>
        <time>2013-12-22T09:15:37.000Z</time>
      </trkpt>
      <trkpt lat="43.59729" lon="1.1785">
        <ele>268.39999389648</ele>
        <time>2013-12-22T09:15:42.000Z</time>
      </trkpt>
      <trkpt lat="43.59732" lon="1.17869">
        <ele>268</ele>
        <time>2013-12-22T09:15:47.000Z</time>
      </trkpt>
      <trkpt lat="43.59734" lon="1.17885">
        <ele>267.39999389648</ele>
        <time>2013-12-22T09:15:51.000Z</time>
      </trkpt>
      <trkpt lat="43.59736" lon="1.17901">
        <ele>267</ele>
        <time>2013-12-22T09:15:55.000Z</time>
      </trkpt>
      <trkpt lat="43.59738" lon="1.17918">
        <ele>266.60000610352</ele>
        <time>2013-12-22T09:15:59.000Z</time>
      </trkpt>
      <trkpt lat="43.59739" lon="1.17934">
        <ele>266</ele>
        <time>2013-12-22T09:16:03.000Z</time>
      </trkpt>
      <trkpt lat="43.59739" lon="1.17941">
        <ele>265.79998779297</ele>
        <time>2013-12-22T09:16:05.000Z</time>
      </trkpt>
      <trkpt lat="43.59738" lon="1.17964">
        <ele>265</ele>
        <time>2013-12-22T09:16:11.000Z</time>
      </trkpt>
      <trkpt lat="43.59737" lon="1.17987">
        <ele>264.39999389648</ele>
        <time>2013-12-22T09:16:17.000Z</time>
      </trkpt>
      <trkpt lat="43.59736" lon="1.18005">
        <ele>264</ele>
        <time>2013-12-22T09:16:22.000Z</time>
      </trkpt>
      <trkpt lat="43.59738" lon="1.18024">
        <ele>263.60000610352</ele>
        <time>2013-12-22T09:16:27.000Z</time>
      </trkpt>
      <trkpt lat="43.5974" lon="1.18052">
        <ele>263.20001220703</ele>
        <time>2013-12-22T09:16:34.000Z</time>
      </trkpt>
      <trkpt lat="43.59746" lon="1.18073">
        <ele>263</ele>
        <time>2013-12-22T09:16:40.000Z</time>
      </trkpt>
      <trkpt lat="43.59749" lon="1.18087">
        <ele>263</ele>
        <time>2013-12-22T09:16:44.000Z</time>
      </trkpt>
      <trkpt lat="43.59751" lon="1.18094">
        <ele>263</ele>
        <time>2013-12-22T09:16:46.000Z</time>
      </trkpt>
      <trkpt lat="43.59754" lon="1.18115">
        <ele>263.60000610352</ele>
        <time>2013-12-22T09:16:52.000Z</time>
      </trkpt>
      <trkpt lat="43.59757" lon="1.18137">
        <ele>264</ele>
        <time>2013-12-22T09:16:58.000Z</time>
      </trkpt>
      <trkpt lat="43.59757" lon="1.18141">
        <ele>264</ele>
        <time>2013-12-22T09:16:59.000Z</time>
      </trkpt>
      <trkpt lat="43.59762" lon="1.18163">
        <ele>264.60000610352</ele>
        <time>2013-12-22T09:17:05.000Z</time>
      </trkpt>
      <trkpt lat="43.59764" lon="1.18171">
        <ele>264.79998779297</ele>
        <time>2013-12-22T09:17:07.000Z</time>
      </trkpt>
      <trkpt lat="43.5976" lon="1.18196">
        <ele>263.79998779297</ele>
        <time>2013-12-22T09:17:13.000Z</time>
      </trkpt>
      <trkpt lat="43.59756" lon="1.18217">
        <ele>263</ele>
        <time>2013-12-22T09:17:18.000Z</time>
      </trkpt>
      <trkpt lat="43.59751" lon="1.18243">
        <ele>262.20001220703</ele>
        <time>2013-12-22T09:17:25.000Z</time>
      </trkpt>
      <trkpt lat="43.59749" lon="1.18262">
        <ele>261.39999389648</ele>
        <time>2013-12-22T09:17:30.000Z</time>
      </trkpt>
      <trkpt lat="43.59748" lon="1.18289">
        <ele>260.20001220703</ele>
        <time>2013-12-22T09:17:37.000Z</time>
      </trkpt>
      <trkpt lat="43.59743" lon="1.18315">
        <ele>258.60000610352</ele>
        <time>2013-12-22T09:17:44.000Z</time>
      </trkpt>
      <trkpt lat="43.59742" lon="1.1833">
        <ele>258</ele>
        <time>2013-12-22T09:17:48.000Z</time>
      </trkpt>
      <trkpt lat="43.59737" lon="1.18352">
        <ele>256.79998779297</ele>
        <time>2013-12-22T09:17:54.000Z</time>
      </trkpt>
      <trkpt lat="43.5973" lon="1.18372">
        <ele>255.39999389648</ele>
        <time>2013-12-22T09:18:00.000Z</time>
      </trkpt>
      <trkpt lat="43.59724" lon="1.18387">
        <ele>254.39999389648</ele>
        <time>2013-12-22T09:18:04.000Z</time>
      </trkpt>
      <trkpt lat="43.59719" lon="1.18401">
        <ele>253.39999389648</ele>
        <time>2013-12-22T09:18:08.000Z</time>
      </trkpt>
      <trkpt lat="43.59711" lon="1.18418">
        <ele>252.39999389648</ele>
        <time>2013-12-22T09:18:13.000Z</time>
      </trkpt>
      <trkpt lat="43.59708" lon="1.18436">
        <ele>252.19999694824</ele>
        <time>2013-12-22T09:18:18.000Z</time>
      </trkpt>
      <trkpt lat="43.59706" lon="1.18459">
        <ele>252.19999694824</ele>
        <time>2013-12-22T09:18:24.000Z</time>
      </trkpt>
      <trkpt lat="43.59704" lon="1.1848">
        <ele>252.39999389648</ele>
        <time>2013-12-22T09:18:30.000Z</time>
      </trkpt>
      <trkpt lat="43.59709" lon="1.18497">
        <ele>253</ele>
        <time>2013-12-22T09:18:35.000Z</time>
      </trkpt>
      <trkpt lat="43.59717" lon="1.18506">
        <ele>253.19999694824</ele>
        <time>2013-12-22T09:18:39.000Z</time>
      </trkpt>
      <trkpt lat="43.59729" lon="1.18519">
        <ele>253.39999389648</ele>
        <time>2013-12-22T09:18:45.000Z</time>
      </trkpt>
      <trkpt lat="43.59742" lon="1.1853">
        <ele>253.60000610352</ele>
        <time>2013-12-22T09:18:51.000Z</time>
      </trkpt>
      <trkpt lat="43.5975" lon="1.18538">
        <ele>253.60000610352</ele>
        <time>2013-12-22T09:18:55.000Z</time>
      </trkpt>
      <trkpt lat="43.59761" lon="1.18547">
        <ele>253.60000610352</ele>
        <time>2013-12-22T09:19:00.000Z</time>
      </trkpt>
      <trkpt lat="43.59776" lon="1.18559">
        <ele>253.39999389648</ele>
        <time>2013-12-22T09:19:06.000Z</time>
      </trkpt>
      <trkpt lat="43.59784" lon="1.18565">
        <ele>253.39999389648</ele>
        <time>2013-12-22T09:19:09.000Z</time>
      </trkpt>
      <trkpt lat="43.59793" lon="1.18574">
        <ele>253.39999389648</ele>
        <time>2013-12-22T09:19:14.000Z</time>
      </trkpt>
      <trkpt lat="43.59804" lon="1.18585">
        <ele>253.39999389648</ele>
        <time>2013-12-22T09:19:19.000Z</time>
      </trkpt>
      <trkpt lat="43.59813" lon="1.18594">
        <ele>253.39999389648</ele>
        <time>2013-12-22T09:19:24.000Z</time>
      </trkpt>
      <trkpt lat="43.59823" lon="1.18602">
        <ele>253.60000610352</ele>
        <time>2013-12-22T09:19:28.000Z</time>
      </trkpt>
      <trkpt lat="43.59837" lon="1.18613">
        <ele>253.80000305176</ele>
        <time>2013-12-22T09:19:34.000Z</time>
      </trkpt>
      <trkpt lat="43.59864" lon="1.18634">
        <ele>254.19999694824</ele>
        <time>2013-12-22T09:19:46.000Z</time>
      </trkpt>
      <trkpt lat="43.59876" lon="1.18646">
        <ele>254.19999694824</ele>
        <time>2013-12-22T09:19:52.000Z</time>
      </trkpt>
      <trkpt lat="43.59888" lon="1.18655">
        <ele>254</ele>
        <time>2013-12-22T09:19:57.000Z</time>
      </trkpt>
      <trkpt lat="43.5989" lon="1.18658">
        <ele>254</ele>
        <time>2013-12-22T09:19:58.000Z</time>
      </trkpt>
      <trkpt lat="43.59907" lon="1.1867">
        <ele>253.80000305176</ele>
        <time>2013-12-22T09:20:05.000Z</time>
      </trkpt>
      <trkpt lat="43.59923" lon="1.18682">
        <ele>254.39999389648</ele>
        <time>2013-12-22T09:20:11.000Z</time>
      </trkpt>
      <trkpt lat="43.59937" lon="1.18693">
        <ele>255</ele>
        <time>2013-12-22T09:20:17.000Z</time>
      </trkpt>
      <trkpt lat="43.59954" lon="1.18707">
        <ele>255.60000610352</ele>
        <time>2013-12-22T09:20:24.000Z</time>
      </trkpt>
      <trkpt lat="43.59971" lon="1.1872">
        <ele>256</ele>
        <time>2013-12-22T09:20:31.000Z</time>
      </trkpt>
      <trkpt lat="43.59987" lon="1.18732">
        <ele>256.20001220703</ele>
        <time>2013-12-22T09:20:38.000Z</time>
      </trkpt>
      <trkpt lat="43.59996" lon="1.18743">
        <ele>256.20001220703</ele>
        <time>2013-12-22T09:20:43.000Z</time>
      </trkpt>
      <trkpt lat="43.59994" lon="1.18761">
        <ele>255.80000305176</ele>
        <time>2013-12-22T09:20:48.000Z</time>
      </trkpt>
      <trkpt lat="43.59992" lon="1.18764">
        <ele>255.60000610352</ele>
        <time>2013-12-22T09:20:49.000Z</time>
      </trkpt>
      <trkpt lat="43.59983" lon="1.18785">
        <ele>255.19999694824</ele>
        <time>2013-12-22T09:20:56.000Z</time>
      </trkpt>
      <trkpt lat="43.59973" lon="1.18808">
        <ele>254.80000305176</ele>
        <time>2013-12-22T09:21:03.000Z</time>
      </trkpt>
      <trkpt lat="43.59966" lon="1.18828">
        <ele>254.60000610352</ele>
        <time>2013-12-22T09:21:09.000Z</time>
      </trkpt>
      <trkpt lat="43.59958" lon="1.18847">
        <ele>254.19999694824</ele>
        <time>2013-12-22T09:21:15.000Z</time>
      </trkpt>
      <trkpt lat="43.59951" lon="1.18864">
        <ele>253.80000305176</ele>
        <time>2013-12-22T09:21:20.000Z</time>
      </trkpt>
      <trkpt lat="43.59944" lon="1.18886">
        <ele>253.19999694824</ele>
        <time>2013-12-22T09:21:26.000Z</time>
      </trkpt>
      <trkpt lat="43.59938" lon="1.18903">
        <ele>252.80000305176</ele>
        <time>2013-12-22T09:21:31.000Z</time>
      </trkpt>
      <trkpt lat="43.59934" lon="1.18909">
        <ele>252.60000610352</ele>
        <time>2013-12-22T09:21:33.000Z</time>
      </trkpt>
      <trkpt lat="43.59928" lon="1.1892">
        <ele>252</ele>
        <time>2013-12-22T09:21:36.000Z</time>
      </trkpt>
      <trkpt lat="43.59918" lon="1.18945">
        <ele>249.60000610352</ele>
        <time>2013-12-22T09:21:43.000Z</time>
      </trkpt>
      <trkpt lat="43.59909" lon="1.18966">
        <ele>247</ele>
        <time>2013-12-22T09:21:49.000Z</time>
      </trkpt>
      <trkpt lat="43.599" lon="1.18987">
        <ele>244.39999389648</ele>
        <time>2013-12-22T09:21:55.000Z</time>
      </trkpt>
      <trkpt lat="43.59891" lon="1.19007">
        <ele>241.80000305176</ele>
        <time>2013-12-22T09:22:01.000Z</time>
      </trkpt>
      <trkpt lat="43.59887" lon="1.1902">
        <ele>240.19999694824</ele>
        <time>2013-12-22T09:22:05.000Z</time>
      </trkpt>
      <trkpt lat="43.59878" lon="1.19039">
        <ele>237.80000305176</ele>
        <time>2013-12-22T09:22:11.000Z</time>
      </trkpt>
      <trkpt lat="43.59871" lon="1.19053">
        <ele>235.80000305176</ele>
        <time>2013-12-22T09:22:16.000Z</time>
      </trkpt>
      <trkpt lat="43.59867" lon="1.1906">
        <ele>234.80000305176</ele>
        <time>2013-12-22T09:22:19.000Z</time>
      </trkpt>
      <trkpt lat="43.59881" lon="1.19077">
        <ele>235.19999694824</ele>
        <time>2013-12-22T09:22:28.000Z</time>
      </trkpt>
      <trkpt lat="43.59883" lon="1.19077">
        <ele>235.60000610352</ele>
        <time>2013-12-22T09:22:29.000Z</time>
      </trkpt>
      <trkpt lat="43.59897" lon="1.19079">
        <ele>237.39999389648</ele>
        <time>2013-12-22T09:22:35.000Z</time>
      </trkpt>
      <trkpt lat="43.59912" lon="1.19079">
        <ele>239.60000610352</ele>
        <time>2013-12-22T09:22:42.000Z</time>
      </trkpt>
      <trkpt lat="43.59916" lon="1.19081">
        <ele>240</ele>
        <time>2013-12-22T09:22:44.000Z</time>
      </trkpt>
      <trkpt lat="43.59927" lon="1.19083">
        <ele>240.80000305176</ele>
        <time>2013-12-22T09:22:49.000Z</time>
      </trkpt>
      <trkpt lat="43.59936" lon="1.19085">
        <ele>241.19999694824</ele>
        <time>2013-12-22T09:22:53.000Z</time>
      </trkpt>
      <trkpt lat="43.59949" lon="1.19088">
        <ele>241.60000610352</ele>
        <time>2013-12-22T09:22:59.000Z</time>
      </trkpt>
      <trkpt lat="43.5996" lon="1.19093">
        <ele>241.80000305176</ele>
        <time>2013-12-22T09:23:03.000Z</time>
      </trkpt>
      <trkpt lat="43.59969" lon="1.19096">
        <ele>242</ele>
        <time>2013-12-22T09:23:07.000Z</time>
      </trkpt>
      <trkpt lat="43.59979" lon="1.19099">
        <ele>242.19999694824</ele>
        <time>2013-12-22T09:23:11.000Z</time>
      </trkpt>
      <trkpt lat="43.59988" lon="1.19099">
        <ele>242.80000305176</ele>
        <time>2013-12-22T09:23:15.000Z</time>
      </trkpt>
      <trkpt lat="43.6" lon="1.19095">
        <ele>244.19999694824</ele>
        <time>2013-12-22T09:23:20.000Z</time>
      </trkpt>
      <trkpt lat="43.60016" lon="1.19088">
        <ele>244.80000305176</ele>
        <time>2013-12-22T09:23:27.000Z</time>
      </trkpt>
      <trkpt lat="43.60031" lon="1.19078">
        <ele>245.19999694824</ele>
        <time>2013-12-22T09:23:33.000Z</time>
      </trkpt>
      <trkpt lat="43.60046" lon="1.19071">
        <ele>245.19999694824</ele>
        <time>2013-12-22T09:23:39.000Z</time>
      </trkpt>
      <trkpt lat="43.60061" lon="1.19066">
        <ele>245</ele>
        <time>2013-12-22T09:23:45.000Z</time>
      </trkpt>
      <trkpt lat="43.60074" lon="1.19065">
        <ele>244.60000610352</ele>
        <time>2013-12-22T09:23:50.000Z</time>
      </trkpt>
      <trkpt lat="43.60089" lon="1.19072">
        <ele>243.39999389648</ele>
        <time>2013-12-22T09:23:56.000Z</time>
      </trkpt>
      <trkpt lat="43.60101" lon="1.19081">
        <ele>242.19999694824</ele>
        <time>2013-12-22T09:24:01.000Z</time>
      </trkpt>
      <trkpt lat="43.60113" lon="1.1909">
        <ele>241.19999694824</ele>
        <time>2013-12-22T09:24:06.000Z</time>
      </trkpt>
      <trkpt lat="43.60124" lon="1.19101">
        <ele>240</ele>
        <time>2013-12-22T09:24:11.000Z</time>
      </trkpt>
      <trkpt lat="43.60126" lon="1.19103">
        <ele>239.80000305176</ele>
        <time>2013-12-22T09:24:12.000Z</time>
      </trkpt>
      <trkpt lat="43.60144" lon="1.19116">
        <ele>238.60000610352</ele>
        <time>2013-12-22T09:24:19.000Z</time>
      </trkpt>
      <trkpt lat="43.60158" lon="1.19131">
        <ele>237.60000610352</ele>
        <time>2013-12-22T09:24:25.000Z</time>
      </trkpt>
      <trkpt lat="43.60167" lon="1.19143">
        <ele>236.80000305176</ele>
        <time>2013-12-22T09:24:30.000Z</time>
      </trkpt>
      <trkpt lat="43.6017" lon="1.19146">
        <ele>236.80000305176</ele>
        <time>2013-12-22T09:24:31.000Z</time>
      </trkpt>
      <trkpt lat="43.60182" lon="1.1916">
        <ele>237</ele>
        <time>2013-12-22T09:24:36.000Z</time>
      </trkpt>
      <trkpt lat="43.60193" lon="1.19172">
        <ele>237</ele>
        <time>2013-12-22T09:24:41.000Z</time>
      </trkpt>
      <trkpt lat="43.60203" lon="1.19185">
        <ele>236.60000610352</ele>
        <time>2013-12-22T09:24:46.000Z</time>
      </trkpt>
      <trkpt lat="43.6021" lon="1.19204">
        <ele>235.80000305176</ele>
        <time>2013-12-22T09:24:52.000Z</time>
      </trkpt>
      <trkpt lat="43.60217" lon="1.19227">
        <ele>235</ele>
        <time>2013-12-22T09:24:59.000Z</time>
      </trkpt>
      <trkpt lat="43.60222" lon="1.19244">
        <ele>234.19999694824</ele>
        <time>2013-12-22T09:25:04.000Z</time>
      </trkpt>
      <trkpt lat="43.60227" lon="1.19262">
        <ele>233.60000610352</ele>
        <time>2013-12-22T09:25:09.000Z</time>
      </trkpt>
      <trkpt lat="43.60235" lon="1.19281">
        <ele>233</ele>
        <time>2013-12-22T09:25:15.000Z</time>
      </trkpt>
      <trkpt lat="43.60241" lon="1.19295">
        <ele>232.60000610352</ele>
        <time>2013-12-22T09:25:19.000Z</time>
      </trkpt>
      <trkpt lat="43.6025" lon="1.1931">
        <ele>232.39999389648</ele>
        <time>2013-12-22T09:25:25.000Z</time>
      </trkpt>
      <trkpt lat="43.60261" lon="1.19324">
        <ele>232.19999694824</ele>
        <time>2013-12-22T09:25:30.000Z</time>
      </trkpt>
      <trkpt lat="43.60273" lon="1.19338">
        <ele>231.80000305176</ele>
        <time>2013-12-22T09:25:36.000Z</time>
      </trkpt>
      <trkpt lat="43.60283" lon="1.19353">
        <ele>230.80000305176</ele>
        <time>2013-12-22T09:25:42.000Z</time>
      </trkpt>
      <trkpt lat="43.60289" lon="1.1936">
        <ele>230.60000610352</ele>
        <time>2013-12-22T09:25:45.000Z</time>
      </trkpt>
      <trkpt lat="43.60302" lon="1.19372">
        <ele>230.39999389648</ele>
        <time>2013-12-22T09:25:51.000Z</time>
      </trkpt>
      <trkpt lat="43.60314" lon="1.19387">
        <ele>230.19999694824</ele>
        <time>2013-12-22T09:25:57.000Z</time>
      </trkpt>
      <trkpt lat="43.60324" lon="1.19401">
        <ele>230</ele>
        <time>2013-12-22T09:26:02.000Z</time>
      </trkpt>
      <trkpt lat="43.60336" lon="1.19419">
        <ele>230.19999694824</ele>
        <time>2013-12-22T09:26:08.000Z</time>
      </trkpt>
      <trkpt lat="43.60345" lon="1.19444">
        <ele>230.60000610352</ele>
        <time>2013-12-22T09:26:15.000Z</time>
      </trkpt>
      <trkpt lat="43.6035" lon="1.19465">
        <ele>230.80000305176</ele>
        <time>2013-12-22T09:26:21.000Z</time>
      </trkpt>
      <trkpt lat="43.60351" lon="1.19472">
        <ele>230.80000305176</ele>
        <time>2013-12-22T09:26:23.000Z</time>
      </trkpt>
      <trkpt lat="43.60348" lon="1.19495">
        <ele>229.80000305176</ele>
        <time>2013-12-22T09:26:29.000Z</time>
      </trkpt>
      <trkpt lat="43.60343" lon="1.19521">
        <ele>229.19999694824</ele>
        <time>2013-12-22T09:26:36.000Z</time>
      </trkpt>
      <trkpt lat="43.60339" lon="1.19543">
        <ele>228.80000305176</ele>
        <time>2013-12-22T09:26:42.000Z</time>
      </trkpt>
      <trkpt lat="43.60338" lon="1.19562">
        <ele>228.60000610352</ele>
        <time>2013-12-22T09:26:47.000Z</time>
      </trkpt>
      <trkpt lat="43.60335" lon="1.19584">
        <ele>228.19999694824</ele>
        <time>2013-12-22T09:26:53.000Z</time>
      </trkpt>
      <trkpt lat="43.6033" lon="1.19606">
        <ele>226.39999389648</ele>
        <time>2013-12-22T09:26:59.000Z</time>
      </trkpt>
      <trkpt lat="43.60327" lon="1.19626">
        <ele>225</ele>
        <time>2013-12-22T09:27:04.000Z</time>
      </trkpt>
      <trkpt lat="43.60325" lon="1.19647">
        <ele>223.80000305176</ele>
        <time>2013-12-22T09:27:09.000Z</time>
      </trkpt>
      <trkpt lat="43.60326" lon="1.19663">
        <ele>223.19999694824</ele>
        <time>2013-12-22T09:27:13.000Z</time>
      </trkpt>
      <trkpt lat="43.60327" lon="1.19681">
        <ele>223</ele>
        <time>2013-12-22T09:27:18.000Z</time>
      </trkpt>
      <trkpt lat="43.60326" lon="1.19729">
        <ele>222.19999694824</ele>
        <time>2013-12-22T09:27:30.000Z</time>
      </trkpt>
      <trkpt lat="43.60327" lon="1.19755">
        <ele>222.19999694824</ele>
        <time>2013-12-22T09:27:37.000Z</time>
      </trkpt>
      <trkpt lat="43.60326" lon="1.19779">
        <ele>222</ele>
        <time>2013-12-22T09:27:43.000Z</time>
      </trkpt>
      <trkpt lat="43.60324" lon="1.19803">
        <ele>221.80000305176</ele>
        <time>2013-12-22T09:27:49.000Z</time>
      </trkpt>
      <trkpt lat="43.60323" lon="1.19823">
        <ele>221.39999389648</ele>
        <time>2013-12-22T09:27:54.000Z</time>
      </trkpt>
      <trkpt lat="43.60324" lon="1.19851">
        <ele>220.19999694824</ele>
        <time>2013-12-22T09:28:01.000Z</time>
      </trkpt>
      <trkpt lat="43.60327" lon="1.19869">
        <ele>218.80000305176</ele>
        <time>2013-12-22T09:28:06.000Z</time>
      </trkpt>
      <trkpt lat="43.60335" lon="1.19884">
        <ele>218.19999694824</ele>
        <time>2013-12-22T09:28:11.000Z</time>
      </trkpt>
      <trkpt lat="43.60342" lon="1.19896">
        <ele>217.80000305176</ele>
        <time>2013-12-22T09:28:16.000Z</time>
      </trkpt>
      <trkpt lat="43.60357" lon="1.19908">
        <ele>218</ele>
        <time>2013-12-22T09:28:23.000Z</time>
      </trkpt>
      <trkpt lat="43.60377" lon="1.19933">
        <ele>217.60000610352</ele>
        <time>2013-12-22T09:28:34.000Z</time>
      </trkpt>
      <trkpt lat="43.6039" lon="1.19951">
        <ele>216.80000305176</ele>
        <time>2013-12-22T09:28:41.000Z</time>
      </trkpt>
      <trkpt lat="43.60395" lon="1.19959">
        <ele>216.39999389648</ele>
        <time>2013-12-22T09:28:44.000Z</time>
      </trkpt>
      <trkpt lat="43.60405" lon="1.19971">
        <ele>216</ele>
        <time>2013-12-22T09:28:49.000Z</time>
      </trkpt>
      <trkpt lat="43.60409" lon="1.19975">
        <ele>216</ele>
        <time>2013-12-22T09:28:51.000Z</time>
      </trkpt>
      <trkpt lat="43.60421" lon="1.19989">
        <ele>215.60000610352</ele>
        <time>2013-12-22T09:28:57.000Z</time>
      </trkpt>
      <trkpt lat="43.6043" lon="1.19999">
        <ele>215.19999694824</ele>
        <time>2013-12-22T09:29:01.000Z</time>
      </trkpt>
      <trkpt lat="43.60443" lon="1.20012">
        <ele>215.39999389648</ele>
        <time>2013-12-22T09:29:07.000Z</time>
      </trkpt>
      <trkpt lat="43.60455" lon="1.20027">
        <ele>215.39999389648</ele>
        <time>2013-12-22T09:29:13.000Z</time>
      </trkpt>
      <trkpt lat="43.60469" lon="1.20042">
        <ele>215.60000610352</ele>
        <time>2013-12-22T09:29:19.000Z</time>
      </trkpt>
      <trkpt lat="43.60479" lon="1.20056">
        <ele>215.60000610352</ele>
        <time>2013-12-22T09:29:24.000Z</time>
      </trkpt>
      <trkpt lat="43.6049" lon="1.20072">
        <ele>215.60000610352</ele>
        <time>2013-12-22T09:29:30.000Z</time>
      </trkpt>
      <trkpt lat="43.605" lon="1.20086">
        <ele>215.80000305176</ele>
        <time>2013-12-22T09:29:35.000Z</time>
      </trkpt>
      <trkpt lat="43.60511" lon="1.20096">
        <ele>215.80000305176</ele>
        <time>2013-12-22T09:29:40.000Z</time>
      </trkpt>
      <trkpt lat="43.60521" lon="1.20106">
        <ele>215.60000610352</ele>
        <time>2013-12-22T09:29:44.000Z</time>
      </trkpt>
      <trkpt lat="43.6053" lon="1.20118">
        <ele>215.60000610352</ele>
        <time>2013-12-22T09:29:48.000Z</time>
      </trkpt>
      <trkpt lat="43.60538" lon="1.20133">
        <ele>215.19999694824</ele>
        <time>2013-12-22T09:29:53.000Z</time>
      </trkpt>
      <trkpt lat="43.60545" lon="1.20154">
        <ele>214.60000610352</ele>
        <time>2013-12-22T09:29:59.000Z</time>
      </trkpt>
      <trkpt lat="43.60551" lon="1.20167">
        <ele>214.60000610352</ele>
        <time>2013-12-22T09:30:03.000Z</time>
      </trkpt>
      <trkpt lat="43.60555" lon="1.20177">
        <ele>214.19999694824</ele>
        <time>2013-12-22T09:30:06.000Z</time>
      </trkpt>
      <trkpt lat="43.60562" lon="1.20195">
        <ele>214</ele>
        <time>2013-12-22T09:30:12.000Z</time>
      </trkpt>
      <trkpt lat="43.60569" lon="1.20211">
        <ele>213.60000610352</ele>
        <time>2013-12-22T09:30:17.000Z</time>
      </trkpt>
      <trkpt lat="43.60579" lon="1.20235">
        <ele>212.80000305176</ele>
        <time>2013-12-22T09:30:24.000Z</time>
      </trkpt>
      <trkpt lat="43.60586" lon="1.20248">
        <ele>212.19999694824</ele>
        <time>2013-12-22T09:30:28.000Z</time>
      </trkpt>
      <trkpt lat="43.60595" lon="1.20264">
        <ele>211.60000610352</ele>
        <time>2013-12-22T09:30:33.000Z</time>
      </trkpt>
      <trkpt lat="43.60604" lon="1.2028">
        <ele>211.19999694824</ele>
        <time>2013-12-22T09:30:39.000Z</time>
      </trkpt>
      <trkpt lat="43.60615" lon="1.20295">
        <ele>211.19999694824</ele>
        <time>2013-12-22T09:30:45.000Z</time>
      </trkpt>
      <trkpt lat="43.60626" lon="1.20309">
        <ele>211.19999694824</ele>
        <time>2013-12-22T09:30:50.000Z</time>
      </trkpt>
      <trkpt lat="43.60637" lon="1.20328">
        <ele>211.39999389648</ele>
        <time>2013-12-22T09:30:57.000Z</time>
      </trkpt>
      <trkpt lat="43.60646" lon="1.20343">
        <ele>211.60000610352</ele>
        <time>2013-12-22T09:31:02.000Z</time>
      </trkpt>
      <trkpt lat="43.60653" lon="1.20351">
        <ele>212</ele>
        <time>2013-12-22T09:31:06.000Z</time>
      </trkpt>
      <trkpt lat="43.60664" lon="1.20358">
        <ele>212.60000610352</ele>
        <time>2013-12-22T09:31:11.000Z</time>
      </trkpt>
      <trkpt lat="43.60681" lon="1.20363">
        <ele>213.39999389648</ele>
        <time>2013-12-22T09:31:17.000Z</time>
      </trkpt>
      <trkpt lat="43.60692" lon="1.20367">
        <ele>213.80000305176</ele>
        <time>2013-12-22T09:31:22.000Z</time>
      </trkpt>
      <trkpt lat="43.6071" lon="1.20377">
        <ele>214.80000305176</ele>
        <time>2013-12-22T09:31:29.000Z</time>
      </trkpt>
      <trkpt lat="43.60726" lon="1.20391">
        <ele>216</ele>
        <time>2013-12-22T09:31:36.000Z</time>
      </trkpt>
      <trkpt lat="43.60735" lon="1.20397">
        <ele>217</ele>
        <time>2013-12-22T09:31:40.000Z</time>
      </trkpt>
      <trkpt lat="43.60757" lon="1.20405">
        <ele>218.80000305176</ele>
        <time>2013-12-22T09:31:49.000Z</time>
      </trkpt>
      <trkpt lat="43.6077" lon="1.20414">
        <ele>219.60000610352</ele>
        <time>2013-12-22T09:31:54.000Z</time>
      </trkpt>
      <trkpt lat="43.6078" lon="1.20421">
        <ele>219.80000305176</ele>
        <time>2013-12-22T09:31:58.000Z</time>
      </trkpt>
      <trkpt lat="43.60793" lon="1.20427">
        <ele>220</ele>
        <time>2013-12-22T09:32:03.000Z</time>
      </trkpt>
      <trkpt lat="43.60805" lon="1.20429">
        <ele>220.39999389648</ele>
        <time>2013-12-22T09:32:08.000Z</time>
      </trkpt>
      <trkpt lat="43.60818" lon="1.20425">
        <ele>221.19999694824</ele>
        <time>2013-12-22T09:32:14.000Z</time>
      </trkpt>
      <trkpt lat="43.60835" lon="1.20417">
        <ele>222</ele>
        <time>2013-12-22T09:32:21.000Z</time>
      </trkpt>
      <trkpt lat="43.60846" lon="1.20414">
        <ele>222.80000305176</ele>
        <time>2013-12-22T09:32:26.000Z</time>
      </trkpt>
      <trkpt lat="43.60859" lon="1.20408">
        <ele>223.80000305176</ele>
        <time>2013-12-22T09:32:32.000Z</time>
      </trkpt>
      <trkpt lat="43.60874" lon="1.20403">
        <ele>224.80000305176</ele>
        <time>2013-12-22T09:32:38.000Z</time>
      </trkpt>
      <trkpt lat="43.60876" lon="1.20403">
        <ele>225</ele>
        <time>2013-12-22T09:32:39.000Z</time>
      </trkpt>
      <trkpt lat="43.60891" lon="1.20403">
        <ele>226</ele>
        <time>2013-12-22T09:32:45.000Z</time>
      </trkpt>
      <trkpt lat="43.60893" lon="1.20402">
        <ele>226.19999694824</ele>
        <time>2013-12-22T09:32:46.000Z</time>
      </trkpt>
      <trkpt lat="43.60898" lon="1.20402">
        <ele>226.39999389648</ele>
        <time>2013-12-22T09:32:48.000Z</time>
      </trkpt>
      <trkpt lat="43.60912" lon="1.20401">
        <ele>227.39999389648</ele>
        <time>2013-12-22T09:32:54.000Z</time>
      </trkpt>
      <trkpt lat="43.60914" lon="1.20401">
        <ele>227.60000610352</ele>
        <time>2013-12-22T09:32:55.000Z</time>
      </trkpt>
      <trkpt lat="43.60929" lon="1.20401">
        <ele>227.60000610352</ele>
        <time>2013-12-22T09:33:01.000Z</time>
      </trkpt>
      <trkpt lat="43.60941" lon="1.20408">
        <ele>227.19999694824</ele>
        <time>2013-12-22T09:33:06.000Z</time>
      </trkpt>
      <trkpt lat="43.60955" lon="1.20416">
        <ele>226.60000610352</ele>
        <time>2013-12-22T09:33:12.000Z</time>
      </trkpt>
      <trkpt lat="43.60959" lon="1.20419">
        <ele>226.19999694824</ele>
        <time>2013-12-22T09:33:14.000Z</time>
      </trkpt>
      <trkpt lat="43.60978" lon="1.20427">
        <ele>225.39999389648</ele>
        <time>2013-12-22T09:33:21.000Z</time>
      </trkpt>
      <trkpt lat="43.60992" lon="1.20433">
        <ele>225</ele>
        <time>2013-12-22T09:33:26.000Z</time>
      </trkpt>
      <trkpt lat="43.61006" lon="1.20437">
        <ele>224.19999694824</ele>
        <time>2013-12-22T09:33:31.000Z</time>
      </trkpt>
      <trkpt lat="43.6102" lon="1.20441">
        <ele>223.39999389648</ele>
        <time>2013-12-22T09:33:36.000Z</time>
      </trkpt>
      <trkpt lat="43.61038" lon="1.20445">
        <ele>222.19999694824</ele>
        <time>2013-12-22T09:33:43.000Z</time>
      </trkpt>
      <trkpt lat="43.61045" lon="1.2045">
        <ele>221.60000610352</ele>
        <time>2013-12-22T09:33:46.000Z</time>
      </trkpt>
      <trkpt lat="43.61057" lon="1.20458">
        <ele>220.60000610352</ele>
        <time>2013-12-22T09:33:51.000Z</time>
      </trkpt>
      <trkpt lat="43.6107" lon="1.20469">
        <ele>219.39999389648</ele>
        <time>2013-12-22T09:33:57.000Z</time>
      </trkpt>
      <trkpt lat="43.61085" lon="1.20477">
        <ele>218.39999389648</ele>
        <time>2013-12-22T09:34:03.000Z</time>
      </trkpt>
      <trkpt lat="43.61096" lon="1.20483">
        <ele>217.80000305176</ele>
        <time>2013-12-22T09:34:07.000Z</time>
      </trkpt>
      <trkpt lat="43.61112" lon="1.20486">
        <ele>217.39999389648</ele>
        <time>2013-12-22T09:34:13.000Z</time>
      </trkpt>
      <trkpt lat="43.61115" lon="1.20486">
        <ele>217.19999694824</ele>
        <time>2013-12-22T09:34:14.000Z</time>
      </trkpt>
      <trkpt lat="43.61126" lon="1.20485">
        <ele>217.19999694824</ele>
        <time>2013-12-22T09:34:19.000Z</time>
      </trkpt>
      <trkpt lat="43.61139" lon="1.2048">
        <ele>217.39999389648</ele>
        <time>2013-12-22T09:34:25.000Z</time>
      </trkpt>
      <trkpt lat="43.6115" lon="1.20475">
        <ele>217.60000610352</ele>
        <time>2013-12-22T09:34:30.000Z</time>
      </trkpt>
      <trkpt lat="43.61151" lon="1.20474">
        <ele>217.80000305176</ele>
        <time>2013-12-22T09:34:31.000Z</time>
      </trkpt>
      <trkpt lat="43.61169" lon="1.20469">
        <ele>218</ele>
        <time>2013-12-22T09:34:38.000Z</time>
      </trkpt>
      <trkpt lat="43.6118" lon="1.20468">
        <ele>218.39999389648</ele>
        <time>2013-12-22T09:34:42.000Z</time>
      </trkpt>
      <trkpt lat="43.612" lon="1.20472">
        <ele>218.60000610352</ele>
        <time>2013-12-22T09:34:50.000Z</time>
      </trkpt>
      <trkpt lat="43.61213" lon="1.20478">
        <ele>218.39999389648</ele>
        <time>2013-12-22T09:34:55.000Z</time>
      </trkpt>
      <trkpt lat="43.61222" lon="1.20487">
        <ele>218</ele>
        <time>2013-12-22T09:34:59.000Z</time>
      </trkpt>
      <trkpt lat="43.61224" lon="1.2049">
        <ele>217.80000305176</ele>
        <time>2013-12-22T09:35:00.000Z</time>
      </trkpt>
      <trkpt lat="43.61237" lon="1.20502">
        <ele>217.39999389648</ele>
        <time>2013-12-22T09:35:06.000Z</time>
      </trkpt>
      <trkpt lat="43.61248" lon="1.20516">
        <ele>216.60000610352</ele>
        <time>2013-12-22T09:35:11.000Z</time>
      </trkpt>
      <trkpt lat="43.61255" lon="1.20526">
        <ele>216</ele>
        <time>2013-12-22T09:35:15.000Z</time>
      </trkpt>
      <trkpt lat="43.61266" lon="1.20541">
        <ele>215.19999694824</ele>
        <time>2013-12-22T09:35:21.000Z</time>
      </trkpt>
      <trkpt lat="43.61276" lon="1.20557">
        <ele>214.39999389648</ele>
        <time>2013-12-22T09:35:27.000Z</time>
      </trkpt>
      <trkpt lat="43.61278" lon="1.2056">
        <ele>214.39999389648</ele>
        <time>2013-12-22T09:35:28.000Z</time>
      </trkpt>
      <trkpt lat="43.61286" lon="1.20576">
        <ele>213.60000610352</ele>
        <time>2013-12-22T09:35:34.000Z</time>
      </trkpt>
      <trkpt lat="43.61289" lon="1.2058">
        <ele>213.60000610352</ele>
        <time>2013-12-22T09:35:36.000Z</time>
      </trkpt>
      <trkpt lat="43.61302" lon="1.20598">
        <ele>213.39999389648</ele>
        <time>2013-12-22T09:35:43.000Z</time>
      </trkpt>
      <trkpt lat="43.61307" lon="1.20604">
        <ele>213.39999389648</ele>
        <time>2013-12-22T09:35:47.000Z</time>
      </trkpt>
      <trkpt lat="43.61311" lon="1.20607">
        <ele>213.39999389648</ele>
        <time>2013-12-22T09:35:51.000Z</time>
      </trkpt>
      <trkpt lat="43.61311" lon="1.20607">
        <ele>213.39999389648</ele>
        <time>2013-12-22T09:35:52.000Z</time>
      </trkpt>
      <trkpt lat="43.61318" lon="1.20617">
        <ele>213.39999389648</ele>
        <time>2013-12-22T09:36:00.000Z</time>
      </trkpt>
      <trkpt lat="43.61319" lon="1.20619">
        <ele>213.39999389648</ele>
        <time>2013-12-22T09:36:01.000Z</time>
      </trkpt>
      <trkpt lat="43.61326" lon="1.20629">
        <ele>213.39999389648</ele>
        <time>2013-12-22T09:36:06.000Z</time>
      </trkpt>
      <trkpt lat="43.61329" lon="1.20633">
        <ele>213.19999694824</ele>
        <time>2013-12-22T09:36:08.000Z</time>
      </trkpt>
      <trkpt lat="43.61337" lon="1.20649">
        <ele>213.39999389648</ele>
        <time>2013-12-22T09:36:14.000Z</time>
      </trkpt>
      <trkpt lat="43.61342" lon="1.20656">
        <ele>213.80000305176</ele>
        <time>2013-12-22T09:36:17.000Z</time>
      </trkpt>
      <trkpt lat="43.6135" lon="1.20669">
        <ele>214.19999694824</ele>
        <time>2013-12-22T09:36:22.000Z</time>
      </trkpt>
      <trkpt lat="43.61359" lon="1.20686">
        <ele>214.39999389648</ele>
        <time>2013-12-22T09:36:29.000Z</time>
      </trkpt>
      <trkpt lat="43.6137" lon="1.20703">
        <ele>215</ele>
        <time>2013-12-22T09:36:35.000Z</time>
      </trkpt>
      <trkpt lat="43.61381" lon="1.20723">
        <ele>215.39999389648</ele>
        <time>2013-12-22T09:36:42.000Z</time>
      </trkpt>
      <trkpt lat="43.61393" lon="1.20741">
        <ele>216</ele>
        <time>2013-12-22T09:36:48.000Z</time>
      </trkpt>
      <trkpt lat="43.61402" lon="1.20759">
        <ele>216.19999694824</ele>
        <time>2013-12-22T09:36:54.000Z</time>
      </trkpt>
      <trkpt lat="43.61411" lon="1.20776">
        <ele>216.19999694824</ele>
        <time>2013-12-22T09:37:00.000Z</time>
      </trkpt>
      <trkpt lat="43.61418" lon="1.20791">
        <ele>215.80000305176</ele>
        <time>2013-12-22T09:37:05.000Z</time>
      </trkpt>
      <trkpt lat="43.61428" lon="1.20808">
        <ele>215.60000610352</ele>
        <time>2013-12-22T09:37:11.000Z</time>
      </trkpt>
      <trkpt lat="43.61437" lon="1.2083">
        <ele>215.19999694824</ele>
        <time>2013-12-22T09:37:18.000Z</time>
      </trkpt>
      <trkpt lat="43.61443" lon="1.20845">
        <ele>215.19999694824</ele>
        <time>2013-12-22T09:37:23.000Z</time>
      </trkpt>
      <trkpt lat="43.61452" lon="1.20863">
        <ele>215.60000610352</ele>
        <time>2013-12-22T09:37:29.000Z</time>
      </trkpt>
      <trkpt lat="43.6146" lon="1.20876">
        <ele>215.80000305176</ele>
        <time>2013-12-22T09:37:34.000Z</time>
      </trkpt>
      <trkpt lat="43.61469" lon="1.20894">
        <ele>216.39999389648</ele>
        <time>2013-12-22T09:37:40.000Z</time>
      </trkpt>
      <trkpt lat="43.61482" lon="1.20915">
        <ele>217.19999694824</ele>
        <time>2013-12-22T09:37:47.000Z</time>
      </trkpt>
      <trkpt lat="43.6149" lon="1.20929">
        <ele>217</ele>
        <time>2013-12-22T09:37:52.000Z</time>
      </trkpt>
      <trkpt lat="43.61496" lon="1.20941">
        <ele>216.60000610352</ele>
        <time>2013-12-22T09:37:56.000Z</time>
      </trkpt>
      <trkpt lat="43.61507" lon="1.20958">
        <ele>215.39999389648</ele>
        <time>2013-12-22T09:38:02.000Z</time>
      </trkpt>
      <trkpt lat="43.61517" lon="1.20973">
        <ele>214.39999389648</ele>
        <time>2013-12-22T09:38:08.000Z</time>
      </trkpt>
      <trkpt lat="43.61525" lon="1.20987">
        <ele>213.39999389648</ele>
        <time>2013-12-22T09:38:13.000Z</time>
      </trkpt>
      <trkpt lat="43.61532" lon="1.21002">
        <ele>212.60000610352</ele>
        <time>2013-12-22T09:38:18.000Z</time>
      </trkpt>
      <trkpt lat="43.61539" lon="1.21016">
        <ele>212.39999389648</ele>
        <time>2013-12-22T09:38:23.000Z</time>
      </trkpt>
      <trkpt lat="43.61545" lon="1.21032">
        <ele>212</ele>
        <time>2013-12-22T09:38:28.000Z</time>
      </trkpt>
      <trkpt lat="43.61556" lon="1.21055">
        <ele>212</ele>
        <time>2013-12-22T09:38:36.000Z</time>
      </trkpt>
      <trkpt lat="43.61563" lon="1.2107">
        <ele>211.80000305176</ele>
        <time>2013-12-22T09:38:41.000Z</time>
      </trkpt>
      <trkpt lat="43.61572" lon="1.21083">
        <ele>211.80000305176</ele>
        <time>2013-12-22T09:38:46.000Z</time>
      </trkpt>
      <trkpt lat="43.61575" lon="1.21089">
        <ele>212</ele>
        <time>2013-12-22T09:38:48.000Z</time>
      </trkpt>
      <trkpt lat="43.61582" lon="1.21099">
        <ele>212.19999694824</ele>
        <time>2013-12-22T09:38:52.000Z</time>
      </trkpt>
      <trkpt lat="43.61588" lon="1.2111">
        <ele>212.19999694824</ele>
        <time>2013-12-22T09:38:56.000Z</time>
      </trkpt>
      <trkpt lat="43.61599" lon="1.21122">
        <ele>212</ele>
        <time>2013-12-22T09:39:02.000Z</time>
      </trkpt>
      <trkpt lat="43.61606" lon="1.21131">
        <ele>211.80000305176</ele>
        <time>2013-12-22T09:39:06.000Z</time>
      </trkpt>
      <trkpt lat="43.61616" lon="1.21144">
        <ele>211.80000305176</ele>
        <time>2013-12-22T09:39:11.000Z</time>
      </trkpt>
      <trkpt lat="43.61625" lon="1.21156">
        <ele>211.80000305176</ele>
        <time>2013-12-22T09:39:16.000Z</time>
      </trkpt>
      <trkpt lat="43.61634" lon="1.21171">
        <ele>211.80000305176</ele>
        <time>2013-12-22T09:39:22.000Z</time>
      </trkpt>
      <trkpt lat="43.61641" lon="1.21178">
        <ele>212</ele>
        <time>2013-12-22T09:39:25.000Z</time>
      </trkpt>
      <trkpt lat="43.61651" lon="1.21193">
        <ele>212.39999389648</ele>
        <time>2013-12-22T09:39:31.000Z</time>
      </trkpt>
      <trkpt lat="43.61649" lon="1.21209">
        <ele>212.19999694824</ele>
        <time>2013-12-22T09:39:36.000Z</time>
      </trkpt>
      <trkpt lat="43.61646" lon="1.21214">
        <ele>212</ele>
        <time>2013-12-22T09:39:38.000Z</time>
      </trkpt>
      <trkpt lat="43.61639" lon="1.2124">
        <ele>211.39999389648</ele>
        <time>2013-12-22T09:39:46.000Z</time>
      </trkpt>
      <trkpt lat="43.61638" lon="1.21256">
        <ele>211.19999694824</ele>
        <time>2013-12-22T09:39:51.000Z</time>
      </trkpt>
      <trkpt lat="43.61637" lon="1.21259">
        <ele>211.19999694824</ele>
        <time>2013-12-22T09:39:52.000Z</time>
      </trkpt>
      <trkpt lat="43.61627" lon="1.21271">
        <ele>210.19999694824</ele>
        <time>2013-12-22T09:39:57.000Z</time>
      </trkpt>
      <trkpt lat="43.61623" lon="1.21276">
        <ele>210</ele>
        <time>2013-12-22T09:39:59.000Z</time>
      </trkpt>
      <trkpt lat="43.61613" lon="1.21295">
        <ele>208.80000305176</ele>
        <time>2013-12-22T09:40:05.000Z</time>
      </trkpt>
      <trkpt lat="43.61601" lon="1.21315">
        <ele>207.19999694824</ele>
        <time>2013-12-22T09:40:12.000Z</time>
      </trkpt>
      <trkpt lat="43.61592" lon="1.21332">
        <ele>205.80000305176</ele>
        <time>2013-12-22T09:40:18.000Z</time>
      </trkpt>
      <trkpt lat="43.61578" lon="1.21357">
        <ele>204.19999694824</ele>
        <time>2013-12-22T09:40:27.000Z</time>
      </trkpt>
      <trkpt lat="43.61568" lon="1.21373">
        <ele>203.80000305176</ele>
        <time>2013-12-22T09:40:33.000Z</time>
      </trkpt>
      <trkpt lat="43.61557" lon="1.21391">
        <ele>203.39999389648</ele>
        <time>2013-12-22T09:40:39.000Z</time>
      </trkpt>
      <trkpt lat="43.61548" lon="1.21408">
        <ele>203</ele>
        <time>2013-12-22T09:40:45.000Z</time>
      </trkpt>
      <trkpt lat="43.61538" lon="1.21425">
        <ele>202.60000610352</ele>
        <time>2013-12-22T09:40:51.000Z</time>
      </trkpt>
      <trkpt lat="43.6153" lon="1.21438">
        <ele>202.19999694824</ele>
        <time>2013-12-22T09:40:56.000Z</time>
      </trkpt>
      <trkpt lat="43.61522" lon="1.21452">
        <ele>201.60000610352</ele>
        <time>2013-12-22T09:41:01.000Z</time>
      </trkpt>
      <trkpt lat="43.61514" lon="1.21466">
        <ele>201.19999694824</ele>
        <time>2013-12-22T09:41:06.000Z</time>
      </trkpt>
      <trkpt lat="43.61504" lon="1.21482">
        <ele>200.60000610352</ele>
        <time>2013-12-22T09:41:12.000Z</time>
      </trkpt>
      <trkpt lat="43.61497" lon="1.21496">
        <ele>200</ele>
        <time>2013-12-22T09:41:17.000Z</time>
      </trkpt>
      <trkpt lat="43.61486" lon="1.21512">
        <ele>199.80000305176</ele>
        <time>2013-12-22T09:41:23.000Z</time>
      </trkpt>
      <trkpt lat="43.61475" lon="1.21528">
        <ele>199.60000610352</ele>
        <time>2013-12-22T09:41:29.000Z</time>
      </trkpt>
      <trkpt lat="43.61463" lon="1.21548">
        <ele>199.39999389648</ele>
        <time>2013-12-22T09:41:36.000Z</time>
      </trkpt>
      <trkpt lat="43.61455" lon="1.21563">
        <ele>199</ele>
        <time>2013-12-22T09:41:41.000Z</time>
      </trkpt>
      <trkpt lat="43.61445" lon="1.2158">
        <ele>198.60000610352</ele>
        <time>2013-12-22T09:41:47.000Z</time>
      </trkpt>
      <trkpt lat="43.61435" lon="1.21597">
        <ele>198.39999389648</ele>
        <time>2013-12-22T09:41:53.000Z</time>
      </trkpt>
      <trkpt lat="43.61424" lon="1.21614">
        <ele>198.19999694824</ele>
        <time>2013-12-22T09:41:59.000Z</time>
      </trkpt>
      <trkpt lat="43.61414" lon="1.21631">
        <ele>198</ele>
        <time>2013-12-22T09:42:05.000Z</time>
      </trkpt>
      <trkpt lat="43.61404" lon="1.21649">
        <ele>198</ele>
        <time>2013-12-22T09:42:11.000Z</time>
      </trkpt>
      <trkpt lat="43.61396" lon="1.21662">
        <ele>198.19999694824</ele>
        <time>2013-12-22T09:42:16.000Z</time>
      </trkpt>
      <trkpt lat="43.61382" lon="1.2169">
        <ele>198.39999389648</ele>
        <time>2013-12-22T09:42:26.000Z</time>
      </trkpt>
      <trkpt lat="43.61386" lon="1.217">
        <ele>198.39999389648</ele>
        <time>2013-12-22T09:42:30.000Z</time>
      </trkpt>
      <trkpt lat="43.61389" lon="1.21712">
        <ele>198.39999389648</ele>
        <time>2013-12-22T09:42:34.000Z</time>
      </trkpt>
      <trkpt lat="43.61394" lon="1.2173">
        <ele>198.39999389648</ele>
        <time>2013-12-22T09:42:40.000Z</time>
      </trkpt>
      <trkpt lat="43.61398" lon="1.21747">
        <ele>198.60000610352</ele>
        <time>2013-12-22T09:42:45.000Z</time>
      </trkpt>
      <trkpt lat="43.61397" lon="1.21767">
        <ele>198.60000610352</ele>
        <time>2013-12-22T09:42:51.000Z</time>
      </trkpt>
      <trkpt lat="43.61397" lon="1.21784">
        <ele>198.80000305176</ele>
        <time>2013-12-22T09:42:56.000Z</time>
      </trkpt>
      <trkpt lat="43.61393" lon="1.21807">
        <ele>199</ele>
        <time>2013-12-22T09:43:03.000Z</time>
      </trkpt>
      <trkpt lat="43.61389" lon="1.21824">
        <ele>199</ele>
        <time>2013-12-22T09:43:08.000Z</time>
      </trkpt>
      <trkpt lat="43.61386" lon="1.21844">
        <ele>198.60000610352</ele>
        <time>2013-12-22T09:43:14.000Z</time>
      </trkpt>
      <trkpt lat="43.61384" lon="1.21861">
        <ele>198</ele>
        <time>2013-12-22T09:43:19.000Z</time>
      </trkpt>
      <trkpt lat="43.61382" lon="1.21883">
        <ele>197.39999389648</ele>
        <time>2013-12-22T09:43:25.000Z</time>
      </trkpt>
      <trkpt lat="43.61378" lon="1.21904">
        <ele>196.80000305176</ele>
        <time>2013-12-22T09:43:31.000Z</time>
      </trkpt>
      <trkpt lat="43.61375" lon="1.21927">
        <ele>196.39999389648</ele>
        <time>2013-12-22T09:43:37.000Z</time>
      </trkpt>
      <trkpt lat="43.61371" lon="1.21949">
        <ele>195.80000305176</ele>
        <time>2013-12-22T09:43:43.000Z</time>
      </trkpt>
      <trkpt lat="43.6137" lon="1.2197">
        <ele>195.60000610352</ele>
        <time>2013-12-22T09:43:49.000Z</time>
      </trkpt>
      <trkpt lat="43.61367" lon="1.21991">
        <ele>195.19999694824</ele>
        <time>2013-12-22T09:43:55.000Z</time>
      </trkpt>
      <trkpt lat="43.61363" lon="1.22016">
        <ele>195.19999694824</ele>
        <time>2013-12-22T09:44:02.000Z</time>
      </trkpt>
      <trkpt lat="43.6136" lon="1.22036">
        <ele>195.19999694824</ele>
        <time>2013-12-22T09:44:08.000Z</time>
      </trkpt>
      <trkpt lat="43.61357" lon="1.22054">
        <ele>195.39999389648</ele>
        <time>2013-12-22T09:44:13.000Z</time>
      </trkpt>
      <trkpt lat="43.61354" lon="1.22075">
        <ele>195.60000610352</ele>
        <time>2013-12-22T09:44:19.000Z</time>
      </trkpt>
      <trkpt lat="43.6135" lon="1.22099">
        <ele>195.60000610352</ele>
        <time>2013-12-22T09:44:26.000Z</time>
      </trkpt>
      <trkpt lat="43.61345" lon="1.22122">
        <ele>195.39999389648</ele>
        <time>2013-12-22T09:44:33.000Z</time>
      </trkpt>
      <trkpt lat="43.61342" lon="1.22134">
        <ele>195.39999389648</ele>
        <time>2013-12-22T09:44:37.000Z</time>
      </trkpt>
      <trkpt lat="43.61341" lon="1.22141">
        <ele>195.19999694824</ele>
        <time>2013-12-22T09:44:39.000Z</time>
      </trkpt>
      <trkpt lat="43.61339" lon="1.22163">
        <ele>195</ele>
        <time>2013-12-22T09:44:45.000Z</time>
      </trkpt>
      <trkpt lat="43.61334" lon="1.22181">
        <ele>194.60000610352</ele>
        <time>2013-12-22T09:44:51.000Z</time>
      </trkpt>
      <trkpt lat="43.61332" lon="1.2219">
        <ele>194.39999389648</ele>
        <time>2013-12-22T09:44:54.000Z</time>
      </trkpt>
      <trkpt lat="43.61328" lon="1.22209">
        <ele>194</ele>
        <time>2013-12-22T09:45:00.000Z</time>
      </trkpt>
      <trkpt lat="43.61327" lon="1.22214">
        <ele>194</ele>
        <time>2013-12-22T09:45:02.000Z</time>
      </trkpt>
      <trkpt lat="43.6132" lon="1.22226">
        <ele>194</ele>
        <time>2013-12-22T09:45:07.000Z</time>
      </trkpt>
      <trkpt lat="43.61311" lon="1.22238">
        <ele>194</ele>
        <time>2013-12-22T09:45:12.000Z</time>
      </trkpt>
      <trkpt lat="43.61298" lon="1.22253">
        <ele>194.19999694824</ele>
        <time>2013-12-22T09:45:18.000Z</time>
      </trkpt>
      <trkpt lat="43.61286" lon="1.22266">
        <ele>194.60000610352</ele>
        <time>2013-12-22T09:45:24.000Z</time>
      </trkpt>
      <trkpt lat="43.61272" lon="1.22282">
        <ele>195</ele>
        <time>2013-12-22T09:45:31.000Z</time>
      </trkpt>
      <trkpt lat="43.61257" lon="1.22296">
        <ele>195.19999694824</ele>
        <time>2013-12-22T09:45:38.000Z</time>
      </trkpt>
      <trkpt lat="43.61246" lon="1.22306">
        <ele>195.19999694824</ele>
        <time>2013-12-22T09:45:44.000Z</time>
      </trkpt>
      <trkpt lat="43.61229" lon="1.22319">
        <ele>195</ele>
        <time>2013-12-22T09:45:52.000Z</time>
      </trkpt>
      <trkpt lat="43.61218" lon="1.22328">
        <ele>195</ele>
        <time>2013-12-22T09:45:57.000Z</time>
      </trkpt>
      <trkpt lat="43.61206" lon="1.22336">
        <ele>195</ele>
        <time>2013-12-22T09:46:02.000Z</time>
      </trkpt>
      <trkpt lat="43.61194" lon="1.22346">
        <ele>195</ele>
        <time>2013-12-22T09:46:07.000Z</time>
      </trkpt>
      <trkpt lat="43.61184" lon="1.22354">
        <ele>195</ele>
        <time>2013-12-22T09:46:12.000Z</time>
      </trkpt>
      <trkpt lat="43.61173" lon="1.22363">
        <ele>195</ele>
        <time>2013-12-22T09:46:17.000Z</time>
      </trkpt>
      <trkpt lat="43.61144" lon="1.22388">
        <ele>194.60000610352</ele>
        <time>2013-12-22T09:46:30.000Z</time>
      </trkpt>
      <trkpt lat="43.61131" lon="1.22409">
        <ele>194.60000610352</ele>
        <time>2013-12-22T09:46:38.000Z</time>
      </trkpt>
      <trkpt lat="43.61125" lon="1.22428">
        <ele>194.39999389648</ele>
        <time>2013-12-22T09:46:44.000Z</time>
      </trkpt>
      <trkpt lat="43.61118" lon="1.22448">
        <ele>194</ele>
        <time>2013-12-22T09:46:51.000Z</time>
      </trkpt>
      <trkpt lat="43.61112" lon="1.22465">
        <ele>193.80000305176</ele>
        <time>2013-12-22T09:46:57.000Z</time>
      </trkpt>
      <trkpt lat="43.61107" lon="1.2248">
        <ele>193.60000610352</ele>
        <time>2013-12-22T09:47:02.000Z</time>
      </trkpt>
      <trkpt lat="43.61102" lon="1.22496">
        <ele>193.19999694824</ele>
        <time>2013-12-22T09:47:07.000Z</time>
      </trkpt>
      <trkpt lat="43.61097" lon="1.22512">
        <ele>193.19999694824</ele>
        <time>2013-12-22T09:47:12.000Z</time>
      </trkpt>
      <trkpt lat="43.61091" lon="1.22531">
        <ele>193</ele>
        <time>2013-12-22T09:47:18.000Z</time>
      </trkpt>
      <trkpt lat="43.61085" lon="1.2255">
        <ele>193</ele>
        <time>2013-12-22T09:47:24.000Z</time>
      </trkpt>
      <trkpt lat="43.61079" lon="1.22569">
        <ele>193</ele>
        <time>2013-12-22T09:47:30.000Z</time>
      </trkpt>
      <trkpt lat="43.61073" lon="1.22592">
        <ele>193.19999694824</ele>
        <time>2013-12-22T09:47:37.000Z</time>
      </trkpt>
      <trkpt lat="43.61068" lon="1.22608">
        <ele>193.39999389648</ele>
        <time>2013-12-22T09:47:42.000Z</time>
      </trkpt>
      <trkpt lat="43.61064" lon="1.22621">
        <ele>193.60000610352</ele>
        <time>2013-12-22T09:47:46.000Z</time>
      </trkpt>
      <trkpt lat="43.61057" lon="1.2264">
        <ele>193.80000305176</ele>
        <time>2013-12-22T09:47:52.000Z</time>
      </trkpt>
      <trkpt lat="43.61048" lon="1.22656">
        <ele>194.19999694824</ele>
        <time>2013-12-22T09:47:58.000Z</time>
      </trkpt>
      <trkpt lat="43.61039" lon="1.22672">
        <ele>194.60000610352</ele>
        <time>2013-12-22T09:48:04.000Z</time>
      </trkpt>
      <trkpt lat="43.61028" lon="1.2269">
        <ele>194.80000305176</ele>
        <time>2013-12-22T09:48:11.000Z</time>
      </trkpt>
      <trkpt lat="43.61021" lon="1.22703">
        <ele>195</ele>
        <time>2013-12-22T09:48:16.000Z</time>
      </trkpt>
      <trkpt lat="43.61013" lon="1.22719">
        <ele>195.39999389648</ele>
        <time>2013-12-22T09:48:22.000Z</time>
      </trkpt>
      <trkpt lat="43.61003" lon="1.22737">
        <ele>195.80000305176</ele>
        <time>2013-12-22T09:48:29.000Z</time>
      </trkpt>
      <trkpt lat="43.60984" lon="1.22771">
        <ele>195</ele>
        <time>2013-12-22T09:48:41.000Z</time>
      </trkpt>
      <trkpt lat="43.60973" lon="1.2279">
        <ele>194.39999389648</ele>
        <time>2013-12-22T09:48:48.000Z</time>
      </trkpt>
      <trkpt lat="43.60963" lon="1.22809">
        <ele>193.80000305176</ele>
        <time>2013-12-22T09:48:55.000Z</time>
      </trkpt>
      <trkpt lat="43.60954" lon="1.22829">
        <ele>193.39999389648</ele>
        <time>2013-12-22T09:49:02.000Z</time>
      </trkpt>
      <trkpt lat="43.6095" lon="1.22855">
        <ele>193.39999389648</ele>
        <time>2013-12-22T09:49:10.000Z</time>
      </trkpt>
      <trkpt lat="43.60951" lon="1.22876">
        <ele>193.39999389648</ele>
        <time>2013-12-22T09:49:16.000Z</time>
      </trkpt>
      <trkpt lat="43.60952" lon="1.229">
        <ele>193.39999389648</ele>
        <time>2013-12-22T09:49:23.000Z</time>
      </trkpt>
      <trkpt lat="43.60954" lon="1.22921">
        <ele>193.39999389648</ele>
        <time>2013-12-22T09:49:30.000Z</time>
      </trkpt>
      <trkpt lat="43.60954" lon="1.22966">
        <ele>193.80000305176</ele>
        <time>2013-12-22T09:49:44.000Z</time>
      </trkpt>
      <trkpt lat="43.60955" lon="1.22984">
        <ele>193.80000305176</ele>
        <time>2013-12-22T09:49:50.000Z</time>
      </trkpt>
      <trkpt lat="43.60955" lon="1.2301">
        <ele>194.19999694824</ele>
        <time>2013-12-22T09:49:58.000Z</time>
      </trkpt>
      <trkpt lat="43.60954" lon="1.23033">
        <ele>194.80000305176</ele>
        <time>2013-12-22T09:50:05.000Z</time>
      </trkpt>
      <trkpt lat="43.60952" lon="1.23048">
        <ele>195</ele>
        <time>2013-12-22T09:50:10.000Z</time>
      </trkpt>
      <trkpt lat="43.60949" lon="1.23065">
        <ele>195.60000610352</ele>
        <time>2013-12-22T09:50:15.000Z</time>
      </trkpt>
      <trkpt lat="43.60945" lon="1.23081">
        <ele>196</ele>
        <time>2013-12-22T09:50:20.000Z</time>
      </trkpt>
      <trkpt lat="43.6094" lon="1.23103">
        <ele>196</ele>
        <time>2013-12-22T09:50:27.000Z</time>
      </trkpt>
      <trkpt lat="43.60936" lon="1.23121">
        <ele>195.80000305176</ele>
        <time>2013-12-22T09:50:33.000Z</time>
      </trkpt>
      <trkpt lat="43.60933" lon="1.23139">
        <ele>195.80000305176</ele>
        <time>2013-12-22T09:50:39.000Z</time>
      </trkpt>
      <trkpt lat="43.6093" lon="1.23154">
        <ele>195.80000305176</ele>
        <time>2013-12-22T09:50:45.000Z</time>
      </trkpt>
      <trkpt lat="43.6093" lon="1.23156">
        <ele>195.80000305176</ele>
        <time>2013-12-22T09:50:46.000Z</time>
      </trkpt>
      <trkpt lat="43.60927" lon="1.23174">
        <ele>195.80000305176</ele>
        <time>2013-12-22T09:50:52.000Z</time>
      </trkpt>
      <trkpt lat="43.60926" lon="1.23193">
        <ele>195.80000305176</ele>
        <time>2013-12-22T09:50:58.000Z</time>
      </trkpt>
      <trkpt lat="43.60923" lon="1.23213">
        <ele>196</ele>
        <time>2013-12-22T09:51:04.000Z</time>
      </trkpt>
      <trkpt lat="43.6092" lon="1.23237">
        <ele>196</ele>
        <time>2013-12-22T09:51:11.000Z</time>
      </trkpt>
      <trkpt lat="43.60916" lon="1.23264">
        <ele>195.60000610352</ele>
        <time>2013-12-22T09:51:19.000Z</time>
      </trkpt>
      <trkpt lat="43.60912" lon="1.23288">
        <ele>195</ele>
        <time>2013-12-22T09:51:26.000Z</time>
      </trkpt>
      <trkpt lat="43.60908" lon="1.23316">
        <ele>194.19999694824</ele>
        <time>2013-12-22T09:51:34.000Z</time>
      </trkpt>
      <trkpt lat="43.60905" lon="1.23332">
        <ele>193.80000305176</ele>
        <time>2013-12-22T09:51:39.000Z</time>
      </trkpt>
      <trkpt lat="43.609" lon="1.23356">
        <ele>193.60000610352</ele>
        <time>2013-12-22T09:51:46.000Z</time>
      </trkpt>
      <trkpt lat="43.60895" lon="1.23375">
        <ele>193.39999389648</ele>
        <time>2013-12-22T09:51:52.000Z</time>
      </trkpt>
      <trkpt lat="43.6089" lon="1.23398">
        <ele>193.39999389648</ele>
        <time>2013-12-22T09:51:59.000Z</time>
      </trkpt>
      <trkpt lat="43.60884" lon="1.23424">
        <ele>193.19999694824</ele>
        <time>2013-12-22T09:52:07.000Z</time>
      </trkpt>
      <trkpt lat="43.60879" lon="1.23443">
        <ele>193</ele>
        <time>2013-12-22T09:52:13.000Z</time>
      </trkpt>
      <trkpt lat="43.60873" lon="1.23457">
        <ele>193</ele>
        <time>2013-12-22T09:52:18.000Z</time>
      </trkpt>
      <trkpt lat="43.60835" lon="1.23446">
        <ele>192.39999389648</ele>
        <time>2013-12-22T09:52:34.000Z</time>
      </trkpt>
      <trkpt lat="43.60822" lon="1.23442">
        <ele>192.60000610352</ele>
        <time>2013-12-22T09:52:39.000Z</time>
      </trkpt>
      <trkpt lat="43.60806" lon="1.23436">
        <ele>193</ele>
        <time>2013-12-22T09:52:45.000Z</time>
      </trkpt>
      <trkpt lat="43.60791" lon="1.23433">
        <ele>193.39999389648</ele>
        <time>2013-12-22T09:52:51.000Z</time>
      </trkpt>
      <trkpt lat="43.60779" lon="1.23436">
        <ele>193.60000610352</ele>
        <time>2013-12-22T09:52:56.000Z</time>
      </trkpt>
      <trkpt lat="43.60768" lon="1.23437">
        <ele>194</ele>
        <time>2013-12-22T09:53:01.000Z</time>
      </trkpt>
      <trkpt lat="43.60757" lon="1.23439">
        <ele>194.39999389648</ele>
        <time>2013-12-22T09:53:06.000Z</time>
      </trkpt>
      <trkpt lat="43.60743" lon="1.23442">
        <ele>194.80000305176</ele>
        <time>2013-12-22T09:53:12.000Z</time>
      </trkpt>
      <trkpt lat="43.60732" lon="1.23449">
        <ele>195</ele>
        <time>2013-12-22T09:53:18.000Z</time>
      </trkpt>
      <trkpt lat="43.60724" lon="1.23454">
        <ele>195</ele>
        <time>2013-12-22T09:53:22.000Z</time>
      </trkpt>
      <trkpt lat="43.60719" lon="1.23453">
        <ele>195.19999694824</ele>
        <time>2013-12-22T09:53:24.000Z</time>
      </trkpt>
      <trkpt lat="43.6071" lon="1.23448">
        <ele>195.19999694824</ele>
        <time>2013-12-22T09:53:28.000Z</time>
      </trkpt>
      <trkpt lat="43.607" lon="1.23472">
        <ele>195.39999389648</ele>
        <time>2013-12-22T09:53:38.000Z</time>
      </trkpt>
      <trkpt lat="43.60699" lon="1.23475">
        <ele>195.39999389648</ele>
        <time>2013-12-22T09:53:39.000Z</time>
      </trkpt>
      <trkpt lat="43.60694" lon="1.23491">
        <ele>195.39999389648</ele>
        <time>2013-12-22T09:53:45.000Z</time>
      </trkpt>
      <trkpt lat="43.6069" lon="1.23506">
        <ele>195.19999694824</ele>
        <time>2013-12-22T09:53:51.000Z</time>
      </trkpt>
      <trkpt lat="43.60686" lon="1.23522">
        <ele>195</ele>
        <time>2013-12-22T09:53:56.000Z</time>
      </trkpt>
      <trkpt lat="43.60683" lon="1.2353">
        <ele>194.80000305176</ele>
        <time>2013-12-22T09:53:59.000Z</time>
      </trkpt>
      <trkpt lat="43.60678" lon="1.23547">
        <ele>194.60000610352</ele>
        <time>2013-12-22T09:54:05.000Z</time>
      </trkpt>
      <trkpt lat="43.60673" lon="1.23568">
        <ele>194.19999694824</ele>
        <time>2013-12-22T09:54:12.000Z</time>
      </trkpt>
      <trkpt lat="43.60669" lon="1.23582">
        <ele>194</ele>
        <time>2013-12-22T09:54:17.000Z</time>
      </trkpt>
      <trkpt lat="43.60663" lon="1.23602">
        <ele>194</ele>
        <time>2013-12-22T09:54:24.000Z</time>
      </trkpt>
      <trkpt lat="43.60658" lon="1.23619">
        <ele>194</ele>
        <time>2013-12-22T09:54:30.000Z</time>
      </trkpt>
      <trkpt lat="43.60653" lon="1.23633">
        <ele>194</ele>
        <time>2013-12-22T09:54:35.000Z</time>
      </trkpt>
      <trkpt lat="43.60647" lon="1.23658">
        <ele>193.80000305176</ele>
        <time>2013-12-22T09:54:43.000Z</time>
      </trkpt>
      <trkpt lat="43.60641" lon="1.23674">
        <ele>193.60000610352</ele>
        <time>2013-12-22T09:54:49.000Z</time>
      </trkpt>
      <trkpt lat="43.60637" lon="1.23692">
        <ele>193.19999694824</ele>
        <time>2013-12-22T09:54:55.000Z</time>
      </trkpt>
      <trkpt lat="43.60633" lon="1.2371">
        <ele>192.80000305176</ele>
        <time>2013-12-22T09:55:01.000Z</time>
      </trkpt>
      <trkpt lat="43.60628" lon="1.23726">
        <ele>192.39999389648</ele>
        <time>2013-12-22T09:55:06.000Z</time>
      </trkpt>
      <trkpt lat="43.60624" lon="1.23742">
        <ele>192.19999694824</ele>
        <time>2013-12-22T09:55:11.000Z</time>
      </trkpt>
      <trkpt lat="43.6062" lon="1.23758">
        <ele>192</ele>
        <time>2013-12-22T09:55:16.000Z</time>
      </trkpt>
      <trkpt lat="43.60615" lon="1.23771">
        <ele>192</ele>
        <time>2013-12-22T09:55:21.000Z</time>
      </trkpt>
      <trkpt lat="43.60612" lon="1.23782">
        <ele>191.80000305176</ele>
        <time>2013-12-22T09:55:25.000Z</time>
      </trkpt>
      <trkpt lat="43.60606" lon="1.23798">
        <ele>191.80000305176</ele>
        <time>2013-12-22T09:55:31.000Z</time>
      </trkpt>
      <trkpt lat="43.60604" lon="1.23809">
        <ele>191.80000305176</ele>
        <time>2013-12-22T09:55:36.000Z</time>
      </trkpt>
      <trkpt lat="43.60601" lon="1.23826">
        <ele>191.80000305176</ele>
        <time>2013-12-22T09:55:42.000Z</time>
      </trkpt>
      <trkpt lat="43.60597" lon="1.23838">
        <ele>191.80000305176</ele>
        <time>2013-12-22T09:55:47.000Z</time>
      </trkpt>
      <trkpt lat="43.60592" lon="1.23852">
        <ele>192</ele>
        <time>2013-12-22T09:55:53.000Z</time>
      </trkpt>
      <trkpt lat="43.60586" lon="1.23872">
        <ele>192</ele>
        <time>2013-12-22T09:56:00.000Z</time>
      </trkpt>
      <trkpt lat="43.60581" lon="1.2389">
        <ele>192</ele>
        <time>2013-12-22T09:56:06.000Z</time>
      </trkpt>
      <trkpt lat="43.60575" lon="1.23911">
        <ele>192.19999694824</ele>
        <time>2013-12-22T09:56:13.000Z</time>
      </trkpt>
      <trkpt lat="43.60572" lon="1.23923">
        <ele>192.60000610352</ele>
        <time>2013-12-22T09:56:18.000Z</time>
      </trkpt>
      <trkpt lat="43.60567" lon="1.23935">
        <ele>193</ele>
        <time>2013-12-22T09:56:24.000Z</time>
      </trkpt>
      <trkpt lat="43.60561" lon="1.23938">
        <ele>193.39999389648</ele>
        <time>2013-12-22T09:56:28.000Z</time>
      </trkpt>
      <trkpt lat="43.60559" lon="1.23937">
        <ele>193.39999389648</ele>
        <time>2013-12-22T09:56:29.000Z</time>
      </trkpt>
      <trkpt lat="43.60548" lon="1.23934">
        <ele>193.60000610352</ele>
        <time>2013-12-22T09:56:35.000Z</time>
      </trkpt>
      <trkpt lat="43.60537" lon="1.23926">
        <ele>194</ele>
        <time>2013-12-22T09:56:42.000Z</time>
      </trkpt>
      <trkpt lat="43.60525" lon="1.23923">
        <ele>194.19999694824</ele>
        <time>2013-12-22T09:56:50.000Z</time>
      </trkpt>
      <trkpt lat="43.60513" lon="1.23928">
        <ele>194.80000305176</ele>
        <time>2013-12-22T09:56:55.000Z</time>
      </trkpt>
      <trkpt lat="43.60511" lon="1.2393">
        <ele>195</ele>
        <time>2013-12-22T09:56:56.000Z</time>
      </trkpt>
      <trkpt lat="43.60505" lon="1.23949">
        <ele>195.60000610352</ele>
        <time>2013-12-22T09:57:03.000Z</time>
      </trkpt>
      <trkpt lat="43.605" lon="1.23963">
        <ele>196.19999694824</ele>
        <time>2013-12-22T09:57:08.000Z</time>
      </trkpt>
      <trkpt lat="43.60499" lon="1.23966">
        <ele>196.19999694824</ele>
        <time>2013-12-22T09:57:09.000Z</time>
      </trkpt>
      <trkpt lat="43.60491" lon="1.23981">
        <ele>196</ele>
        <time>2013-12-22T09:57:15.000Z</time>
      </trkpt>
      <trkpt lat="43.60481" lon="1.24002">
        <ele>195.39999389648</ele>
        <time>2013-12-22T09:57:24.000Z</time>
      </trkpt>
      <trkpt lat="43.60479" lon="1.24007">
        <ele>194.80000305176</ele>
        <time>2013-12-22T09:57:26.000Z</time>
      </trkpt>
      <trkpt lat="43.60474" lon="1.24023">
        <ele>193</ele>
        <time>2013-12-22T09:57:32.000Z</time>
      </trkpt>
      <trkpt lat="43.60469" lon="1.24034">
        <ele>191.60000610352</ele>
        <time>2013-12-22T09:57:36.000Z</time>
      </trkpt>
      <trkpt lat="43.60462" lon="1.24051">
        <ele>189.60000610352</ele>
        <time>2013-12-22T09:57:42.000Z</time>
      </trkpt>
      <trkpt lat="43.60453" lon="1.24062">
        <ele>188</ele>
        <time>2013-12-22T09:57:46.000Z</time>
      </trkpt>
      <trkpt lat="43.60442" lon="1.24076">
        <ele>186.19999694824</ele>
        <time>2013-12-22T09:57:52.000Z</time>
      </trkpt>
      <trkpt lat="43.60441" lon="1.24078">
        <ele>186</ele>
        <time>2013-12-22T09:57:53.000Z</time>
      </trkpt>
      <trkpt lat="43.60432" lon="1.24088">
        <ele>184.80000305176</ele>
        <time>2013-12-22T09:57:58.000Z</time>
      </trkpt>
      <trkpt lat="43.60431" lon="1.2409">
        <ele>184.80000305176</ele>
        <time>2013-12-22T09:57:59.000Z</time>
      </trkpt>
      <trkpt lat="43.60427" lon="1.24094">
        <ele>184.60000610352</ele>
        <time>2013-12-22T09:58:01.000Z</time>
      </trkpt>
      <trkpt lat="43.60418" lon="1.24091">
        <ele>184</ele>
        <time>2013-12-22T09:58:05.000Z</time>
      </trkpt>
      <trkpt lat="43.60415" lon="1.24089">
        <ele>184</ele>
        <time>2013-12-22T09:58:06.000Z</time>
      </trkpt>
      <trkpt lat="43.60402" lon="1.24073">
        <ele>184.39999389648</ele>
        <time>2013-12-22T09:58:13.000Z</time>
      </trkpt>
      <trkpt lat="43.60389" lon="1.24061">
        <ele>184.39999389648</ele>
        <time>2013-12-22T09:58:19.000Z</time>
      </trkpt>
      <trkpt lat="43.60376" lon="1.24049">
        <ele>184.39999389648</ele>
        <time>2013-12-22T09:58:25.000Z</time>
      </trkpt>
      <trkpt lat="43.60363" lon="1.24035">
        <ele>183.80000305176</ele>
        <time>2013-12-22T09:58:32.000Z</time>
      </trkpt>
      <trkpt lat="43.60351" lon="1.24025">
        <ele>183</ele>
        <time>2013-12-22T09:58:37.000Z</time>
      </trkpt>
      <trkpt lat="43.6034" lon="1.24013">
        <ele>181.80000305176</ele>
        <time>2013-12-22T09:58:43.000Z</time>
      </trkpt>
      <trkpt lat="43.60327" lon="1.24002">
        <ele>181.19999694824</ele>
        <time>2013-12-22T09:58:49.000Z</time>
      </trkpt>
      <trkpt lat="43.60316" lon="1.2399">
        <ele>182</ele>
        <time>2013-12-22T09:58:55.000Z</time>
      </trkpt>
      <trkpt lat="43.6031" lon="1.23986">
        <ele>182.19999694824</ele>
        <time>2013-12-22T09:58:58.000Z</time>
      </trkpt>
      <trkpt lat="43.60302" lon="1.2399">
        <ele>182.19999694824</ele>
        <time>2013-12-22T09:59:02.000Z</time>
      </trkpt>
      <trkpt lat="43.60292" lon="1.24003">
        <ele>182.60000610352</ele>
        <time>2013-12-22T09:59:09.000Z</time>
      </trkpt>
      <trkpt lat="43.60284" lon="1.24013">
        <ele>183.19999694824</ele>
        <time>2013-12-22T09:59:14.000Z</time>
      </trkpt>
      <trkpt lat="43.60274" lon="1.24023">
        <ele>184</ele>
        <time>2013-12-22T09:59:20.000Z</time>
      </trkpt>
      <trkpt lat="43.60264" lon="1.24034">
        <ele>185</ele>
        <time>2013-12-22T09:59:26.000Z</time>
      </trkpt>
      <trkpt lat="43.60252" lon="1.24045">
        <ele>186</ele>
        <time>2013-12-22T09:59:33.000Z</time>
      </trkpt>
      <trkpt lat="43.60245" lon="1.24051">
        <ele>186.39999389648</ele>
        <time>2013-12-22T09:59:38.000Z</time>
      </trkpt>
      <trkpt lat="43.60236" lon="1.24055">
        <ele>186.80000305176</ele>
        <time>2013-12-22T09:59:45.000Z</time>
      </trkpt>
      <trkpt lat="43.60228" lon="1.24058">
        <ele>187</ele>
        <time>2013-12-22T09:59:51.000Z</time>
      </trkpt>
      <trkpt lat="43.60227" lon="1.2406">
        <ele>187.19999694824</ele>
        <time>2013-12-22T09:59:52.000Z</time>
      </trkpt>
      <trkpt lat="43.60222" lon="1.24075">
        <ele>188.19999694824</ele>
        <time>2013-12-22T09:59:59.000Z</time>
      </trkpt>
      <trkpt lat="43.60217" lon="1.24093">
        <ele>189.39999389648</ele>
        <time>2013-12-22T10:00:07.000Z</time>
      </trkpt>
      <trkpt lat="43.60212" lon="1.24107">
        <ele>190.19999694824</ele>
        <time>2013-12-22T10:00:14.000Z</time>
      </trkpt>
      <trkpt lat="43.60206" lon="1.24118">
        <ele>191</ele>
        <time>2013-12-22T10:00:20.000Z</time>
      </trkpt>
      <trkpt lat="43.60199" lon="1.2413">
        <ele>191.60000610352</ele>
        <time>2013-12-22T10:00:27.000Z</time>
      </trkpt>
      <trkpt lat="43.60187" lon="1.24145">
        <ele>192.60000610352</ele>
        <time>2013-12-22T10:00:36.000Z</time>
      </trkpt>
      <trkpt lat="43.60178" lon="1.24157">
        <ele>193.39999389648</ele>
        <time>2013-12-22T10:00:43.000Z</time>
      </trkpt>
      <trkpt lat="43.60169" lon="1.24168">
        <ele>194</ele>
        <time>2013-12-22T10:00:49.000Z</time>
      </trkpt>
      <trkpt lat="43.60159" lon="1.24179">
        <ele>194</ele>
        <time>2013-12-22T10:00:55.000Z</time>
      </trkpt>
      <trkpt lat="43.60149" lon="1.24191">
        <ele>194.19999694824</ele>
        <time>2013-12-22T10:01:01.000Z</time>
      </trkpt>
      <trkpt lat="43.6014" lon="1.24202">
        <ele>194.39999389648</ele>
        <time>2013-12-22T10:01:07.000Z</time>
      </trkpt>
      <trkpt lat="43.60139" lon="1.24203">
        <ele>194.39999389648</ele>
        <time>2013-12-22T10:01:08.000Z</time>
      </trkpt>
      <trkpt lat="43.6014" lon="1.24215">
        <ele>194.39999389648</ele>
        <time>2013-12-22T10:01:13.000Z</time>
      </trkpt>
      <trkpt lat="43.60144" lon="1.24218">
        <ele>194.19999694824</ele>
        <time>2013-12-22T10:01:15.000Z</time>
      </trkpt>
      <trkpt lat="43.60156" lon="1.2423">
        <ele>194.19999694824</ele>
        <time>2013-12-22T10:01:22.000Z</time>
      </trkpt>
      <trkpt lat="43.60168" lon="1.24241">
        <ele>194</ele>
        <time>2013-12-22T10:01:28.000Z</time>
      </trkpt>
      <trkpt lat="43.6018" lon="1.24254">
        <ele>194</ele>
        <time>2013-12-22T10:01:35.000Z</time>
      </trkpt>
      <trkpt lat="43.60193" lon="1.24266">
        <ele>194</ele>
        <time>2013-12-22T10:01:42.000Z</time>
      </trkpt>
      <trkpt lat="43.60205" lon="1.24277">
        <ele>194</ele>
        <time>2013-12-22T10:01:48.000Z</time>
      </trkpt>
      <trkpt lat="43.60219" lon="1.24291">
        <ele>193.80000305176</ele>
        <time>2013-12-22T10:01:55.000Z</time>
      </trkpt>
      <trkpt lat="43.6023" lon="1.24305">
        <ele>193.60000610352</ele>
        <time>2013-12-22T10:02:01.000Z</time>
      </trkpt>
      <trkpt lat="43.60244" lon="1.2432">
        <ele>193.19999694824</ele>
        <time>2013-12-22T10:02:07.000Z</time>
      </trkpt>
      <trkpt lat="43.60258" lon="1.24337">
        <ele>192.80000305176</ele>
        <time>2013-12-22T10:02:13.000Z</time>
      </trkpt>
      <trkpt lat="43.60266" lon="1.24357">
        <ele>192.60000610352</ele>
        <time>2013-12-22T10:02:18.000Z</time>
      </trkpt>
      <trkpt lat="43.60269" lon="1.24383">
        <ele>192.39999389648</ele>
        <time>2013-12-22T10:02:25.000Z</time>
      </trkpt>
      <trkpt lat="43.60271" lon="1.24405">
        <ele>192.19999694824</ele>
        <time>2013-12-22T10:02:31.000Z</time>
      </trkpt>
      <trkpt lat="43.60272" lon="1.24427">
        <ele>192</ele>
        <time>2013-12-22T10:02:39.000Z</time>
      </trkpt>
      <trkpt lat="43.60272" lon="1.24439">
        <ele>192.19999694824</ele>
        <time>2013-12-22T10:02:46.000Z</time>
      </trkpt>
      <trkpt lat="43.6027" lon="1.24453">
        <ele>192.19999694824</ele>
        <time>2013-12-22T10:02:58.000Z</time>
      </trkpt>
      <trkpt lat="43.60271" lon="1.24456">
        <ele>192.19999694824</ele>
        <time>2013-12-22T10:03:00.000Z</time>
      </trkpt>
    </trkseg>
  </trk>
</gpx>